Time,TemperatureF,DewpointF,PressureIn,WindDirection,WindDirectionDegrees,WindSpeedMPH,WindSpeedGustMPH,Humidity,HourlyPrecipIn,Conditions,Clouds,dailyrainin,SoftwareType,DateUTC
2013-07-11 00:01:00,74.6,72.4,30.01,SW,227,0.0,0.0,93,0.00,,---,0.00,VWS V14.01,2013-07-11 04:01:00,
2013-07-11 00:02:00,74.6,72.4,30.01,SW,227,0.0,0.0,93,0.00,,---,0.00,VWS V14.01,2013-07-11 04:02:00,
2013-07-11 00:03:00,74.5,72.3,30.01,SW,227,0.0,0.0,93,0.00,,---,0.00,VWS V14.01,2013-07-11 04:03:00,
2013-07-11 00:04:00,74.5,72.3,30.01,SW,227,0.0,0.0,93,0.00,,---,0.00,VWS V14.01,2013-07-11 04:04:00,
2013-07-11 00:05:00,74.5,72.3,30.01,SW,227,0.0,0.0,93,0.00,,---,0.00,VWS V14.01,2013-07-11 04:05:00,
2013-07-11 00:06:00,74.5,72.3,30.01,SW,227,0.0,0.0,93,0.00,,---,0.00,VWS V14.01,2013-07-11 04:06:00,
2013-07-11 00:07:00,74.5,72.3,30.01,SW,227,0.0,0.0,93,0.00,,---,0.00,VWS V14.01,2013-07-11 04:07:00,
2013-07-11 00:08:00,74.5,72.3,30.01,SW,227,0.0,0.0,93,0.00,,---,0.00,VWS V14.01,2013-07-11 04:08:00,
2013-07-11 00:09:00,74.4,72.2,30.01,SW,227,0.0,0.0,93,0.00,,---,0.00,VWS V14.01,2013-07-11 04:09:00,
2013-07-11 00:10:00,74.4,72.2,30.01,SW,227,0.0,0.0,93,0.00,,---,0.00,VWS V14.01,2013-07-11 04:10:00,
2013-07-11 00:11:00,74.4,72.2,30.01,SW,227,0.0,0.0,93,0.00,,---,0.00,VWS V14.01,2013-07-11 04:11:00,
2013-07-11 00:12:00,74.4,72.6,30.01,SW,227,0.0,0.0,94,0.00,,---,0.00,VWS V14.01,2013-07-11 04:12:00,
2013-07-11 00:13:00,74.4,72.6,30.01,SW,227,0.0,0.0,94,0.00,,---,0.00,VWS V14.01,2013-07-11 04:13:00,
2013-07-11 00:14:00,74.4,72.6,30.02,SW,227,0.0,0.0,94,0.00,,---,0.00,VWS V14.01,2013-07-11 04:14:00,
2013-07-11 00:15:00,74.4,72.6,30.02,SW,227,0.0,0.0,94,0.00,,---,0.00,VWS V14.01,2013-07-11 04:15:00,
2013-07-11 00:16:00,74.4,72.6,30.01,SW,227,0.0,0.0,94,0.00,,---,0.00,VWS V14.01,2013-07-11 04:16:00,
2013-07-11 00:17:00,74.4,72.6,30.01,SW,227,0.0,0.0,94,0.00,,---,0.00,VWS V14.01,2013-07-11 04:17:00,
2013-07-11 00:18:00,74.3,72.5,30.01,SW,227,0.0,0.0,94,0.00,,---,0.00,VWS V14.01,2013-07-11 04:18:00,
2013-07-11 00:19:00,74.3,72.5,30.01,SW,227,0.0,0.0,94,0.00,,---,0.00,VWS V14.01,2013-07-11 04:19:00,
2013-07-11 00:20:00,74.3,72.5,30.01,SW,227,0.0,0.0,94,0.00,,---,0.00,VWS V14.01,2013-07-11 04:20:00,
2013-07-11 00:21:00,74.3,72.5,30.01,SW,227,0.0,0.0,94,0.00,,---,0.00,VWS V14.01,2013-07-11 04:21:00,
2013-07-11 00:22:00,74.3,72.5,30.01,SW,227,0.0,0.0,94,0.00,,---,0.00,VWS V14.01,2013-07-11 04:22:00,
2013-07-11 00:23:00,74.3,72.5,30.01,SW,227,0.0,0.0,94,0.00,,---,0.00,VWS V14.01,2013-07-11 04:23:00,
2013-07-11 00:24:00,74.3,72.5,30.01,SW,227,0.0,0.0,94,0.00,,---,0.00,VWS V14.01,2013-07-11 04:24:00,
2013-07-11 00:25:00,74.3,72.5,30.01,SW,227,0.0,0.0,94,0.00,,---,0.00,VWS V14.01,2013-07-11 04:25:00,
2013-07-11 00:26:00,74.3,72.5,30.01,SW,227,0.0,0.0,94,0.00,,---,0.00,VWS V14.01,2013-07-11 04:26:00,
2013-07-11 00:27:00,74.3,72.5,30.01,SW,227,0.0,0.0,94,0.00,,---,0.00,VWS V14.01,2013-07-11 04:27:00,
2013-07-11 00:28:00,74.3,72.5,30.01,SW,227,0.0,0.0,94,0.00,,---,0.00,VWS V14.01,2013-07-11 04:28:00,
2013-07-11 00:29:00,74.3,72.5,30.01,SW,227,0.0,0.0,94,0.00,,---,0.00,VWS V14.01,2013-07-11 04:29:00,
2013-07-11 00:30:00,74.3,72.5,30.01,SW,219,0.0,0.0,94,0.00,,---,0.00,VWS V14.01,2013-07-11 04:30:00,
2013-07-11 00:31:00,74.3,72.5,30.01,SW,219,0.0,0.0,94,0.00,,---,0.00,VWS V14.01,2013-07-11 04:31:00,
2013-07-11 00:32:00,74.3,72.5,30.02,SW,219,0.0,0.0,94,0.00,,---,0.00,VWS V14.01,2013-07-11 04:32:00,
2013-07-11 00:33:00,74.3,72.5,30.02,SW,219,0.0,0.0,94,0.00,,---,0.00,VWS V14.01,2013-07-11 04:33:00,
2013-07-11 00:34:00,74.3,72.5,30.01,SW,219,0.0,0.0,94,0.00,,---,0.00,VWS V14.01,2013-07-11 04:34:00,
2013-07-11 00:35:00,74.3,72.5,30.01,South,174,0.0,0.0,94,0.00,,---,0.00,VWS V14.01,2013-07-11 04:35:00,
2013-07-11 00:36:00,74.3,72.5,30.01,South,174,0.0,0.0,94,0.00,,---,0.00,VWS V14.01,2013-07-11 04:36:00,
2013-07-11 00:37:00,74.4,72.6,30.01,South,173,0.0,0.0,94,0.00,,---,0.00,VWS V14.01,2013-07-11 04:37:00,
2013-07-11 00:38:00,74.3,72.5,30.01,South,174,0.0,0.0,94,0.00,,---,0.00,VWS V14.01,2013-07-11 04:38:00,
2013-07-11 00:39:00,74.3,72.5,30.01,South,174,0.0,0.0,94,0.00,,---,0.00,VWS V14.01,2013-07-11 04:39:00,
2013-07-11 00:40:00,74.3,72.5,30.01,South,174,0.0,0.0,94,0.00,,---,0.00,VWS V14.01,2013-07-11 04:40:00,
2013-07-11 00:41:00,74.3,72.5,30.01,South,173,0.0,0.0,94,0.00,,---,0.00,VWS V14.01,2013-07-11 04:41:00,
2013-07-11 00:42:00,74.4,72.6,30.01,South,174,0.0,0.0,94,0.00,,---,0.00,VWS V14.01,2013-07-11 04:42:00,
2013-07-11 00:43:00,74.4,72.6,30.01,South,173,0.0,0.0,94,0.00,,---,0.00,VWS V14.01,2013-07-11 04:43:00,
2013-07-11 00:44:00,74.4,72.6,30.01,South,173,0.0,0.0,94,0.00,,---,0.00,VWS V14.01,2013-07-11 04:44:00,
2013-07-11 00:45:00,74.4,72.6,30.01,South,173,0.0,0.0,94,0.00,,---,0.00,VWS V14.01,2013-07-11 04:45:00,
2013-07-11 00:46:00,74.4,72.6,30.01,South,174,0.0,0.0,94,0.00,,---,0.00,VWS V14.01,2013-07-11 04:46:00,
2013-07-11 00:47:00,74.4,72.6,30.01,South,173,0.0,0.0,94,0.00,,---,0.00,VWS V14.01,2013-07-11 04:47:00,
2013-07-11 00:48:00,74.4,72.6,30.01,South,174,0.0,0.0,94,0.00,,---,0.00,VWS V14.01,2013-07-11 04:48:00,
2013-07-11 00:49:00,74.4,72.6,30.01,South,174,0.0,0.0,94,0.00,,---,0.00,VWS V14.01,2013-07-11 04:49:00,
2013-07-11 00:50:00,74.4,72.6,30.01,SE,146,0.0,1.0,94,0.00,,---,0.00,VWS V14.01,2013-07-11 04:50:00,
2013-07-11 00:51:00,74.4,72.6,30.01,SE,146,0.0,0.0,94,0.00,,---,0.00,VWS V14.01,2013-07-11 04:51:00,
2013-07-11 00:52:00,74.4,72.6,30.01,SE,146,0.0,0.0,94,0.00,,---,0.00,VWS V14.01,2013-07-11 04:52:00,
2013-07-11 00:53:00,74.4,72.6,30.01,SSE,147,0.0,0.0,94,0.00,,---,0.00,VWS V14.01,2013-07-11 04:53:00,
2013-07-11 00:54:00,74.3,72.5,30.01,SE,146,0.0,1.0,94,0.00,,---,0.00,VWS V14.01,2013-07-11 04:54:00,
2013-07-11 00:55:00,74.3,72.5,30.01,SE,146,0.0,0.0,94,0.00,,---,0.00,VWS V14.01,2013-07-11 04:55:00,
2013-07-11 00:56:00,74.3,72.5,30.01,SE,146,0.0,0.0,94,0.00,,---,0.00,VWS V14.01,2013-07-11 04:56:00,
2013-07-11 00:57:00,74.3,72.5,30.00,SE,146,0.0,0.0,94,0.00,,---,0.00,VWS V14.01,2013-07-11 04:57:00,
2013-07-11 00:58:00,74.2,72.4,30.00,SE,146,0.0,0.0,94,0.00,,---,0.00,VWS V14.01,2013-07-11 04:58:00,
2013-07-11 00:59:00,74.2,72.4,30.00,SE,146,0.0,0.0,94,0.00,,---,0.00,VWS V14.01,2013-07-11 04:59:00,
2013-07-11 01:01:00,74.2,72.4,30.00,SE,146,0.0,0.0,94,0.00,,---,0.00,VWS V14.01,2013-07-11 05:01:00,
2013-07-11 01:05:00,74.2,72.4,30.00,SE,146,0.0,0.0,94,0.00,,---,0.00,VWS V14.01,2013-07-11 05:05:00,
2013-07-11 01:06:00,74.1,72.3,30.00,SE,142,3.0,3.0,94,0.00,,---,0.00,VWS V14.01,2013-07-11 05:06:00,
2013-07-11 01:07:00,74.1,72.3,30.00,SE,141,0.0,3.0,94,0.00,,---,0.00,VWS V14.01,2013-07-11 05:07:00,
2013-07-11 01:08:00,74.1,72.3,30.00,SSE,168,2.0,2.0,94,0.00,,---,0.00,VWS V14.01,2013-07-11 05:08:00,
2013-07-11 01:09:00,74.1,72.3,30.00,South,188,0.0,2.0,94,0.00,,---,0.00,VWS V14.01,2013-07-11 05:09:00,
2013-07-11 01:10:00,74.1,72.3,30.00,SSE,153,1.0,1.0,94,0.00,,---,0.00,VWS V14.01,2013-07-11 05:10:00,
2013-07-11 01:11:00,74.1,72.3,30.00,SSE,159,0.0,1.0,94,0.00,,---,0.00,VWS V14.01,2013-07-11 05:11:00,
2013-07-11 01:12:00,74.1,72.3,30.00,SE,134,1.0,1.0,94,0.00,,---,0.00,VWS V14.01,2013-07-11 05:12:00,
2013-07-11 01:13:00,74.0,72.2,30.00,SSE,159,2.0,2.0,94,0.00,,---,0.00,VWS V14.01,2013-07-11 05:13:00,
2013-07-11 01:14:00,74.1,72.3,30.00,SSE,150,1.0,2.0,94,0.00,,---,0.00,VWS V14.01,2013-07-11 05:14:00,
2013-07-11 01:15:00,74.1,72.3,30.00,SE,140,1.0,6.0,94,0.00,,---,0.00,VWS V14.01,2013-07-11 05:15:00,
2013-07-11 01:16:00,74.1,72.3,30.00,SSE,148,1.0,1.0,94,0.00,,---,0.00,VWS V14.01,2013-07-11 05:16:00,
2013-07-11 01:17:00,74.0,72.2,30.00,SSE,152,0.0,1.0,94,0.00,,---,0.00,VWS V14.01,2013-07-11 05:17:00,
2013-07-11 01:18:00,74.1,72.3,30.00,SSE,160,0.0,0.0,94,0.00,,---,0.00,VWS V14.01,2013-07-11 05:18:00,
2013-07-11 01:19:00,74.1,72.3,30.00,SSE,160,0.0,0.0,94,0.00,,---,0.00,VWS V14.01,2013-07-11 05:19:00,
2013-07-11 01:20:00,74.0,71.8,30.00,SE,136,2.0,3.0,93,0.00,,---,0.00,VWS V14.01,2013-07-11 05:20:00,
2013-07-11 01:21:00,74.1,71.9,30.00,ESE,106,1.0,2.0,93,0.00,,---,0.00,VWS V14.01,2013-07-11 05:21:00,
2013-07-11 01:22:00,74.0,71.8,30.00,ESE,107,0.0,2.0,93,0.00,,---,0.00,VWS V14.01,2013-07-11 05:22:00,
2013-07-11 01:23:00,74.0,71.8,30.00,ESE,107,0.0,1.0,93,0.00,,---,0.00,VWS V14.01,2013-07-11 05:23:00,
2013-07-11 01:24:00,74.1,71.9,30.00,South,187,1.0,1.0,93,0.00,,---,0.00,VWS V14.01,2013-07-11 05:24:00,
2013-07-11 01:25:00,74.0,71.8,29.99,West,263,1.0,3.0,93,0.00,,---,0.00,VWS V14.01,2013-07-11 05:25:00,
2013-07-11 01:26:00,74.0,71.8,29.99,South,174,1.0,1.0,93,0.00,,---,0.00,VWS V14.01,2013-07-11 05:26:00,
2013-07-11 01:27:00,74.0,71.8,29.99,SSW,211,1.0,1.0,93,0.00,,---,0.00,VWS V14.01,2013-07-11 05:27:00,
2013-07-11 01:28:00,74.0,71.8,29.99,ESE,111,2.0,2.0,93,0.00,,---,0.00,VWS V14.01,2013-07-11 05:28:00,
2013-07-11 01:29:00,74.0,71.8,29.99,SSW,208,1.0,3.0,93,0.00,,---,0.00,VWS V14.01,2013-07-11 05:29:00,
2013-07-11 01:30:00,74.0,71.8,29.99,SSE,159,0.0,1.0,93,0.00,,---,0.00,VWS V14.01,2013-07-11 05:30:00,
2013-07-11 01:31:00,74.0,71.8,29.99,West,264,1.0,1.0,93,0.00,,---,0.00,VWS V14.01,2013-07-11 05:31:00,
2013-07-11 01:32:00,74.0,71.8,29.99,West,264,0.0,1.0,93,0.00,,---,0.00,VWS V14.01,2013-07-11 05:32:00,
2013-07-11 01:33:00,74.0,71.8,29.99,South,169,1.0,2.0,93,0.00,,---,0.00,VWS V14.01,2013-07-11 05:33:00,
2013-07-11 01:34:00,74.0,71.8,29.99,South,172,1.0,2.0,93,0.00,,---,0.00,VWS V14.01,2013-07-11 05:34:00,
2013-07-11 01:35:00,74.0,71.8,29.99,WNW,288,0.0,1.0,93,0.00,,---,0.00,VWS V14.01,2013-07-11 05:35:00,
2013-07-11 01:36:00,74.0,71.8,29.99,NW,305,2.0,3.0,93,0.00,,---,0.00,VWS V14.01,2013-07-11 05:36:00,
2013-07-11 01:37:00,74.0,71.8,29.99,SSW,200,2.0,3.0,93,0.00,,---,0.00,VWS V14.01,2013-07-11 05:37:00,
2013-07-11 01:38:00,74.0,71.8,29.99,SW,229,0.0,2.0,93,0.00,,---,0.00,VWS V14.01,2013-07-11 05:38:00,
2013-07-11 01:39:00,74.0,71.8,29.99,SSW,195,1.0,1.0,93,0.00,,---,0.00,VWS V14.01,2013-07-11 05:39:00,
2013-07-11 01:40:00,74.0,71.8,29.99,SSW,195,0.0,1.0,93,0.00,,---,0.00,VWS V14.01,2013-07-11 05:40:00,
2013-07-11 01:41:00,74.1,71.9,29.98,SSW,195,0.0,0.0,93,0.00,,---,0.00,VWS V14.01,2013-07-11 05:41:00,
2013-07-11 01:43:00,74.1,71.9,29.98,SSW,202,5.0,5.0,93,0.00,,---,0.00,VWS V14.01,2013-07-11 05:43:00,
2013-07-11 01:44:00,74.1,71.9,29.98,SSW,209,0.0,5.0,93,0.00,,---,0.00,VWS V14.01,2013-07-11 05:44:00,
2013-07-11 01:45:00,74.1,71.9,29.99,SW,221,1.0,1.0,93,0.00,,---,0.00,VWS V14.01,2013-07-11 05:45:00,
2013-07-11 01:46:00,74.1,71.9,29.98,SE,134,3.0,3.0,93,0.00,,---,0.00,VWS V14.01,2013-07-11 05:46:00,
2013-07-11 01:47:00,74.1,71.9,29.98,SE,144,1.0,3.0,93,0.00,,---,0.00,VWS V14.01,2013-07-11 05:47:00,
2013-07-11 01:48:00,74.1,71.9,29.98,SSE,161,0.0,1.0,93,0.00,,---,0.00,VWS V14.01,2013-07-11 05:48:00,
2013-07-11 01:49:00,74.1,71.9,29.98,WSW,244,1.0,1.0,93,0.00,,---,0.00,VWS V14.01,2013-07-11 05:49:00,
2013-07-11 01:50:00,74.1,71.9,29.98,West,260,1.0,2.0,93,0.00,,---,0.00,VWS V14.01,2013-07-11 05:50:00,
2013-07-11 01:51:00,74.0,71.8,29.98,NNW,327,1.0,1.0,93,0.00,,---,0.00,VWS V14.01,2013-07-11 05:51:00,
2013-07-11 01:52:00,74.0,71.8,29.98,NNW,327,0.0,1.0,93,0.00,,---,0.00,VWS V14.01,2013-07-11 05:52:00,
2013-07-11 01:53:00,74.0,71.8,29.98,NW,322,1.0,1.0,93,0.00,,---,0.00,VWS V14.01,2013-07-11 05:53:00,
2013-07-11 01:54:00,74.0,71.8,29.98,West,277,0.0,1.0,93,0.00,,---,0.00,VWS V14.01,2013-07-11 05:54:00,
2013-07-11 01:55:00,74.0,72.2,29.98,WSW,258,0.0,2.0,94,0.00,,---,0.00,VWS V14.01,2013-07-11 05:55:00,
2013-07-11 01:56:00,74.0,72.2,29.98,ENE,58,0.0,2.0,94,0.00,,---,0.00,VWS V14.01,2013-07-11 05:56:00,
2013-07-11 01:57:00,74.0,71.8,29.98,WNW,289,1.0,1.0,94,0.00,,---,0.00,VWS V14.01,2013-07-11 05:57:00,
2013-07-11 01:58:00,74.0,71.8,29.98,WSW,249,1.0,2.0,93,0.00,,---,0.00,VWS V14.01,2013-07-11 05:58:00,
2013-07-11 01:59:00,74.0,72.2,29.98,West,273,2.0,2.0,94,0.00,,---,0.00,VWS V14.01,2013-07-11 05:59:00,
2013-07-11 02:02:00,74.0,71.8,29.98,WSW,245,1.0,2.0,93,0.00,,---,0.00,VWS V14.01,2013-07-11 06:02:00,
2013-07-11 02:06:00,74.0,72.2,29.97,ENE,58,1.0,2.0,94,0.00,,---,0.00,VWS V14.01,2013-07-11 06:06:00,
2013-07-11 02:07:00,73.9,72.1,29.97,West,280,3.0,3.0,94,0.00,,---,0.00,VWS V14.01,2013-07-11 06:07:00,
2013-07-11 02:08:00,73.9,72.1,29.97,West,279,0.0,3.0,94,0.00,,---,0.00,VWS V14.01,2013-07-11 06:08:00,
2013-07-11 02:09:00,73.9,72.1,29.97,SW,215,2.0,2.0,94,0.00,,---,0.00,VWS V14.01,2013-07-11 06:09:00,
2013-07-11 02:10:00,73.9,72.1,29.97,West,259,2.0,2.0,94,0.00,,---,0.00,VWS V14.01,2013-07-11 06:10:00,
2013-07-11 02:11:00,73.9,72.1,29.97,WSW,250,4.0,4.0,94,0.00,,---,0.00,VWS V14.01,2013-07-11 06:11:00,
2013-07-11 02:12:00,73.9,72.1,29.97,WSW,254,1.0,4.0,94,0.00,,---,0.00,VWS V14.01,2013-07-11 06:12:00,
2013-07-11 02:13:00,73.9,72.1,29.97,West,269,1.0,1.0,94,0.00,,---,0.00,VWS V14.01,2013-07-11 06:13:00,
2013-07-11 02:14:00,73.9,72.1,29.97,WSW,252,1.0,1.0,94,0.00,,---,0.00,VWS V14.01,2013-07-11 06:14:00,
2013-07-11 02:15:00,73.9,72.1,29.97,WNW,298,1.0,1.0,94,0.00,,---,0.00,VWS V14.01,2013-07-11 06:15:00,
2013-07-11 02:16:00,73.9,72.1,29.97,West,281,3.0,3.0,94,0.00,,---,0.00,VWS V14.01,2013-07-11 06:16:00,
2013-07-11 02:17:00,73.9,72.1,29.97,West,269,1.0,3.0,94,0.00,,---,0.00,VWS V14.01,2013-07-11 06:17:00,
2013-07-11 02:18:00,73.9,72.1,29.97,West,264,3.0,3.0,94,0.00,,---,0.00,VWS V14.01,2013-07-11 06:18:00,
2013-07-11 02:19:00,73.8,72.0,29.97,SW,232,0.0,3.0,94,0.00,,---,0.00,VWS V14.01,2013-07-11 06:19:00,
2013-07-11 02:20:00,73.8,72.0,29.97,SW,232,1.0,1.0,94,0.00,,---,0.00,VWS V14.01,2013-07-11 06:20:00,
2013-07-11 02:21:00,73.8,72.0,29.97,SW,230,0.0,1.0,94,0.00,,---,0.00,VWS V14.01,2013-07-11 06:21:00,
2013-07-11 02:22:00,73.8,72.0,29.97,NW,319,0.0,0.0,94,0.00,,---,0.00,VWS V14.01,2013-07-11 06:22:00,
2013-07-11 02:23:00,73.8,72.0,29.97,WNW,284,1.0,1.0,94,0.00,,---,0.00,VWS V14.01,2013-07-11 06:23:00,
2013-07-11 02:24:00,73.8,72.0,29.97,South,171,3.0,3.0,94,0.00,,---,0.00,VWS V14.01,2013-07-11 06:24:00,
2013-07-11 02:25:00,73.8,72.0,29.97,West,260,1.0,3.0,94,0.00,,---,0.00,VWS V14.01,2013-07-11 06:25:00,
2013-07-11 02:26:00,73.8,72.0,29.97,NE,44,2.0,2.0,94,0.00,,---,0.00,VWS V14.01,2013-07-11 06:26:00,
2013-07-11 02:27:00,73.8,72.0,29.97,SW,227,1.0,2.0,94,0.00,,---,0.00,VWS V14.01,2013-07-11 06:27:00,
2013-07-11 02:28:00,73.8,72.0,29.97,West,269,0.0,1.0,94,0.00,,---,0.00,VWS V14.01,2013-07-11 06:28:00,
2013-07-11 02:29:00,73.7,71.9,29.97,SW,226,0.0,1.0,94,0.00,,---,0.00,VWS V14.01,2013-07-11 06:29:00,
2013-07-11 02:30:00,73.7,71.9,29.97,SW,218,0.0,1.0,94,0.00,,---,0.00,VWS V14.01,2013-07-11 06:30:00,
2013-07-11 02:31:00,73.7,71.9,29.97,West,265,1.0,2.0,94,0.00,,---,0.00,VWS V14.01,2013-07-11 06:31:00,
2013-07-11 02:32:00,73.7,71.9,29.97,WSW,249,1.0,1.0,94,0.00,,---,0.00,VWS V14.01,2013-07-11 06:32:00,
2013-07-11 02:33:00,73.7,71.9,29.97,SW,225,1.0,2.0,94,0.00,,---,0.00,VWS V14.01,2013-07-11 06:33:00,
2013-07-11 02:34:00,73.7,71.9,29.97,WSW,249,1.0,1.0,94,0.00,,---,0.00,VWS V14.01,2013-07-11 06:34:00,
2013-07-11 02:35:00,73.7,71.9,29.97,West,260,0.0,1.0,94,0.00,,---,0.00,VWS V14.01,2013-07-11 06:35:00,
2013-07-11 02:36:00,73.7,71.9,29.97,WSW,240,2.0,2.0,94,0.00,,---,0.00,VWS V14.01,2013-07-11 06:36:00,
2013-07-11 02:37:00,73.7,71.9,29.97,West,263,1.0,3.0,94,0.00,,---,0.00,VWS V14.01,2013-07-11 06:37:00,
2013-07-11 02:38:00,73.6,71.8,29.97,West,261,0.0,3.0,94,0.00,,---,0.00,VWS V14.01,2013-07-11 06:38:00,
2013-07-11 02:39:00,73.7,71.9,29.97,West,261,1.0,1.0,94,0.00,,---,0.00,VWS V14.01,2013-07-11 06:39:00,
2013-07-11 02:40:00,73.7,71.9,29.97,SW,233,1.0,2.0,94,0.00,,---,0.00,VWS V14.01,2013-07-11 06:40:00,
2013-07-11 02:41:00,73.6,71.8,29.97,SW,232,0.0,1.0,94,0.00,,---,0.00,VWS V14.01,2013-07-11 06:41:00,
2013-07-11 02:42:00,73.6,71.8,29.97,WSW,258,1.0,1.0,94,0.00,,---,0.00,VWS V14.01,2013-07-11 06:42:00,
2013-07-11 02:43:00,73.6,71.8,29.97,SW,234,2.0,2.0,94,0.00,,---,0.00,VWS V14.01,2013-07-11 06:43:00,
2013-07-11 02:44:00,73.6,71.8,29.97,West,263,0.0,2.0,94,0.00,,---,0.00,VWS V14.01,2013-07-11 06:44:00,
2013-07-11 02:45:00,73.6,71.8,29.97,West,263,1.0,1.0,94,0.00,,---,0.00,VWS V14.01,2013-07-11 06:45:00,
2013-07-11 02:46:00,73.6,71.8,29.97,SW,219,1.0,4.0,94,0.00,,---,0.00,VWS V14.01,2013-07-11 06:46:00,
2013-07-11 02:47:00,73.6,71.8,29.97,WNW,294,1.0,2.0,94,0.00,,---,0.00,VWS V14.01,2013-07-11 06:47:00,
2013-07-11 02:48:00,73.6,71.8,29.97,West,265,1.0,1.0,94,0.00,,---,0.00,VWS V14.01,2013-07-11 06:48:00,
2013-07-11 02:49:00,73.6,71.8,29.97,East,79,1.0,1.0,94,0.00,,---,0.00,VWS V14.01,2013-07-11 06:49:00,
2013-07-11 02:50:00,73.6,71.8,29.97,SSW,203,0.0,1.0,94,0.00,,---,0.00,VWS V14.01,2013-07-11 06:50:00,
2013-07-11 02:51:00,73.5,71.7,29.97,SSW,199,1.0,2.0,94,0.00,,---,0.00,VWS V14.01,2013-07-11 06:51:00,
2013-07-11 02:52:00,73.5,71.7,29.97,South,179,0.0,0.0,94,0.00,,---,0.00,VWS V14.01,2013-07-11 06:52:00,
2013-07-11 02:53:00,73.5,71.7,29.97,East,80,2.0,4.0,94,0.00,,---,0.00,VWS V14.01,2013-07-11 06:53:00,
2013-07-11 02:54:00,73.5,71.7,29.97,WSW,238,0.0,2.0,94,0.00,,---,0.00,VWS V14.01,2013-07-11 06:54:00,
2013-07-11 02:55:00,73.5,71.7,29.97,WSW,238,2.0,2.0,94,0.00,,---,0.00,VWS V14.01,2013-07-11 06:55:00,
2013-07-11 02:56:00,73.5,71.7,29.97,West,267,1.0,4.0,94,0.00,,---,0.00,VWS V14.01,2013-07-11 06:56:00,
2013-07-11 02:57:00,73.5,71.7,29.97,ESE,111,0.0,1.0,94,0.00,,---,0.00,VWS V14.01,2013-07-11 06:57:00,
2013-07-11 02:58:00,73.5,71.7,29.97,WSW,245,1.0,1.0,94,0.00,,---,0.00,VWS V14.01,2013-07-11 06:58:00,
2013-07-11 02:59:00,73.5,71.7,29.97,West,265,1.0,2.0,94,0.00,,---,0.00,VWS V14.01,2013-07-11 06:59:00,
2013-07-11 03:02:00,73.5,71.7,29.97,West,273,1.0,1.0,94,0.00,,---,0.00,VWS V14.01,2013-07-11 07:02:00,
2013-07-11 03:04:00,73.5,71.7,29.97,West,273,1.0,1.0,94,0.00,,---,0.00,VWS V14.01,2013-07-11 07:04:00,
2013-07-11 03:05:00,73.5,71.7,29.97,SSW,206,1.0,2.0,94,0.00,,---,0.00,VWS V14.01,2013-07-11 07:05:00,
2013-07-11 03:06:00,73.5,71.7,29.97,ENE,78,1.0,1.0,94,0.00,,---,0.00,VWS V14.01,2013-07-11 07:06:00,
2013-07-11 03:07:00,73.5,71.7,29.97,SW,232,4.0,4.0,94,0.00,,---,0.00,VWS V14.01,2013-07-11 07:07:00,
2013-07-11 03:08:00,73.5,71.7,29.97,South,188,3.0,4.0,94,0.00,,---,0.00,VWS V14.01,2013-07-11 07:08:00,
2013-07-11 03:09:00,73.5,71.7,29.97,WSW,240,2.0,3.0,94,0.00,,---,0.00,VWS V14.01,2013-07-11 07:09:00,
2013-07-11 03:10:00,73.5,72.0,29.97,West,260,2.0,2.0,95,0.00,,---,0.00,VWS V14.01,2013-07-11 07:10:00,
2013-07-11 03:11:00,73.5,72.0,29.97,WSW,245,2.0,2.0,95,0.00,,---,0.00,VWS V14.01,2013-07-11 07:11:00,
2013-07-11 03:12:00,73.4,71.9,29.97,WSW,248,1.0,2.0,95,0.00,,---,0.00,VWS V14.01,2013-07-11 07:12:00,
2013-07-11 03:13:00,73.4,71.9,29.97,West,271,0.0,2.0,95,0.00,,---,0.00,VWS V14.01,2013-07-11 07:13:00,
2013-07-11 03:14:00,73.4,71.9,29.97,West,271,0.0,2.0,95,0.00,,---,0.00,VWS V14.01,2013-07-11 07:14:00,
2013-07-11 03:15:00,73.4,71.9,29.97,SSW,206,0.0,0.0,95,0.00,,---,0.00,VWS V14.01,2013-07-11 07:15:00,
2013-07-11 03:16:00,73.4,71.9,29.97,SW,236,0.0,1.0,95,0.00,,---,0.00,VWS V14.01,2013-07-11 07:16:00,
2013-07-11 03:17:00,73.4,71.9,29.97,SW,236,0.0,0.0,95,0.00,,---,0.00,VWS V14.01,2013-07-11 07:17:00,
2013-07-11 03:18:00,73.4,71.9,29.97,WSW,238,3.0,3.0,95,0.00,,---,0.00,VWS V14.01,2013-07-11 07:18:00,
2013-07-11 03:19:00,73.4,71.9,29.97,SSW,203,2.0,3.0,95,0.00,,---,0.00,VWS V14.01,2013-07-11 07:19:00,
2013-07-11 03:20:00,73.4,71.9,29.97,SW,225,0.0,2.0,95,0.00,,---,0.00,VWS V14.01,2013-07-11 07:20:00,
2013-07-11 03:21:00,73.4,71.9,29.97,West,273,2.0,2.0,95,0.00,,---,0.00,VWS V14.01,2013-07-11 07:21:00,
2013-07-11 03:22:00,73.3,71.8,29.97,WSW,248,1.0,3.0,95,0.00,,---,0.00,VWS V14.01,2013-07-11 07:22:00,
2013-07-11 03:23:00,73.3,71.8,29.97,WSW,252,2.0,4.0,95,0.00,,---,0.00,VWS V14.01,2013-07-11 07:23:00,
2013-07-11 03:24:00,73.3,71.8,29.97,SSW,200,1.0,2.0,95,0.00,,---,0.00,VWS V14.01,2013-07-11 07:24:00,
2013-07-11 03:25:00,73.3,71.8,29.97,ESE,106,1.0,3.0,95,0.00,,---,0.00,VWS V14.01,2013-07-11 07:25:00,
2013-07-11 03:26:00,73.3,71.8,29.97,West,259,0.0,1.0,95,0.00,,---,0.00,VWS V14.01,2013-07-11 07:26:00,
2013-07-11 03:27:00,73.3,71.8,29.97,West,259,0.0,0.0,95,0.00,,---,0.00,VWS V14.01,2013-07-11 07:27:00,
2013-07-11 03:28:00,73.3,71.8,29.97,SW,215,3.0,3.0,95,0.00,,---,0.00,VWS V14.01,2013-07-11 07:28:00,
2013-07-11 03:29:00,73.3,71.8,29.97,SSW,200,1.0,3.0,95,0.00,,---,0.00,VWS V14.01,2013-07-11 07:29:00,
2013-07-11 03:30:00,73.3,71.8,29.97,South,169,0.0,1.0,95,0.00,,---,0.00,VWS V14.01,2013-07-11 07:30:00,
2013-07-11 03:31:00,73.3,71.8,29.97,WSW,253,1.0,4.0,95,0.00,,---,0.00,VWS V14.01,2013-07-11 07:31:00,
2013-07-11 03:32:00,73.3,71.8,29.97,West,273,0.0,1.0,95,0.00,,---,0.00,VWS V14.01,2013-07-11 07:32:00,
2013-07-11 03:33:00,73.3,71.8,29.97,West,273,0.0,1.0,95,0.00,,---,0.00,VWS V14.01,2013-07-11 07:33:00,
2013-07-11 03:34:00,73.3,71.8,29.97,WSW,242,1.0,2.0,95,0.00,,---,0.00,VWS V14.01,2013-07-11 07:34:00,
2013-07-11 03:35:00,73.3,71.8,29.97,West,267,2.0,2.0,95,0.00,,---,0.00,VWS V14.01,2013-07-11 07:35:00,
2013-07-11 03:36:00,73.3,71.8,29.97,West,279,2.0,3.0,95,0.00,,---,0.00,VWS V14.01,2013-07-11 07:36:00,
2013-07-11 03:37:00,73.2,71.7,29.97,West,263,3.0,3.0,95,0.00,,---,0.00,VWS V14.01,2013-07-11 07:37:00,
2013-07-11 03:38:00,73.2,71.7,29.97,West,276,1.0,3.0,95,0.00,,---,0.00,VWS V14.01,2013-07-11 07:38:00,
2013-07-11 03:39:00,73.2,71.7,29.97,SSW,209,2.0,3.0,95,0.00,,---,0.00,VWS V14.01,2013-07-11 07:39:00,
2013-07-11 03:40:00,73.2,71.7,29.97,SW,223,4.0,4.0,95,0.00,,---,0.00,VWS V14.01,2013-07-11 07:40:00,
2013-07-11 03:41:00,73.2,71.7,29.97,West,265,3.0,4.0,95,0.00,,---,0.00,VWS V14.01,2013-07-11 07:41:00,
2013-07-11 03:42:00,73.2,71.7,29.97,WSW,240,1.0,3.0,95,0.00,,---,0.00,VWS V14.01,2013-07-11 07:42:00,
2013-07-11 03:43:00,73.2,71.7,29.97,West,269,2.0,2.0,95,0.00,,---,0.00,VWS V14.01,2013-07-11 07:43:00,
2013-07-11 03:44:00,73.2,71.7,29.97,West,264,1.0,3.0,95,0.00,,---,0.00,VWS V14.01,2013-07-11 07:44:00,
2013-07-11 03:45:00,73.2,71.7,29.96,West,260,4.0,5.0,95,0.00,,---,0.00,VWS V14.01,2013-07-11 07:45:00,
2013-07-11 03:46:00,73.2,71.7,29.97,WSW,240,2.0,4.0,95,0.00,,---,0.00,VWS V14.01,2013-07-11 07:46:00,
2013-07-11 03:47:00,73.2,71.7,29.97,SSW,207,3.0,3.0,95,0.00,,---,0.00,VWS V14.01,2013-07-11 07:47:00,
2013-07-11 03:48:00,73.2,71.7,29.97,SW,230,2.0,5.0,95,0.00,,---,0.00,VWS V14.01,2013-07-11 07:48:00,
2013-07-11 03:49:00,73.2,71.7,29.97,SW,231,1.0,5.0,95,0.00,,---,0.00,VWS V14.01,2013-07-11 07:49:00,
2013-07-11 03:50:00,73.2,71.7,29.97,WSW,238,2.0,2.0,95,0.00,,---,0.00,VWS V14.01,2013-07-11 07:50:00,
2013-07-11 03:51:00,73.2,71.7,29.97,West,281,1.0,3.0,95,0.00,,---,0.00,VWS V14.01,2013-07-11 07:51:00,
2013-07-11 03:52:00,73.2,71.7,29.97,WSW,242,3.0,4.0,95,0.00,,---,0.00,VWS V14.01,2013-07-11 07:52:00,
2013-07-11 03:53:00,73.2,71.7,29.97,SE,133,2.0,5.0,95,0.00,,---,0.00,VWS V14.01,2013-07-11 07:53:00,
2013-07-11 03:54:00,73.2,71.7,29.97,SE,134,1.0,5.0,95,0.00,,---,0.00,VWS V14.01,2013-07-11 07:54:00,
2013-07-11 03:55:00,73.2,71.7,29.97,SSE,148,3.0,3.0,95,0.00,,---,0.00,VWS V14.01,2013-07-11 07:55:00,
2013-07-11 03:56:00,73.2,71.7,29.97,SE,136,3.0,4.0,95,0.00,,---,0.00,VWS V14.01,2013-07-11 07:56:00,
2013-07-11 03:57:00,73.2,71.7,29.97,SW,219,3.0,8.0,95,0.00,,---,0.00,VWS V14.01,2013-07-11 07:57:00,
2013-07-11 03:58:00,73.1,71.6,29.97,SW,222,0.0,3.0,95,0.00,,---,0.00,VWS V14.01,2013-07-11 07:58:00,
2013-07-11 03:59:00,73.1,71.6,29.97,SW,222,0.0,3.0,95,0.00,,---,0.00,VWS V14.01,2013-07-11 07:59:00,
2013-07-11 04:00:00,73.2,71.7,29.97,SW,218,3.0,3.0,95,0.00,,---,0.00,VWS V14.01,2013-07-11 08:00:00,
2013-07-11 04:01:00,73.2,71.7,29.97,SSW,213,0.0,4.0,95,0.00,,---,0.00,VWS V14.01,2013-07-11 08:01:00,
2013-07-11 04:02:00,73.2,71.7,29.97,SSW,199,2.0,2.0,95,0.00,,---,0.00,VWS V14.01,2013-07-11 08:02:00,
2013-07-11 04:03:00,73.1,71.6,29.97,SW,218,2.0,5.0,95,0.00,,---,0.00,VWS V14.01,2013-07-11 08:03:00,
2013-07-11 04:04:00,73.1,71.6,29.97,SW,223,2.0,5.0,95,0.00,,---,0.00,VWS V14.01,2013-07-11 08:04:00,
2013-07-11 04:05:00,73.1,71.6,29.97,SW,227,1.0,2.0,95,0.00,,---,0.00,VWS V14.01,2013-07-11 08:05:00,
2013-07-11 04:06:00,73.1,71.6,29.97,SW,230,2.0,2.0,95,0.00,,---,0.00,VWS V14.01,2013-07-11 08:06:00,
2013-07-11 04:07:00,73.1,71.6,29.97,West,281,2.0,5.0,95,0.00,,---,0.00,VWS V14.01,2013-07-11 08:07:00,
2013-07-11 04:08:00,73.1,71.6,29.97,WSW,252,2.0,2.0,95,0.00,,---,0.00,VWS V14.01,2013-07-11 08:08:00,
2013-07-11 04:09:00,73.1,71.6,29.97,SSW,200,2.0,2.0,95,0.00,,---,0.00,VWS V14.01,2013-07-11 08:09:00,
2013-07-11 04:10:00,73.1,71.6,29.97,SSW,213,2.0,3.0,95,0.00,,---,0.00,VWS V14.01,2013-07-11 08:10:00,
2013-07-11 04:11:00,73.1,71.6,29.97,West,264,2.0,3.0,95,0.00,,---,0.00,VWS V14.01,2013-07-11 08:11:00,
2013-07-11 04:12:00,73.1,71.6,29.97,WSW,257,2.0,3.0,95,0.00,,---,0.00,VWS V14.01,2013-07-11 08:12:00,
2013-07-11 04:13:00,73.1,71.6,29.97,SW,232,1.0,2.0,95,0.00,,---,0.00,VWS V14.01,2013-07-11 08:13:00,
2013-07-11 04:14:00,73.1,71.6,29.97,WSW,242,1.0,2.0,95,0.00,,---,0.00,VWS V14.01,2013-07-11 08:14:00,
2013-07-11 04:15:00,73.1,71.6,29.97,West,272,2.0,2.0,95,0.00,,---,0.00,VWS V14.01,2013-07-11 08:15:00,
2013-07-11 04:16:00,73.1,71.6,29.97,WSW,240,1.0,2.0,95,0.00,,---,0.00,VWS V14.01,2013-07-11 08:16:00,
2013-07-11 04:17:00,73.1,71.6,29.97,SW,223,5.0,5.0,95,0.00,,---,0.00,VWS V14.01,2013-07-11 08:17:00,
2013-07-11 04:18:00,73.1,71.6,29.97,SW,230,1.0,1.0,95,0.00,,---,0.00,VWS V14.01,2013-07-11 08:18:00,
2013-07-11 04:19:00,73.1,71.6,29.97,SW,230,1.0,1.0,95,0.00,,---,0.00,VWS V14.01,2013-07-11 08:19:00,
2013-07-11 04:20:00,73.1,71.6,29.97,SW,236,3.0,3.0,95,0.00,,---,0.00,VWS V14.01,2013-07-11 08:20:00,
2013-07-11 04:21:00,73.0,71.5,29.97,SW,214,3.0,3.0,95,0.00,,---,0.00,VWS V14.01,2013-07-11 08:21:00,
2013-07-11 04:22:00,73.0,71.8,29.97,WSW,238,2.0,3.0,96,0.00,,---,0.00,VWS V14.01,2013-07-11 08:22:00,
2013-07-11 04:23:00,73.0,71.8,29.97,WSW,242,2.0,2.0,96,0.00,,---,0.00,VWS V14.01,2013-07-11 08:23:00,
2013-07-11 04:24:00,73.0,71.8,29.97,SW,225,4.0,4.0,96,0.00,,---,0.00,VWS V14.01,2013-07-11 08:24:00,
2013-07-11 04:25:00,73.0,71.8,29.97,East,85,3.0,4.0,96,0.00,,---,0.00,VWS V14.01,2013-07-11 08:25:00,
2013-07-11 04:26:00,73.0,71.8,29.97,WSW,252,3.0,5.0,96,0.00,,---,0.00,VWS V14.01,2013-07-11 08:26:00,
2013-07-11 04:27:00,73.0,71.8,29.97,WSW,237,0.0,3.0,96,0.00,,---,0.00,VWS V14.01,2013-07-11 08:27:00,
2013-07-11 04:28:00,73.0,71.8,29.97,SW,225,2.0,3.0,96,0.00,,---,0.00,VWS V14.01,2013-07-11 08:28:00,
2013-07-11 04:29:00,73.0,71.8,29.97,SSW,202,5.0,5.0,96,0.00,,---,0.00,VWS V14.01,2013-07-11 08:29:00,
2013-07-11 04:30:00,73.0,71.8,29.97,WSW,238,6.0,6.0,96,0.00,,---,0.00,VWS V14.01,2013-07-11 08:30:00,
2013-07-11 04:31:00,73.0,71.8,29.97,WSW,252,2.0,6.0,96,0.00,,---,0.00,VWS V14.01,2013-07-11 08:31:00,
2013-07-11 04:32:00,73.0,71.8,29.97,WSW,241,2.0,4.0,96,0.00,,---,0.00,VWS V14.01,2013-07-11 08:32:00,
2013-07-11 04:33:00,72.9,71.7,29.97,WSW,240,2.0,4.0,96,0.00,,---,0.00,VWS V14.01,2013-07-11 08:33:00,
2013-07-11 04:34:00,73.0,71.8,29.97,WNW,300,2.0,4.0,96,0.00,,---,0.00,VWS V14.01,2013-07-11 08:34:00,
2013-07-11 04:35:00,72.9,71.7,29.97,SSE,153,1.0,2.0,96,0.00,,---,0.00,VWS V14.01,2013-07-11 08:35:00,
2013-07-11 04:36:00,73.0,71.8,29.97,SW,229,2.0,3.0,96,0.00,,---,0.00,VWS V14.01,2013-07-11 08:36:00,
2013-07-11 04:37:00,72.9,71.7,29.97,SW,219,4.0,4.0,96,0.00,,---,0.00,VWS V14.01,2013-07-11 08:37:00,
2013-07-11 04:38:00,73.0,71.8,29.97,West,277,2.0,3.0,96,0.00,,---,0.00,VWS V14.01,2013-07-11 08:38:00,
2013-07-11 04:39:00,73.0,71.8,29.97,SW,230,2.0,3.0,96,0.00,,---,0.00,VWS V14.01,2013-07-11 08:39:00,
2013-07-11 04:40:00,73.0,71.8,29.97,South,175,2.0,4.0,96,0.00,,---,0.00,VWS V14.01,2013-07-11 08:40:00,
2013-07-11 04:41:00,72.9,71.7,29.97,WSW,256,2.0,4.0,96,0.00,,---,0.00,VWS V14.01,2013-07-11 08:41:00,
2013-07-11 04:42:00,72.9,71.7,29.97,West,281,2.0,4.0,96,0.00,,---,0.00,VWS V14.01,2013-07-11 08:42:00,
2013-07-11 04:43:00,72.9,71.7,29.97,West,268,1.0,3.0,96,0.00,,---,0.00,VWS V14.01,2013-07-11 08:43:00,
2013-07-11 04:44:00,72.9,71.7,29.97,SW,233,2.0,3.0,96,0.00,,---,0.00,VWS V14.01,2013-07-11 08:44:00,
2013-07-11 04:45:00,72.9,71.7,29.97,West,261,3.0,3.0,96,0.00,,---,0.00,VWS V14.01,2013-07-11 08:45:00,
2013-07-11 04:46:00,72.9,71.7,29.97,South,183,4.0,4.0,96,0.00,,---,0.00,VWS V14.01,2013-07-11 08:46:00,
2013-07-11 04:47:00,72.9,71.7,29.97,SW,225,2.0,4.0,96,0.00,,---,0.00,VWS V14.01,2013-07-11 08:47:00,
2013-07-11 04:48:00,72.9,71.7,29.97,SW,221,6.0,6.0,96,0.00,,---,0.00,VWS V14.01,2013-07-11 08:48:00,
2013-07-11 04:49:00,72.9,71.7,29.97,WSW,240,3.0,6.0,96,0.00,,---,0.00,VWS V14.01,2013-07-11 08:49:00,
2013-07-11 04:50:00,72.9,71.7,29.97,SW,218,7.0,7.0,96,0.00,,---,0.00,VWS V14.01,2013-07-11 08:50:00,
2013-07-11 04:51:00,72.9,71.7,29.97,WSW,245,1.0,7.0,96,0.00,,---,0.00,VWS V14.01,2013-07-11 08:51:00,
2013-07-11 04:52:00,72.9,71.7,29.97,SSW,213,3.0,4.0,96,0.00,,---,0.00,VWS V14.01,2013-07-11 08:52:00,
2013-07-11 04:53:00,72.9,71.7,29.97,SSE,163,2.0,2.0,96,0.00,,---,0.00,VWS V14.01,2013-07-11 08:53:00,
2013-07-11 04:54:00,72.9,71.7,29.97,West,277,1.0,2.0,96,0.00,,---,0.00,VWS V14.01,2013-07-11 08:54:00,
2013-07-11 04:55:00,72.9,71.7,29.97,SW,223,2.0,4.0,96,0.00,,---,0.00,VWS V14.01,2013-07-11 08:55:00,
2013-07-11 04:56:00,72.9,71.7,29.97,WSW,246,1.0,4.0,96,0.00,,---,0.00,VWS V14.01,2013-07-11 08:56:00,
2013-07-11 04:57:00,72.9,71.7,29.97,WSW,238,5.0,5.0,96,0.00,,---,0.00,VWS V14.01,2013-07-11 08:57:00,
2013-07-11 04:58:00,72.9,71.7,29.98,SSW,208,2.0,4.0,96,0.00,,---,0.00,VWS V14.01,2013-07-11 08:58:00,
2013-07-11 04:59:00,72.9,71.7,29.98,SSW,206,1.0,4.0,96,0.00,,---,0.00,VWS V14.01,2013-07-11 08:59:00,
2013-07-11 05:00:00,72.9,71.7,29.98,WSW,258,2.0,3.0,96,0.00,,---,0.00,VWS V14.01,2013-07-11 09:00:00,
2013-07-11 05:01:00,72.9,71.7,29.98,WSW,257,2.0,2.0,96,0.00,,---,0.00,VWS V14.01,2013-07-11 09:01:00,
2013-07-11 05:02:00,72.9,71.7,29.98,West,259,5.0,6.0,96,0.00,,---,0.00,VWS V14.01,2013-07-11 09:02:00,
2013-07-11 05:03:00,72.9,71.7,29.98,WSW,240,3.0,3.0,96,0.00,,---,0.00,VWS V14.01,2013-07-11 09:03:00,
2013-07-11 05:04:00,72.9,71.7,29.98,SSW,205,3.0,3.0,96,0.00,,---,0.00,VWS V14.01,2013-07-11 09:04:00,
2013-07-11 05:05:00,72.9,71.7,29.98,SW,222,5.0,5.0,96,0.00,,---,0.00,VWS V14.01,2013-07-11 09:05:00,
2013-07-11 05:06:00,72.9,71.7,29.98,SE,141,2.0,5.0,96,0.00,,---,0.00,VWS V14.01,2013-07-11 09:06:00,
2013-07-11 05:07:00,72.9,71.7,29.98,SE,128,1.0,2.0,96,0.00,,---,0.00,VWS V14.01,2013-07-11 09:07:00,
2013-07-11 05:08:00,72.9,71.7,29.98,WSW,240,1.0,3.0,96,0.00,,---,0.00,VWS V14.01,2013-07-11 09:08:00,
2013-07-11 05:09:00,72.9,71.7,29.98,WSW,240,1.0,3.0,96,0.00,,---,0.00,VWS V14.01,2013-07-11 09:09:00,
2013-07-11 05:10:00,72.9,71.7,29.98,SW,236,1.0,1.0,96,0.00,,---,0.00,VWS V14.01,2013-07-11 09:10:00,
2013-07-11 05:11:00,72.9,71.7,29.98,West,259,2.0,3.0,96,0.00,,---,0.00,VWS V14.01,2013-07-11 09:11:00,
2013-07-11 05:12:00,72.9,71.7,29.98,SW,215,2.0,4.0,96,0.00,,---,0.00,VWS V14.01,2013-07-11 09:12:00,
2013-07-11 05:13:00,72.9,71.7,29.98,West,261,3.0,3.0,96,0.00,,---,0.00,VWS V14.01,2013-07-11 09:13:00,
2013-07-11 05:14:00,72.9,71.7,29.98,SE,141,1.0,3.0,96,0.00,,---,0.00,VWS V14.01,2013-07-11 09:14:00,
2013-07-11 05:15:00,72.9,71.7,29.98,West,269,0.0,1.0,96,0.00,,---,0.00,VWS V14.01,2013-07-11 09:15:00,
2013-07-11 05:16:00,72.9,71.7,29.98,SSE,152,3.0,5.0,96,0.00,,---,0.00,VWS V14.01,2013-07-11 09:16:00,
2013-07-11 05:17:00,72.9,71.7,29.98,SW,232,3.0,5.0,96,0.00,,---,0.00,VWS V14.01,2013-07-11 09:17:00,
2013-07-11 05:18:00,72.9,71.7,29.98,WSW,252,4.0,4.0,96,0.00,,---,0.00,VWS V14.01,2013-07-11 09:18:00,
2013-07-11 05:19:00,72.9,71.7,29.98,WSW,258,2.0,4.0,96,0.00,,---,0.00,VWS V14.01,2013-07-11 09:19:00,
2013-07-11 05:20:00,72.9,71.7,29.98,South,186,4.0,6.0,96,0.00,,---,0.00,VWS V14.01,2013-07-11 09:20:00,
2013-07-11 05:21:00,72.9,71.7,29.98,WSW,245,1.0,4.0,96,0.00,,---,0.00,VWS V14.01,2013-07-11 09:21:00,
2013-07-11 05:22:00,72.9,71.7,29.98,WSW,256,4.0,4.0,96,0.00,,---,0.00,VWS V14.01,2013-07-11 09:22:00,
2013-07-11 05:23:00,72.9,71.7,29.98,SW,236,0.0,2.0,96,0.00,,---,0.00,VWS V14.01,2013-07-11 09:23:00,
2013-07-11 05:24:00,72.9,71.7,29.98,SW,234,0.0,2.0,96,0.00,,---,0.00,VWS V14.01,2013-07-11 09:24:00,
2013-07-11 05:25:00,72.9,71.7,29.98,WSW,252,3.0,3.0,96,0.00,,---,0.00,VWS V14.01,2013-07-11 09:25:00,
2013-07-11 05:26:00,72.9,71.7,29.98,WSW,242,0.0,3.0,96,0.00,,---,0.00,VWS V14.01,2013-07-11 09:26:00,
2013-07-11 05:27:00,72.9,71.7,29.98,SW,226,1.0,3.0,96,0.00,,---,0.00,VWS V14.01,2013-07-11 09:27:00,
2013-07-11 05:28:00,72.9,71.7,29.98,SW,236,1.0,2.0,96,0.00,,---,0.00,VWS V14.01,2013-07-11 09:28:00,
2013-07-11 05:29:00,72.9,71.7,29.98,SW,232,1.0,2.0,96,0.00,,---,0.00,VWS V14.01,2013-07-11 09:29:00,
2013-07-11 05:30:00,72.9,71.7,29.98,SW,225,2.0,3.0,96,0.00,,---,0.00,VWS V14.01,2013-07-11 09:30:00,
2013-07-11 05:31:00,72.9,71.7,29.98,SW,223,4.0,4.0,96,0.00,,---,0.00,VWS V14.01,2013-07-11 09:31:00,
2013-07-11 05:32:00,72.9,71.7,29.98,WSW,246,3.0,5.0,96,0.00,,---,0.00,VWS V14.01,2013-07-11 09:32:00,
2013-07-11 05:33:00,72.9,71.7,29.98,WSW,253,1.0,2.0,96,0.00,,---,0.00,VWS V14.01,2013-07-11 09:33:00,
2013-07-11 05:34:00,72.9,71.7,29.98,SSE,155,3.0,3.0,96,0.00,,---,0.00,VWS V14.01,2013-07-11 09:34:00,
2013-07-11 05:35:00,72.9,71.7,29.98,SW,225,2.0,4.0,96,0.00,,---,0.00,VWS V14.01,2013-07-11 09:35:00,
2013-07-11 05:36:00,73.0,71.8,29.99,WSW,256,1.0,2.0,96,0.00,,---,0.00,VWS V14.01,2013-07-11 09:36:00,
2013-07-11 05:37:00,73.0,71.8,29.98,WSW,242,1.0,1.0,96,0.00,,---,0.00,VWS V14.01,2013-07-11 09:37:00,
2013-07-11 05:38:00,73.0,71.8,29.99,SSW,199,1.0,3.0,96,0.00,,---,0.00,VWS V14.01,2013-07-11 09:38:00,
2013-07-11 05:39:00,73.0,71.8,29.99,West,275,2.0,3.0,96,0.00,,---,0.00,VWS V14.01,2013-07-11 09:39:00,
2013-07-11 05:40:00,73.0,71.8,29.99,West,273,1.0,2.0,96,0.00,,---,0.00,VWS V14.01,2013-07-11 09:40:00,
2013-07-11 05:41:00,73.0,71.8,29.99,West,263,2.0,5.0,96,0.00,,---,0.00,VWS V14.01,2013-07-11 09:41:00,
2013-07-11 05:43:00,73.0,71.8,29.99,WSW,237,0.0,1.0,96,0.00,,---,0.00,VWS V14.01,2013-07-11 09:43:00,
2013-07-11 05:44:00,73.0,71.8,29.99,WSW,252,1.0,1.0,96,0.00,,---,0.00,VWS V14.01,2013-07-11 09:44:00,
2013-07-11 05:45:00,73.0,71.8,29.99,SSW,198,0.0,1.0,96,0.00,,---,0.00,VWS V14.01,2013-07-11 09:45:00,
2013-07-11 05:46:00,73.0,71.8,29.99,West,279,3.0,3.0,96,0.00,,---,0.00,VWS V14.01,2013-07-11 09:46:00,
2013-07-11 05:47:00,73.0,71.8,29.99,SW,222,5.0,5.0,96,0.00,,---,0.00,VWS V14.01,2013-07-11 09:47:00,
2013-07-11 05:48:00,73.0,71.8,29.99,SSW,206,1.0,3.0,96,0.00,,---,0.00,VWS V14.01,2013-07-11 09:48:00,
2013-07-11 05:49:00,73.0,71.8,29.99,SW,229,2.0,3.0,96,0.00,,---,0.00,VWS V14.01,2013-07-11 09:49:00,
2013-07-11 05:50:00,73.1,71.9,29.99,WSW,249,3.0,4.0,96,0.00,,---,0.00,VWS V14.01,2013-07-11 09:50:00,
2013-07-11 05:51:00,73.1,71.9,29.99,SW,236,2.0,4.0,96,0.00,,---,0.00,VWS V14.01,2013-07-11 09:51:00,
2013-07-11 05:52:00,73.1,71.9,29.99,SSW,209,2.0,3.0,96,0.00,,---,0.00,VWS V14.01,2013-07-11 09:52:00,
2013-07-11 05:53:00,73.1,71.9,29.99,SSW,209,5.0,5.0,96,0.00,,---,0.00,VWS V14.01,2013-07-11 09:53:00,
2013-07-11 05:54:00,73.1,71.9,29.99,SSE,157,2.0,5.0,96,0.00,,---,0.00,VWS V14.01,2013-07-11 09:54:00,
2013-07-11 05:55:00,73.1,71.9,29.99,SW,215,1.0,2.0,96,0.00,,---,0.00,VWS V14.01,2013-07-11 09:55:00,
2013-07-11 05:56:00,73.1,71.9,29.99,SW,227,0.0,2.0,96,0.00,,---,0.00,VWS V14.01,2013-07-11 09:56:00,
2013-07-11 05:57:00,73.1,71.9,29.99,SW,214,3.0,5.0,96,0.00,,---,0.00,VWS V14.01,2013-07-11 09:57:00,
2013-07-11 05:58:00,73.2,72.0,29.99,South,188,1.0,1.0,96,0.00,,---,0.00,VWS V14.01,2013-07-11 09:58:00,
2013-07-11 05:59:00,73.2,72.0,29.99,SW,226,1.0,1.0,96,0.00,,---,0.00,VWS V14.01,2013-07-11 09:59:00,
2013-07-11 06:00:00,73.2,72.0,29.99,SW,226,0.0,1.0,96,0.00,,---,0.00,VWS V14.01,2013-07-11 10:00:00,
2013-07-11 06:01:00,73.2,72.0,29.99,WSW,242,2.0,5.0,96,0.00,,---,0.00,VWS V14.01,2013-07-11 10:01:00,
2013-07-11 06:02:00,73.2,72.0,29.99,SE,126,1.0,3.0,96,0.00,,---,0.00,VWS V14.01,2013-07-11 10:02:00,
2013-07-11 06:03:00,73.2,72.0,29.99,West,265,0.0,2.0,96,0.00,,---,0.00,VWS V14.01,2013-07-11 10:03:00,
2013-07-11 06:04:00,73.2,72.0,29.99,West,265,0.0,2.0,96,0.00,,---,0.00,VWS V14.01,2013-07-11 10:04:00,
2013-07-11 06:05:00,73.2,72.0,29.99,WSW,246,1.0,1.0,96,0.00,,---,0.00,VWS V14.01,2013-07-11 10:05:00,
2013-07-11 06:06:00,73.2,72.0,29.99,SSW,205,3.0,4.0,96,0.00,,---,0.00,VWS V14.01,2013-07-11 10:06:00,
2013-07-11 06:07:00,73.2,72.0,29.99,West,271,2.0,3.0,96,0.00,,---,0.00,VWS V14.01,2013-07-11 10:07:00,
2013-07-11 06:08:00,73.2,72.0,29.99,WSW,242,0.0,1.0,96,0.00,,---,0.00,VWS V14.01,2013-07-11 10:08:00,
2013-07-11 06:09:00,73.2,72.0,29.99,WSW,242,1.0,1.0,96,0.00,,---,0.00,VWS V14.01,2013-07-11 10:09:00,
2013-07-11 06:10:00,73.3,71.8,29.99,WSW,256,3.0,4.0,95,0.00,,---,0.00,VWS V14.01,2013-07-11 10:10:00,
2013-07-11 06:11:00,73.3,71.8,29.99,SSW,211,0.0,3.0,95,0.00,,---,0.00,VWS V14.01,2013-07-11 10:11:00,
2013-07-11 06:12:00,73.2,71.7,29.99,West,265,1.0,2.0,95,0.00,,---,0.00,VWS V14.01,2013-07-11 10:12:00,
2013-07-11 06:13:00,73.2,71.7,29.99,SSW,211,0.0,1.0,95,0.00,,---,0.00,VWS V14.01,2013-07-11 10:13:00,
2013-07-11 06:14:00,73.3,71.8,29.99,SW,219,0.0,1.0,95,0.00,,---,0.00,VWS V14.01,2013-07-11 10:14:00,
2013-07-11 06:15:00,73.3,71.8,29.99,SW,225,3.0,3.0,95,0.00,,---,0.00,VWS V14.01,2013-07-11 10:15:00,
2013-07-11 06:16:00,73.3,71.8,29.99,WSW,237,0.0,5.0,95,0.00,,---,0.00,VWS V14.01,2013-07-11 10:16:00,
2013-07-11 06:17:00,73.3,71.8,29.99,SSW,195,1.0,5.0,95,0.00,,---,0.00,VWS V14.01,2013-07-11 10:17:00,
2013-07-11 06:18:00,73.3,71.8,29.99,West,259,1.0,1.0,95,0.00,,---,0.00,VWS V14.01,2013-07-11 10:18:00,
2013-07-11 06:19:00,73.3,71.8,29.99,SSE,163,1.0,1.0,95,0.00,,---,0.00,VWS V14.01,2013-07-11 10:19:00,
2013-07-11 06:20:00,73.3,71.8,29.99,South,183,3.0,5.0,95,0.00,,---,0.00,VWS V14.01,2013-07-11 10:20:00,
2013-07-11 06:21:00,73.3,71.8,29.99,SSE,150,2.0,4.0,95,0.00,,---,0.00,VWS V14.01,2013-07-11 10:21:00,
2013-07-11 06:22:00,73.3,71.8,29.99,SSW,209,4.0,4.0,95,0.00,,---,0.00,VWS V14.01,2013-07-11 10:22:00,
2013-07-11 06:23:00,73.3,71.8,29.99,SSW,198,0.0,1.0,95,0.00,,---,0.00,VWS V14.01,2013-07-11 10:23:00,
2013-07-11 06:24:00,73.3,71.8,29.99,South,179,1.0,2.0,95,0.00,,---,0.00,VWS V14.01,2013-07-11 10:24:00,
2013-07-11 06:25:00,73.3,71.8,29.99,SW,232,1.0,4.0,95,0.00,,---,0.00,VWS V14.01,2013-07-11 10:25:00,
2013-07-11 06:26:00,73.3,71.8,29.99,SSW,200,1.0,1.0,95,0.00,,---,0.00,VWS V14.01,2013-07-11 10:26:00,
2013-07-11 06:27:00,73.3,71.8,29.99,SSW,194,2.0,3.0,95,0.00,,---,0.00,VWS V14.01,2013-07-11 10:27:00,
2013-07-11 06:28:00,73.3,71.8,29.99,SW,226,5.0,5.0,95,0.00,,---,0.00,VWS V14.01,2013-07-11 10:28:00,
2013-07-11 06:29:00,73.3,71.8,29.99,West,263,1.0,5.0,95,0.00,,---,0.00,VWS V14.01,2013-07-11 10:29:00,
2013-07-11 06:30:00,73.3,71.8,29.99,SW,232,2.0,2.0,95,0.00,,---,0.00,VWS V14.01,2013-07-11 10:30:00,
2013-07-11 06:31:00,73.3,71.8,29.99,WSW,253,2.0,6.0,95,0.00,,---,0.00,VWS V14.01,2013-07-11 10:31:00,
2013-07-11 06:32:00,73.3,71.8,29.99,WSW,240,0.0,3.0,95,0.00,,---,0.00,VWS V14.01,2013-07-11 10:32:00,
2013-07-11 06:33:00,73.3,71.8,29.99,West,268,2.0,2.0,95,0.00,,---,0.00,VWS V14.01,2013-07-11 10:33:00,
2013-07-11 06:34:00,73.3,71.8,29.99,SW,215,1.0,2.0,95,0.00,,---,0.00,VWS V14.01,2013-07-11 10:34:00,
2013-07-11 06:35:00,73.3,71.8,29.99,SW,236,1.0,1.0,95,0.00,,---,0.00,VWS V14.01,2013-07-11 10:35:00,
2013-07-11 06:36:00,73.3,71.8,29.99,WSW,249,0.0,1.0,95,0.00,,---,0.00,VWS V14.01,2013-07-11 10:36:00,
2013-07-11 06:37:00,73.3,71.8,29.99,WSW,249,0.0,0.0,95,0.00,,---,0.00,VWS V14.01,2013-07-11 10:37:00,
2013-07-11 06:38:00,73.3,71.8,29.99,WSW,243,0.0,1.0,95,0.00,,---,0.00,VWS V14.01,2013-07-11 10:38:00,
2013-07-11 06:39:00,73.3,71.8,29.99,SW,221,3.0,4.0,95,0.00,,---,0.00,VWS V14.01,2013-07-11 10:39:00,
2013-07-11 06:40:00,73.4,71.9,29.99,WSW,245,1.0,3.0,95,0.00,,---,0.00,VWS V14.01,2013-07-11 10:40:00,
2013-07-11 06:41:00,73.3,71.8,29.99,SW,227,1.0,2.0,95,0.00,,---,0.00,VWS V14.01,2013-07-11 10:41:00,
2013-07-11 06:42:00,73.3,71.8,29.99,WSW,242,1.0,2.0,95,0.00,,---,0.00,VWS V14.01,2013-07-11 10:42:00,
2013-07-11 06:43:00,73.3,71.8,29.99,SSW,209,2.0,2.0,95,0.00,,---,0.00,VWS V14.01,2013-07-11 10:43:00,
2013-07-11 06:44:00,73.3,71.8,29.99,West,268,2.0,2.0,95,0.00,,---,0.00,VWS V14.01,2013-07-11 10:44:00,
2013-07-11 06:45:00,73.3,71.8,29.99,SW,218,2.0,2.0,95,0.00,,---,0.00,VWS V14.01,2013-07-11 10:45:00,
2013-07-11 06:46:00,73.3,71.8,29.99,WSW,252,1.0,3.0,95,0.00,,---,0.00,VWS V14.01,2013-07-11 10:46:00,
2013-07-11 06:47:00,73.3,71.8,29.99,West,272,3.0,4.0,95,0.00,,---,0.00,VWS V14.01,2013-07-11 10:47:00,
2013-07-11 06:48:00,73.4,71.9,29.99,WSW,238,0.0,1.0,95,0.00,,---,0.00,VWS V14.01,2013-07-11 10:48:00,
2013-07-11 06:49:00,73.4,71.9,29.99,WSW,251,2.0,2.0,95,0.00,,---,0.00,VWS V14.01,2013-07-11 10:49:00,
2013-07-11 06:50:00,73.3,71.8,29.99,WSW,238,1.0,3.0,95,0.00,,---,0.00,VWS V14.01,2013-07-11 10:50:00,
2013-07-11 06:51:00,73.4,71.9,29.99,SW,219,0.0,2.0,95,0.00,,---,0.00,VWS V14.01,2013-07-11 10:51:00,
2013-07-11 06:52:00,73.4,71.9,30.00,SW,219,0.0,1.0,95,0.00,,---,0.00,VWS V14.01,2013-07-11 10:52:00,
2013-07-11 06:53:00,73.4,71.9,29.99,SW,229,1.0,2.0,95,0.00,,---,0.00,VWS V14.01,2013-07-11 10:53:00,
2013-07-11 06:54:00,73.4,71.9,29.99,SSE,152,1.0,2.0,95,0.00,,---,0.00,VWS V14.01,2013-07-11 10:54:00,
2013-07-11 06:55:00,73.4,71.9,29.99,SW,225,1.0,3.0,95,0.00,,---,0.00,VWS V14.01,2013-07-11 10:55:00,
2013-07-11 06:56:00,73.4,71.9,29.99,WSW,254,1.0,3.0,95,0.00,,---,0.00,VWS V14.01,2013-07-11 10:56:00,
2013-07-11 06:57:00,73.4,71.9,29.99,WSW,253,1.0,1.0,95,0.00,,---,0.00,VWS V14.01,2013-07-11 10:57:00,
2013-07-11 06:58:00,73.4,71.9,29.99,SW,222,1.0,3.0,95,0.00,,---,0.00,VWS V14.01,2013-07-11 10:58:00,
2013-07-11 06:59:00,73.4,71.9,29.99,SW,236,1.0,3.0,95,0.00,,---,0.00,VWS V14.01,2013-07-11 10:59:00,
2013-07-11 07:00:00,73.4,71.9,29.99,WSW,237,1.0,3.0,95,0.00,,---,0.00,VWS V14.01,2013-07-11 11:00:00,
2013-07-11 07:01:00,73.4,71.9,29.99,SW,219,3.0,3.0,95,0.00,,---,0.00,VWS V14.01,2013-07-11 11:01:00,
2013-07-11 07:02:00,73.4,71.9,29.99,SW,217,2.0,5.0,95,0.00,,---,0.00,VWS V14.01,2013-07-11 11:02:00,
2013-07-11 07:03:00,73.5,72.0,29.99,WSW,249,1.0,2.0,95,0.00,,---,0.00,VWS V14.01,2013-07-11 11:03:00,
2013-07-11 07:04:00,73.5,72.0,29.99,WSW,257,2.0,3.0,95,0.00,,---,0.00,VWS V14.01,2013-07-11 11:04:00,
2013-07-11 07:05:00,73.4,71.9,29.99,WSW,238,1.0,2.0,95,0.00,,---,0.00,VWS V14.01,2013-07-11 11:05:00,
2013-07-11 07:06:00,73.5,72.0,29.99,SW,226,1.0,2.0,95,0.00,,---,0.00,VWS V14.01,2013-07-11 11:06:00,
2013-07-11 07:07:00,73.5,72.0,29.99,SW,233,1.0,2.0,95,0.00,,---,0.00,VWS V14.01,2013-07-11 11:07:00,
2013-07-11 07:08:00,73.5,72.0,29.99,WSW,245,4.0,5.0,95,0.00,,---,0.00,VWS V14.01,2013-07-11 11:08:00,
2013-07-11 07:09:00,73.5,72.0,29.99,West,262,1.0,5.0,95,0.00,,---,0.00,VWS V14.01,2013-07-11 11:09:00,
2013-07-11 07:10:00,73.5,72.0,29.99,WSW,247,2.0,2.0,95,0.00,,---,0.00,VWS V14.01,2013-07-11 11:10:00,
2013-07-11 07:11:00,73.5,72.0,29.99,SE,132,2.0,4.0,95,0.00,,---,0.00,VWS V14.01,2013-07-11 11:11:00,
2013-07-11 07:12:00,73.5,72.0,29.99,West,268,0.0,3.0,95,0.00,,---,0.00,VWS V14.01,2013-07-11 11:12:00,
2013-07-11 07:13:00,73.5,72.0,29.99,SW,217,2.0,4.0,95,0.00,,---,0.00,VWS V14.01,2013-07-11 11:13:00,
2013-07-11 07:14:00,73.5,72.0,29.99,SW,231,2.0,5.0,95,0.00,,---,0.00,VWS V14.01,2013-07-11 11:14:00,
2013-07-11 07:15:00,73.5,72.0,29.99,SSW,198,2.0,3.0,95,0.00,,---,0.00,VWS V14.01,2013-07-11 11:15:00,
2013-07-11 07:16:00,73.6,72.1,29.99,SW,227,3.0,3.0,95,0.00,,---,0.00,VWS V14.01,2013-07-11 11:16:00,
2013-07-11 07:17:00,73.6,72.1,30.00,South,188,2.0,3.0,95,0.00,,---,0.00,VWS V14.01,2013-07-11 11:17:00,
2013-07-11 07:18:00,73.6,72.1,30.00,South,187,1.0,2.0,95,0.00,,---,0.00,VWS V14.01,2013-07-11 11:18:00,
2013-07-11 07:19:00,73.6,72.1,30.00,WSW,254,2.0,3.0,95,0.00,,---,0.00,VWS V14.01,2013-07-11 11:19:00,
2013-07-11 07:20:00,73.6,72.1,30.00,SSW,202,2.0,3.0,95,0.00,,---,0.00,VWS V14.01,2013-07-11 11:20:00,
2013-07-11 07:21:00,73.6,72.1,30.00,WSW,237,1.0,3.0,95,0.00,,---,0.00,VWS V14.01,2013-07-11 11:21:00,
2013-07-11 07:22:00,73.6,72.1,30.00,SW,218,1.0,2.0,95,0.00,,---,0.00,VWS V14.01,2013-07-11 11:22:00,
2013-07-11 07:23:00,73.6,72.1,30.00,WSW,244,3.0,3.0,95,0.00,,---,0.00,VWS V14.01,2013-07-11 11:23:00,
2013-07-11 07:24:00,73.6,72.1,30.00,SW,236,4.0,5.0,95,0.00,,---,0.00,VWS V14.01,2013-07-11 11:24:00,
2013-07-11 07:25:00,73.6,72.1,30.00,SSW,211,6.0,6.0,95,0.00,,---,0.00,VWS V14.01,2013-07-11 11:25:00,
2013-07-11 07:26:00,73.6,72.1,30.00,WSW,238,1.0,6.0,95,0.00,,---,0.00,VWS V14.01,2013-07-11 11:26:00,
2013-07-11 07:27:00,73.7,72.2,30.00,WSW,252,2.0,3.0,95,0.00,,---,0.00,VWS V14.01,2013-07-11 11:27:00,
2013-07-11 07:28:00,73.6,72.1,29.99,WSW,247,2.0,2.0,95,0.00,,---,0.00,VWS V14.01,2013-07-11 11:28:00,
2013-07-11 07:29:00,73.7,72.2,29.99,West,272,2.0,2.0,95,0.00,,---,0.00,VWS V14.01,2013-07-11 11:29:00,
2013-07-11 07:30:00,73.7,72.2,29.99,SW,221,4.0,4.0,95,0.00,,---,0.00,VWS V14.01,2013-07-11 11:30:00,
2013-07-11 07:31:00,73.7,72.2,30.00,SW,221,3.0,4.0,95,0.00,,---,0.00,VWS V14.01,2013-07-11 11:31:00,
2013-07-11 07:32:00,73.7,72.2,30.00,SSW,212,2.0,4.0,95,0.00,,---,0.00,VWS V14.01,2013-07-11 11:32:00,
2013-07-11 07:33:00,73.7,72.2,30.00,WSW,252,1.0,1.0,95,0.00,,---,0.00,VWS V14.01,2013-07-11 11:33:00,
2013-07-11 07:34:00,73.8,72.3,30.00,SSW,198,0.0,1.0,95,0.00,,---,0.00,VWS V14.01,2013-07-11 11:34:00,
2013-07-11 07:35:00,73.8,72.3,30.00,WSW,258,1.0,5.0,95,0.00,,---,0.00,VWS V14.01,2013-07-11 11:35:00,
2013-07-11 07:36:00,73.8,72.3,30.00,SW,236,0.0,2.0,95,0.00,,---,0.00,VWS V14.01,2013-07-11 11:36:00,
2013-07-11 07:37:00,73.9,72.4,29.99,SW,219,3.0,3.0,95,0.00,,---,0.00,VWS V14.01,2013-07-11 11:37:00,
2013-07-11 07:38:00,73.9,72.4,29.99,South,174,1.0,3.0,95,0.00,,---,0.00,VWS V14.01,2013-07-11 11:38:00,
2013-07-11 07:39:00,74.0,72.5,29.99,SSW,195,2.0,3.0,95,0.00,,---,0.00,VWS V14.01,2013-07-11 11:39:00,
2013-07-11 07:40:00,74.0,72.5,29.99,SSW,195,4.0,6.0,95,0.00,,---,0.00,VWS V14.01,2013-07-11 11:40:00,
2013-07-11 07:41:00,74.1,72.6,29.99,South,188,4.0,6.0,95,0.00,,---,0.00,VWS V14.01,2013-07-11 11:41:00,
2013-07-11 07:42:00,74.1,72.6,29.99,SSW,211,4.0,7.0,95,0.00,,---,0.00,VWS V14.01,2013-07-11 11:42:00,
2013-07-11 07:43:00,74.2,72.7,29.99,SW,230,4.0,4.0,95,0.00,,---,0.00,VWS V14.01,2013-07-11 11:43:00,
2013-07-11 07:44:00,74.2,72.7,29.99,WSW,241,2.0,4.0,95,0.00,,---,0.00,VWS V14.01,2013-07-11 11:44:00,
2013-07-11 07:45:00,74.3,72.8,29.99,SW,225,2.0,2.0,95,0.00,,---,0.00,VWS V14.01,2013-07-11 11:45:00,
2013-07-11 07:46:00,74.3,72.8,29.99,SW,224,4.0,5.0,95,0.00,,---,0.00,VWS V14.01,2013-07-11 11:46:00,
2013-07-11 07:47:00,74.4,72.6,29.99,SSW,201,2.0,4.0,94,0.00,,---,0.00,VWS V14.01,2013-07-11 11:47:00,
2013-07-11 07:48:00,74.4,72.6,29.99,WNW,286,3.0,6.0,94,0.00,,---,0.00,VWS V14.01,2013-07-11 11:48:00,
2013-07-11 07:49:00,74.4,72.6,29.99,WSW,241,2.0,7.0,94,0.00,,---,0.00,VWS V14.01,2013-07-11 11:49:00,
2013-07-11 07:50:00,74.4,72.6,29.99,SSW,203,3.0,6.0,94,0.00,,---,0.00,VWS V14.01,2013-07-11 11:50:00,
2013-07-11 07:51:00,74.5,72.7,29.99,WSW,249,1.0,3.0,94,0.00,,---,0.00,VWS V14.01,2013-07-11 11:51:00,
2013-07-11 07:52:00,74.5,72.7,29.99,West,281,5.0,5.0,94,0.00,,---,0.00,VWS V14.01,2013-07-11 11:52:00,
2013-07-11 07:53:00,74.6,72.8,30.00,SW,227,3.0,3.0,94,0.00,,---,0.00,VWS V14.01,2013-07-11 11:53:00,
2013-07-11 07:54:00,74.6,72.8,30.00,South,183,3.0,4.0,94,0.00,,---,0.00,VWS V14.01,2013-07-11 11:54:00,
2013-07-11 07:55:00,74.6,72.8,30.00,South,186,0.0,3.0,94,0.00,,---,0.00,VWS V14.01,2013-07-11 11:55:00,
2013-07-11 07:56:00,74.7,72.9,30.00,WSW,242,4.0,5.0,94,0.00,,---,0.00,VWS V14.01,2013-07-11 11:56:00,
2013-07-11 07:57:00,74.7,72.9,30.00,WSW,242,5.0,8.0,94,0.00,,---,0.00,VWS V14.01,2013-07-11 11:57:00,
2013-07-11 07:58:00,74.7,72.9,30.00,SW,236,1.0,1.0,94,0.00,,---,0.00,VWS V14.01,2013-07-11 11:58:00,
2013-07-11 07:59:00,74.7,72.9,30.00,SSW,210,6.0,7.0,94,0.00,,---,0.00,VWS V14.01,2013-07-11 11:59:00,
2013-07-11 08:00:00,74.8,72.6,30.00,SSW,207,3.0,7.0,93,0.00,,---,0.00,VWS V14.01,2013-07-11 12:00:00,
2013-07-11 08:01:00,74.8,72.6,30.00,WSW,252,2.0,4.0,93,0.00,,---,0.00,VWS V14.01,2013-07-11 12:01:00,
2013-07-11 08:02:00,74.8,72.6,30.00,SSW,205,2.0,4.0,93,0.00,,---,0.00,VWS V14.01,2013-07-11 12:02:00,
2013-07-11 08:03:00,74.9,72.7,30.00,West,281,3.0,5.0,93,0.00,,---,0.00,VWS V14.01,2013-07-11 12:03:00,
2013-07-11 08:04:00,74.9,72.7,30.00,WSW,240,4.0,8.0,93,0.00,,---,0.00,VWS V14.01,2013-07-11 12:04:00,
2013-07-11 08:05:00,74.9,72.7,30.00,West,268,7.0,7.0,93,0.00,,---,0.00,VWS V14.01,2013-07-11 12:05:00,
2013-07-11 08:06:00,75.0,72.8,30.00,SSW,198,1.0,7.0,93,0.00,,---,0.00,VWS V14.01,2013-07-11 12:06:00,
2013-07-11 08:07:00,75.1,72.9,30.00,West,261,1.0,1.0,93,0.00,,---,0.00,VWS V14.01,2013-07-11 12:07:00,
2013-07-11 08:08:00,75.1,72.9,30.00,WNW,299,0.0,1.0,93,0.00,,---,0.00,VWS V14.01,2013-07-11 12:08:00,
2013-07-11 08:09:00,75.2,73.0,30.00,ESE,115,2.0,4.0,93,0.00,,---,0.00,VWS V14.01,2013-07-11 12:09:00,
2013-07-11 08:10:00,75.3,73.1,30.00,West,259,2.0,2.0,93,0.00,,---,0.00,VWS V14.01,2013-07-11 12:10:00,
2013-07-11 08:11:00,75.3,73.1,30.00,West,281,3.0,4.0,93,0.00,,---,0.00,VWS V14.01,2013-07-11 12:11:00,
2013-07-11 08:12:00,75.4,73.2,30.00,NW,306,3.0,7.0,93,0.00,,---,0.00,VWS V14.01,2013-07-11 12:12:00,
2013-07-11 08:13:00,75.5,73.3,30.00,West,277,6.0,6.0,93,0.00,,---,0.00,VWS V14.01,2013-07-11 12:13:00,
2013-07-11 08:14:00,75.5,73.0,30.00,WSW,249,6.0,8.0,92,0.00,,---,0.00,VWS V14.01,2013-07-11 12:14:00,
2013-07-11 08:15:00,75.5,73.0,30.00,South,184,2.0,6.0,92,0.00,,---,0.00,VWS V14.01,2013-07-11 12:15:00,
2013-07-11 08:16:00,75.5,73.0,30.00,West,281,2.0,3.0,92,0.00,,---,0.00,VWS V14.01,2013-07-11 12:16:00,
2013-07-11 08:17:00,75.5,73.0,30.00,SW,221,2.0,4.0,92,0.00,,---,0.00,VWS V14.01,2013-07-11 12:17:00,
2013-07-11 08:18:00,75.6,73.1,30.00,SW,234,4.0,4.0,92,0.00,,---,0.00,VWS V14.01,2013-07-11 12:18:00,
2013-07-11 08:19:00,75.6,73.1,30.00,West,277,2.0,4.0,92,0.00,,---,0.00,VWS V14.01,2013-07-11 12:19:00,
2013-07-11 08:20:00,75.7,73.2,30.00,WSW,249,1.0,5.0,92,0.00,,---,0.00,VWS V14.01,2013-07-11 12:20:00,
2013-07-11 08:21:00,75.7,73.2,30.00,WSW,257,2.0,3.0,92,0.00,,---,0.00,VWS V14.01,2013-07-11 12:21:00,
2013-07-11 08:22:00,75.7,73.2,30.00,NW,305,4.0,6.0,92,0.00,,---,0.00,VWS V14.01,2013-07-11 12:22:00,
2013-07-11 08:23:00,75.8,73.3,30.00,West,280,5.0,7.0,92,0.00,,---,0.00,VWS V14.01,2013-07-11 12:23:00,
2013-07-11 08:24:00,75.8,73.0,30.00,WNW,290,4.0,7.0,91,0.00,,---,0.00,VWS V14.01,2013-07-11 12:24:00,
2013-07-11 08:26:00,75.8,73.0,30.00,West,271,4.0,9.0,91,0.00,,---,0.00,VWS V14.01,2013-07-11 12:26:00,
2013-07-11 08:27:00,75.8,73.0,30.00,WSW,254,5.0,8.0,91,0.00,,---,0.00,VWS V14.01,2013-07-11 12:27:00,
2013-07-11 08:28:00,75.7,72.9,30.00,WSW,249,6.0,6.0,91,0.00,,---,0.00,VWS V14.01,2013-07-11 12:28:00,
2013-07-11 08:29:00,75.7,72.9,30.00,WNW,284,4.0,6.0,91,0.00,,---,0.00,VWS V14.01,2013-07-11 12:29:00,
2013-07-11 08:30:00,75.7,72.9,30.00,WSW,256,4.0,4.0,91,0.00,,---,0.00,VWS V14.01,2013-07-11 12:30:00,
2013-07-11 08:31:00,75.7,72.9,30.00,WSW,257,4.0,5.0,91,0.00,,---,0.00,VWS V14.01,2013-07-11 12:31:00,
2013-07-11 08:32:00,75.8,73.0,30.00,West,280,4.0,4.0,91,0.00,,---,0.00,VWS V14.01,2013-07-11 12:32:00,
2013-07-11 08:33:00,75.8,73.3,30.00,West,267,0.0,0.0,92,0.00,,---,0.00,VWS V14.01,2013-07-11 12:33:00,
2013-07-11 08:34:00,75.9,73.4,30.00,WNW,283,2.0,3.0,92,0.00,,---,0.00,VWS V14.01,2013-07-11 12:34:00,
2013-07-11 08:35:00,76.0,73.2,30.00,SSE,152,3.0,4.0,91,0.00,,---,0.00,VWS V14.01,2013-07-11 12:35:00,
2013-07-11 08:36:00,76.0,73.2,30.00,WSW,250,5.0,6.0,91,0.00,,---,0.00,VWS V14.01,2013-07-11 12:36:00,
2013-07-11 08:37:00,76.0,73.2,30.00,SSW,206,0.0,5.0,91,0.00,,---,0.00,VWS V14.01,2013-07-11 12:37:00,
2013-07-11 08:38:00,76.1,73.3,30.00,WSW,241,3.0,3.0,91,0.00,,---,0.00,VWS V14.01,2013-07-11 12:38:00,
2013-07-11 08:39:00,76.2,73.4,30.00,WSW,240,1.0,6.0,91,0.00,,---,0.00,VWS V14.01,2013-07-11 12:39:00,
2013-07-11 08:40:00,76.2,73.4,30.00,West,280,4.0,4.0,91,0.00,,---,0.00,VWS V14.01,2013-07-11 12:40:00,
2013-07-11 08:41:00,76.3,73.5,30.00,WSW,252,7.0,9.0,91,0.00,,---,0.00,VWS V14.01,2013-07-11 12:41:00,
2013-07-11 08:42:00,76.3,73.2,30.00,West,267,2.0,8.0,90,0.00,,---,0.00,VWS V14.01,2013-07-11 12:42:00,
2013-07-11 08:43:00,76.3,73.2,30.00,West,265,5.0,6.0,90,0.00,,---,0.00,VWS V14.01,2013-07-11 12:43:00,
2013-07-11 08:44:00,76.3,73.2,30.00,SW,219,2.0,6.0,90,0.00,,---,0.00,VWS V14.01,2013-07-11 12:44:00,
2013-07-11 08:45:00,76.4,73.2,30.00,West,279,7.0,10.0,90,0.00,,---,0.00,VWS V14.01,2013-07-11 12:45:00,
2013-07-11 08:46:00,76.4,73.2,30.00,West,281,6.0,7.0,90,0.00,,---,0.00,VWS V14.01,2013-07-11 12:46:00,
2013-07-11 08:47:00,76.4,73.2,30.00,WNW,288,4.0,6.0,90,0.00,,---,0.00,VWS V14.01,2013-07-11 12:47:00,
2013-07-11 08:48:00,76.4,73.2,30.00,West,280,3.0,4.0,90,0.00,,---,0.00,VWS V14.01,2013-07-11 12:48:00,
2013-07-11 08:49:00,76.5,73.3,30.00,WNW,284,4.0,4.0,90,0.00,,---,0.00,VWS V14.01,2013-07-11 12:49:00,
2013-07-11 08:50:00,76.5,73.3,30.00,West,272,5.0,7.0,90,0.00,,---,0.00,VWS V14.01,2013-07-11 12:50:00,
2013-07-11 08:51:00,76.5,73.3,30.00,West,268,7.0,7.0,90,0.00,,---,0.00,VWS V14.01,2013-07-11 12:51:00,
2013-07-11 08:52:00,76.5,73.0,30.00,WSW,257,10.0,10.0,89,0.00,,---,0.00,VWS V14.01,2013-07-11 12:52:00,
2013-07-11 08:53:00,76.5,73.0,30.00,West,271,9.0,10.0,89,0.00,,---,0.00,VWS V14.01,2013-07-11 12:53:00,
2013-07-11 08:54:00,76.5,73.0,30.00,West,269,8.0,9.0,89,0.00,,---,0.00,VWS V14.01,2013-07-11 12:54:00,
2013-07-11 08:55:00,76.5,73.0,30.00,WNW,286,7.0,12.0,89,0.00,,---,0.00,VWS V14.01,2013-07-11 12:55:00,
2013-07-11 08:56:00,76.5,72.7,30.00,West,281,4.0,8.0,88,0.00,,---,0.00,VWS V14.01,2013-07-11 12:56:00,
2013-07-11 08:57:00,76.5,73.0,30.00,West,279,1.0,7.0,89,0.00,,---,0.00,VWS V14.01,2013-07-11 12:57:00,
2013-07-11 08:58:00,76.5,73.0,30.00,WSW,254,2.0,4.0,89,0.00,,---,0.00,VWS V14.01,2013-07-11 12:58:00,
2013-07-11 08:59:00,76.5,73.0,30.00,WNW,288,7.0,7.0,89,0.00,,---,0.00,VWS V14.01,2013-07-11 12:59:00,
2013-07-11 09:00:00,76.6,73.1,30.00,WNW,283,4.0,6.0,89,0.00,,---,0.00,VWS V14.01,2013-07-11 13:00:00,
2013-07-11 09:01:00,76.6,73.1,30.00,WSW,245,3.0,7.0,89,0.00,,---,0.00,VWS V14.01,2013-07-11 13:01:00,
2013-07-11 09:02:00,76.6,73.1,30.00,South,190,1.0,3.0,89,0.00,,---,0.00,VWS V14.01,2013-07-11 13:02:00,
2013-07-11 09:03:00,76.7,73.2,30.00,WNW,288,3.0,4.0,89,0.00,,---,0.00,VWS V14.01,2013-07-11 13:03:00,
2013-07-11 09:04:00,76.7,72.9,30.00,WNW,283,3.0,4.0,88,0.00,,---,0.00,VWS V14.01,2013-07-11 13:04:00,
2013-07-11 09:05:00,76.7,73.2,30.00,WNW,284,5.0,5.0,89,0.00,,---,0.00,VWS V14.01,2013-07-11 13:05:00,
2013-07-11 09:06:00,76.8,73.0,30.00,West,267,5.0,7.0,88,0.00,,---,0.00,VWS V14.01,2013-07-11 13:06:00,
2013-07-11 09:07:00,76.8,73.0,30.00,West,264,2.0,6.0,88,0.00,,---,0.00,VWS V14.01,2013-07-11 13:07:00,
2013-07-11 09:08:00,76.8,73.0,30.00,West,261,7.0,7.0,88,0.00,,---,0.00,VWS V14.01,2013-07-11 13:08:00,
2013-07-11 09:09:00,76.8,73.0,30.00,West,266,5.0,7.0,88,0.00,,---,0.00,VWS V14.01,2013-07-11 13:09:00,
2013-07-11 09:10:00,76.9,73.1,30.00,West,277,3.0,5.0,88,0.00,,---,0.00,VWS V14.01,2013-07-11 13:10:00,
2013-07-11 09:11:00,76.9,73.1,30.00,WNW,291,5.0,7.0,88,0.00,,---,0.00,VWS V14.01,2013-07-11 13:11:00,
2013-07-11 09:12:00,76.9,73.1,30.00,West,275,4.0,7.0,88,0.00,,---,0.00,VWS V14.01,2013-07-11 13:12:00,
2013-07-11 09:13:00,77.0,73.2,30.00,West,280,4.0,4.0,88,0.00,,---,0.00,VWS V14.01,2013-07-11 13:13:00,
2013-07-11 09:14:00,77.0,73.2,30.00,WNW,292,2.0,4.0,88,0.00,,---,0.00,VWS V14.01,2013-07-11 13:14:00,
2013-07-11 09:15:00,77.0,73.5,30.00,WSW,258,0.0,2.0,89,0.00,,---,0.00,VWS V14.01,2013-07-11 13:15:00,
2013-07-11 09:16:00,77.1,73.6,30.00,SW,226,5.0,5.0,89,0.00,,---,0.00,VWS V14.01,2013-07-11 13:16:00,
2013-07-11 09:17:00,77.1,73.3,30.00,SW,236,2.0,6.0,88,0.00,,---,0.00,VWS V14.01,2013-07-11 13:17:00,
2013-07-11 09:18:00,77.2,73.7,30.00,WSW,245,2.0,2.0,89,0.00,,---,0.00,VWS V14.01,2013-07-11 13:18:00,
2013-07-11 09:19:00,77.3,73.5,30.00,West,276,3.0,3.0,88,0.00,,---,0.00,VWS V14.01,2013-07-11 13:19:00,
2013-07-11 09:20:00,77.3,73.1,30.00,WSW,256,3.0,7.0,87,0.00,,---,0.00,VWS V14.01,2013-07-11 13:20:00,
2013-07-11 09:21:00,77.3,73.1,30.00,West,279,5.0,6.0,87,0.00,,---,0.00,VWS V14.01,2013-07-11 13:21:00,
2013-07-11 09:22:00,77.3,73.1,30.00,SW,232,4.0,6.0,87,0.00,,---,0.00,VWS V14.01,2013-07-11 13:22:00,
2013-07-11 09:23:00,77.2,73.0,30.00,West,275,3.0,3.0,87,0.00,,---,0.00,VWS V14.01,2013-07-11 13:23:00,
2013-07-11 09:24:00,77.2,73.0,30.00,West,260,3.0,4.0,87,0.00,,---,0.00,VWS V14.01,2013-07-11 13:24:00,
2013-07-11 09:25:00,77.2,73.0,30.00,West,280,2.0,3.0,87,0.00,,---,0.00,VWS V14.01,2013-07-11 13:25:00,
2013-07-11 09:26:00,77.3,73.1,30.00,West,265,1.0,4.0,87,0.00,,---,0.00,VWS V14.01,2013-07-11 13:26:00,
2013-07-11 09:27:00,77.3,73.1,30.00,West,263,3.0,3.0,87,0.00,,---,0.00,VWS V14.01,2013-07-11 13:27:00,
2013-07-11 09:28:00,77.3,73.1,30.00,WNW,296,3.0,4.0,87,0.00,,---,0.00,VWS V14.01,2013-07-11 13:28:00,
2013-07-11 09:29:00,77.3,73.1,30.00,West,267,5.0,6.0,87,0.00,,---,0.00,VWS V14.01,2013-07-11 13:29:00,
2013-07-11 09:30:00,77.3,73.1,30.00,West,278,4.0,5.0,87,0.00,,---,0.00,VWS V14.01,2013-07-11 13:30:00,
2013-07-11 09:31:00,77.3,73.1,30.00,West,275,4.0,4.0,87,0.00,,---,0.00,VWS V14.01,2013-07-11 13:31:00,
2013-07-11 09:32:00,77.3,73.1,30.00,WSW,252,2.0,4.0,87,0.00,,---,0.00,VWS V14.01,2013-07-11 13:32:00,
2013-07-11 09:33:00,77.3,73.1,30.00,West,281,2.0,2.0,87,0.00,,---,0.00,VWS V14.01,2013-07-11 13:33:00,
2013-07-11 09:34:00,77.3,73.5,30.00,WNW,290,4.0,5.0,88,0.00,,---,0.00,VWS V14.01,2013-07-11 13:34:00,
2013-07-11 09:35:00,77.3,73.1,30.00,West,277,3.0,5.0,87,0.00,,---,0.00,VWS V14.01,2013-07-11 13:35:00,
2013-07-11 09:36:00,77.3,73.1,30.00,WNW,288,2.0,3.0,87,0.00,,---,0.00,VWS V14.01,2013-07-11 13:36:00,
2013-07-11 09:37:00,77.3,73.1,30.00,West,275,1.0,4.0,87,0.00,,---,0.00,VWS V14.01,2013-07-11 13:37:00,
2013-07-11 09:38:00,77.3,73.1,30.00,WNW,290,2.0,2.0,87,0.00,,---,0.00,VWS V14.01,2013-07-11 13:38:00,
2013-07-11 09:39:00,77.3,73.1,30.00,West,268,2.0,2.0,87,0.00,,---,0.00,VWS V14.01,2013-07-11 13:39:00,
2013-07-11 09:40:00,77.4,73.2,30.00,West,275,2.0,2.0,87,0.00,,---,0.00,VWS V14.01,2013-07-11 13:40:00,
2013-07-11 09:41:00,77.3,73.1,30.00,WNW,288,6.0,7.0,87,0.00,,---,0.00,VWS V14.01,2013-07-11 13:41:00,
2013-07-11 09:42:00,77.3,73.1,30.00,WNW,286,3.0,6.0,87,0.00,,---,0.00,VWS V14.01,2013-07-11 13:42:00,
2013-07-11 09:43:00,77.3,73.1,30.00,WNW,284,3.0,3.0,87,0.00,,---,0.00,VWS V14.01,2013-07-11 13:43:00,
2013-07-11 09:44:00,77.3,73.1,30.00,WNW,300,4.0,4.0,87,0.00,,---,0.00,VWS V14.01,2013-07-11 13:44:00,
2013-07-11 09:45:00,77.3,73.1,30.00,South,184,3.0,4.0,87,0.00,,---,0.00,VWS V14.01,2013-07-11 13:45:00,
2013-07-11 09:46:00,77.3,73.1,30.00,West,281,0.0,3.0,87,0.00,,---,0.00,VWS V14.01,2013-07-11 13:46:00,
2013-07-11 09:47:00,77.4,73.2,30.00,West,275,1.0,3.0,87,0.00,,---,0.00,VWS V14.01,2013-07-11 13:47:00,
2013-07-11 09:48:00,77.4,73.2,30.00,WNW,297,4.0,4.0,87,0.00,,---,0.00,VWS V14.01,2013-07-11 13:48:00,
2013-07-11 09:49:00,77.4,73.2,30.00,WNW,288,4.0,4.0,87,0.00,,---,0.00,VWS V14.01,2013-07-11 13:49:00,
2013-07-11 09:50:00,77.4,73.2,30.00,WNW,290,2.0,4.0,87,0.00,,---,0.00,VWS V14.01,2013-07-11 13:50:00,
2013-07-11 09:51:00,77.4,73.2,30.00,WNW,290,3.0,3.0,87,0.00,,---,0.00,VWS V14.01,2013-07-11 13:51:00,
2013-07-11 09:52:00,77.4,73.2,30.00,West,269,1.0,3.0,87,0.00,,---,0.00,VWS V14.01,2013-07-11 13:52:00,
2013-07-11 09:53:00,77.5,73.7,30.00,West,260,3.0,3.0,88,0.00,,---,0.00,VWS V14.01,2013-07-11 13:53:00,
2013-07-11 09:54:00,77.5,73.7,30.00,WNW,290,3.0,4.0,88,0.00,,---,0.00,VWS V14.01,2013-07-11 13:54:00,
2013-07-11 09:55:00,77.5,73.3,30.00,WNW,298,2.0,3.0,87,0.00,,---,0.00,VWS V14.01,2013-07-11 13:55:00,
2013-07-11 09:56:00,77.6,73.4,30.00,West,281,1.0,2.0,87,0.00,,---,0.00,VWS V14.01,2013-07-11 13:56:00,
2013-07-11 09:57:00,77.6,73.4,30.00,WNW,300,3.0,3.0,87,0.00,,---,0.00,VWS V14.01,2013-07-11 13:57:00,
2013-07-11 09:58:00,77.6,73.4,29.99,WNW,287,2.0,2.0,87,0.00,,---,0.00,VWS V14.01,2013-07-11 13:58:00,
2013-07-11 09:59:00,77.6,73.4,29.99,West,269,2.0,2.0,87,0.00,,---,0.00,VWS V14.01,2013-07-11 13:59:00,
2013-07-11 10:02:00,77.7,73.5,29.99,West,281,0.0,2.0,87,0.00,,---,0.00,VWS V14.01,2013-07-11 14:02:00,
2013-07-11 10:03:00,77.8,73.6,29.99,West,261,3.0,3.0,87,0.00,,---,0.00,VWS V14.01,2013-07-11 14:03:00,
2013-07-11 10:04:00,77.8,73.6,29.99,WSW,242,2.0,3.0,87,0.00,,---,0.00,VWS V14.01,2013-07-11 14:04:00,
2013-07-11 10:05:00,77.8,73.6,29.99,WSW,249,3.0,3.0,87,0.00,,---,0.00,VWS V14.01,2013-07-11 14:05:00,
2013-07-11 10:06:00,77.9,73.7,29.99,WNW,291,0.0,4.0,87,0.00,,---,0.00,VWS V14.01,2013-07-11 14:06:00,
2013-07-11 10:07:00,77.9,73.7,29.99,SSE,156,1.0,3.0,87,0.00,,---,0.00,VWS V14.01,2013-07-11 14:07:00,
2013-07-11 10:08:00,78.0,73.8,29.99,WNW,287,3.0,3.0,87,0.00,,---,0.00,VWS V14.01,2013-07-11 14:08:00,
2013-07-11 10:09:00,78.0,73.5,29.99,SW,219,2.0,4.0,86,0.00,,---,0.00,VWS V14.01,2013-07-11 14:09:00,
2013-07-11 10:10:00,78.0,73.5,30.00,West,277,3.0,7.0,86,0.00,,---,0.00,VWS V14.01,2013-07-11 14:10:00,
2013-07-11 10:11:00,78.0,73.5,29.99,West,263,1.0,3.0,86,0.00,,---,0.00,VWS V14.01,2013-07-11 14:11:00,
2013-07-11 10:12:00,78.0,73.8,29.99,WSW,250,1.0,5.0,87,0.00,,---,0.00,VWS V14.01,2013-07-11 14:12:00,
2013-07-11 10:13:00,78.0,73.5,29.99,SW,233,6.0,6.0,86,0.00,,---,0.00,VWS V14.01,2013-07-11 14:13:00,
2013-07-11 10:14:00,78.0,73.5,29.99,WNW,291,2.0,6.0,86,0.00,,---,0.00,VWS V14.01,2013-07-11 14:14:00,
2013-07-11 10:15:00,77.9,73.4,29.99,West,259,1.0,2.0,86,0.00,,---,0.00,VWS V14.01,2013-07-11 14:15:00,
2013-07-11 10:16:00,77.9,73.4,29.99,West,281,2.0,2.0,86,0.00,,---,0.00,VWS V14.01,2013-07-11 14:16:00,
2013-07-11 10:17:00,77.9,73.4,29.99,South,180,4.0,4.0,86,0.00,,---,0.00,VWS V14.01,2013-07-11 14:17:00,
2013-07-11 10:18:00,78.0,73.5,29.99,SW,221,2.0,2.0,86,0.00,,---,0.00,VWS V14.01,2013-07-11 14:18:00,
2013-07-11 10:19:00,78.0,73.5,29.99,SSW,213,1.0,2.0,86,0.00,,---,0.00,VWS V14.01,2013-07-11 14:19:00,
2013-07-11 10:20:00,78.0,73.5,29.99,South,184,2.0,3.0,86,0.00,,---,0.00,VWS V14.01,2013-07-11 14:20:00,
2013-07-11 10:21:00,78.1,73.6,29.99,WNW,288,2.0,2.0,86,0.00,,---,0.00,VWS V14.01,2013-07-11 14:21:00,
2013-07-11 10:22:00,78.1,73.6,29.99,SW,227,4.0,4.0,86,0.00,,---,0.00,VWS V14.01,2013-07-11 14:22:00,
2013-07-11 10:23:00,78.1,73.6,29.99,WNW,298,2.0,4.0,86,0.00,,---,0.00,VWS V14.01,2013-07-11 14:23:00,
2013-07-11 10:24:00,78.1,73.2,29.99,SW,223,4.0,4.0,85,0.00,,---,0.00,VWS V14.01,2013-07-11 14:24:00,
2013-07-11 10:25:00,78.1,73.2,29.99,West,273,1.0,4.0,85,0.00,,---,0.00,VWS V14.01,2013-07-11 14:25:00,
2013-07-11 10:26:00,78.0,73.1,29.99,WNW,292,4.0,5.0,85,0.00,,---,0.00,VWS V14.01,2013-07-11 14:26:00,
2013-07-11 10:27:00,78.0,73.1,29.99,SSW,209,1.0,4.0,85,0.00,,---,0.00,VWS V14.01,2013-07-11 14:27:00,
2013-07-11 10:28:00,78.0,73.1,29.99,WNW,291,3.0,4.0,85,0.00,,---,0.00,VWS V14.01,2013-07-11 14:28:00,
2013-07-11 10:29:00,78.0,73.5,29.99,WNW,292,3.0,4.0,86,0.00,,---,0.00,VWS V14.01,2013-07-11 14:29:00,
2013-07-11 10:30:00,78.0,73.5,29.99,West,260,3.0,3.0,86,0.00,,---,0.00,VWS V14.01,2013-07-11 14:30:00,
2013-07-11 10:31:00,78.0,73.5,29.99,West,276,3.0,6.0,86,0.00,,---,0.00,VWS V14.01,2013-07-11 14:31:00,
2013-07-11 10:32:00,78.0,73.5,29.99,West,271,3.0,3.0,86,0.00,,---,0.00,VWS V14.01,2013-07-11 14:32:00,
2013-07-11 10:33:00,78.0,73.5,29.99,WNW,298,3.0,4.0,86,0.00,,---,0.00,VWS V14.01,2013-07-11 14:33:00,
2013-07-11 10:34:00,78.0,73.1,29.99,West,277,3.0,4.0,85,0.00,,---,0.00,VWS V14.01,2013-07-11 14:34:00,
2013-07-11 10:35:00,78.0,73.1,29.99,WSW,242,2.0,4.0,85,0.00,,---,0.00,VWS V14.01,2013-07-11 14:35:00,
2013-07-11 10:36:00,77.9,73.4,29.99,SW,236,3.0,3.0,86,0.00,,---,0.00,VWS V14.01,2013-07-11 14:36:00,
2013-07-11 10:37:00,78.0,73.1,29.99,West,259,1.0,4.0,85,0.00,,---,0.00,VWS V14.01,2013-07-11 14:37:00,
2013-07-11 10:38:00,78.0,73.5,29.99,West,268,2.0,2.0,86,0.00,,---,0.00,VWS V14.01,2013-07-11 14:38:00,
2013-07-11 10:39:00,78.1,73.2,29.99,SW,236,6.0,6.0,85,0.00,,---,0.00,VWS V14.01,2013-07-11 14:39:00,
2013-07-11 10:40:00,78.1,73.6,29.99,South,190,2.0,6.0,86,0.00,,---,0.00,VWS V14.01,2013-07-11 14:40:00,
2013-07-11 10:41:00,78.1,73.6,29.99,SW,223,2.0,2.0,86,0.00,,---,0.00,VWS V14.01,2013-07-11 14:41:00,
2013-07-11 10:42:00,78.1,73.2,29.99,WSW,253,8.0,8.0,85,0.00,,---,0.00,VWS V14.01,2013-07-11 14:42:00,
2013-07-11 10:43:00,78.1,73.2,29.99,SW,233,7.0,8.0,85,0.00,,---,0.00,VWS V14.01,2013-07-11 14:43:00,
2013-07-11 10:44:00,78.1,73.2,29.99,South,182,1.0,7.0,85,0.00,,---,0.00,VWS V14.01,2013-07-11 14:44:00,
2013-07-11 10:45:00,78.1,73.2,29.99,West,271,2.0,5.0,85,0.00,,---,0.00,VWS V14.01,2013-07-11 14:45:00,
2013-07-11 10:46:00,78.1,73.2,29.99,SW,226,5.0,5.0,85,0.00,,---,0.00,VWS V14.01,2013-07-11 14:46:00,
2013-07-11 10:47:00,78.2,73.3,29.99,WSW,242,3.0,5.0,85,0.00,,---,0.00,VWS V14.01,2013-07-11 14:47:00,
2013-07-11 10:48:00,78.2,73.3,29.99,WNW,299,5.0,5.0,85,0.00,,---,0.00,VWS V14.01,2013-07-11 14:48:00,
2013-07-11 10:49:00,78.2,73.3,29.99,SW,219,4.0,4.0,85,0.00,,---,0.00,VWS V14.01,2013-07-11 14:49:00,
2013-07-11 10:50:00,78.3,73.4,29.99,West,276,2.0,4.0,85,0.00,,---,0.00,VWS V14.01,2013-07-11 14:50:00,
2013-07-11 10:51:00,78.3,73.4,29.99,SW,219,2.0,6.0,85,0.00,,---,0.00,VWS V14.01,2013-07-11 14:51:00,
2013-07-11 10:52:00,78.3,73.4,29.99,South,184,2.0,6.0,85,0.00,,---,0.00,VWS V14.01,2013-07-11 14:52:00,
2013-07-11 10:53:00,78.4,73.5,29.99,WSW,238,1.0,3.0,85,0.00,,---,0.00,VWS V14.01,2013-07-11 14:53:00,
2013-07-11 10:54:00,78.5,73.6,29.99,SSW,199,0.0,1.0,85,0.00,,---,0.00,VWS V14.01,2013-07-11 14:54:00,
2013-07-11 10:55:00,78.5,73.6,29.99,WSW,242,2.0,2.0,85,0.00,,---,0.00,VWS V14.01,2013-07-11 14:55:00,
2013-07-11 10:56:00,78.6,73.7,29.99,WNW,295,2.0,2.0,85,0.00,,---,0.00,VWS V14.01,2013-07-11 14:56:00,
2013-07-11 10:57:00,78.7,73.8,29.99,West,272,2.0,2.0,85,0.00,,---,0.00,VWS V14.01,2013-07-11 14:57:00,
2013-07-11 10:58:00,78.8,73.9,29.99,West,264,5.0,5.0,85,0.00,,---,0.00,VWS V14.01,2013-07-11 14:58:00,
2013-07-11 10:59:00,78.8,73.6,29.99,West,261,7.0,7.0,84,0.00,,---,0.00,VWS V14.01,2013-07-11 14:59:00,
2013-07-11 11:00:00,78.7,73.5,29.99,West,265,3.0,7.0,84,0.00,,---,0.00,VWS V14.01,2013-07-11 15:00:00,
2013-07-11 11:01:00,78.7,73.5,29.99,WNW,286,2.0,5.0,84,0.00,,---,0.00,VWS V14.01,2013-07-11 15:01:00,
2013-07-11 11:02:00,78.7,73.5,29.99,WSW,258,0.0,2.0,84,0.00,,---,0.00,VWS V14.01,2013-07-11 15:02:00,
2013-07-11 11:03:00,78.8,73.6,29.99,South,171,2.0,2.0,84,0.00,,---,0.00,VWS V14.01,2013-07-11 15:03:00,
2013-07-11 11:04:00,78.9,73.7,29.99,WSW,254,2.0,4.0,84,0.00,,---,0.00,VWS V14.01,2013-07-11 15:04:00,
2013-07-11 11:05:00,78.9,73.7,29.99,SW,227,4.0,5.0,84,0.00,,---,0.00,VWS V14.01,2013-07-11 15:05:00,
2013-07-11 11:06:00,79.1,74.2,29.99,West,271,1.0,4.0,85,0.00,,---,0.00,VWS V14.01,2013-07-11 15:06:00,
2013-07-11 11:07:00,79.1,73.8,29.99,WSW,237,3.0,4.0,84,0.00,,---,0.00,VWS V14.01,2013-07-11 15:07:00,
2013-07-11 11:08:00,79.2,73.9,29.99,West,262,2.0,3.0,84,0.00,,---,0.00,VWS V14.01,2013-07-11 15:08:00,
2013-07-11 11:09:00,79.2,73.9,29.99,SW,225,5.0,6.0,84,0.00,,---,0.00,VWS V14.01,2013-07-11 15:09:00,
2013-07-11 11:10:00,79.2,73.6,29.99,SSW,211,2.0,5.0,83,0.00,,---,0.00,VWS V14.01,2013-07-11 15:10:00,
2013-07-11 11:11:00,79.3,74.1,29.99,WNW,294,3.0,4.0,84,0.00,,---,0.00,VWS V14.01,2013-07-11 15:11:00,
2013-07-11 11:12:00,79.4,74.2,29.99,WNW,290,1.0,3.0,84,0.00,,---,0.00,VWS V14.01,2013-07-11 15:12:00,
2013-07-11 11:13:00,79.4,74.2,29.99,WSW,245,3.0,6.0,84,0.00,,---,0.00,VWS V14.01,2013-07-11 15:13:00,
2013-07-11 11:14:00,79.6,74.3,29.99,SW,218,4.0,4.0,84,0.00,,---,0.00,VWS V14.01,2013-07-11 15:14:00,
2013-07-11 11:15:00,79.6,74.0,29.99,WSW,254,4.0,6.0,83,0.00,,---,0.00,VWS V14.01,2013-07-11 15:15:00,
2013-07-11 11:16:00,79.5,73.9,29.99,West,267,3.0,5.0,83,0.00,,---,0.00,VWS V14.01,2013-07-11 15:16:00,
2013-07-11 11:17:00,79.6,74.0,29.99,West,264,2.0,5.0,83,0.00,,---,0.00,VWS V14.01,2013-07-11 15:17:00,
2013-07-11 11:18:00,79.6,74.0,29.99,WNW,297,2.0,5.0,83,0.00,,---,0.00,VWS V14.01,2013-07-11 15:18:00,
2013-07-11 11:19:00,79.6,74.0,29.99,WSW,250,1.0,4.0,83,0.00,,---,0.00,VWS V14.01,2013-07-11 15:19:00,
2013-07-11 11:20:00,79.7,74.4,29.99,SSE,163,0.0,4.0,84,0.00,,---,0.00,VWS V14.01,2013-07-11 15:20:00,
2013-07-11 11:21:00,79.7,74.4,29.99,West,277,1.0,5.0,84,0.00,,---,0.00,VWS V14.01,2013-07-11 15:21:00,
2013-07-11 11:22:00,79.8,74.5,29.99,SW,233,0.0,3.0,84,0.00,,---,0.00,VWS V14.01,2013-07-11 15:22:00,
2013-07-11 11:23:00,80.0,74.7,29.99,West,279,4.0,4.0,84,0.00,,---,0.00,VWS V14.01,2013-07-11 15:23:00,
2013-07-11 11:24:00,80.1,74.5,29.99,WNW,302,3.0,6.0,83,0.00,,---,0.00,VWS V14.01,2013-07-11 15:24:00,
2013-07-11 11:25:00,80.1,74.1,29.99,West,275,5.0,6.0,82,0.00,,---,0.00,VWS V14.01,2013-07-11 15:25:00,
2013-07-11 11:26:00,80.1,74.1,29.99,SW,218,3.0,5.0,82,0.00,,---,0.00,VWS V14.01,2013-07-11 15:26:00,
2013-07-11 11:27:00,80.1,74.1,29.99,SSW,208,1.0,3.0,82,0.00,,---,0.00,VWS V14.01,2013-07-11 15:27:00,
2013-07-11 11:28:00,80.1,74.1,29.99,SW,219,1.0,2.0,82,0.00,,---,0.00,VWS V14.01,2013-07-11 15:28:00,
2013-07-11 11:29:00,80.1,74.1,29.99,WSW,244,5.0,5.0,82,0.00,,---,0.00,VWS V14.01,2013-07-11 15:29:00,
2013-07-11 11:30:00,80.2,74.2,29.99,WSW,247,2.0,5.0,82,0.00,,---,0.00,VWS V14.01,2013-07-11 15:30:00,
2013-07-11 11:31:00,80.2,74.2,29.99,South,182,2.0,3.0,82,0.00,,---,0.00,VWS V14.01,2013-07-11 15:31:00,
2013-07-11 11:32:00,80.1,74.1,29.99,West,262,3.0,8.0,82,0.00,,---,0.00,VWS V14.01,2013-07-11 15:32:00,
2013-07-11 11:33:00,80.1,73.8,29.99,WNW,282,2.0,5.0,81,0.00,,---,0.00,VWS V14.01,2013-07-11 15:33:00,
2013-07-11 11:34:00,80.1,74.1,29.99,ESE,108,1.0,2.0,82,0.00,,---,0.00,VWS V14.01,2013-07-11 15:34:00,
2013-07-11 11:35:00,80.1,74.1,29.99,West,272,4.0,6.0,82,0.00,,---,0.00,VWS V14.01,2013-07-11 15:35:00,
2013-07-11 11:36:00,80.1,74.1,29.99,WNW,290,2.0,4.0,82,0.00,,---,0.00,VWS V14.01,2013-07-11 15:36:00,
2013-07-11 11:37:00,80.0,74.0,29.99,NW,317,2.0,7.0,82,0.00,,---,0.00,VWS V14.01,2013-07-11 15:37:00,
2013-07-11 11:38:00,80.1,74.5,29.99,WSW,241,1.0,7.0,83,0.00,,---,0.00,VWS V14.01,2013-07-11 15:38:00,
2013-07-11 11:39:00,80.1,74.5,29.99,SW,234,7.0,8.0,83,0.00,,---,0.00,VWS V14.01,2013-07-11 15:39:00,
2013-07-11 11:40:00,80.1,74.1,29.99,WSW,251,3.0,8.0,82,0.00,,---,0.00,VWS V14.01,2013-07-11 15:40:00,
2013-07-11 11:41:00,80.1,74.5,29.99,NW,310,1.0,3.0,83,0.00,,---,0.00,VWS V14.01,2013-07-11 15:41:00,
2013-07-11 11:42:00,80.1,74.1,29.99,SSW,198,3.0,6.0,82,0.00,,---,0.00,VWS V14.01,2013-07-11 15:42:00,
2013-07-11 11:43:00,80.1,74.1,29.99,WSW,254,1.0,3.0,82,0.00,,---,0.00,VWS V14.01,2013-07-11 15:43:00,
2013-07-11 11:44:00,80.2,74.6,29.99,West,265,1.0,3.0,83,0.00,,---,0.00,VWS V14.01,2013-07-11 15:44:00,
2013-07-11 11:45:00,80.2,74.6,29.99,West,273,1.0,3.0,83,0.00,,---,0.00,VWS V14.01,2013-07-11 15:45:00,
2013-07-11 11:46:00,80.2,74.6,29.99,WNW,284,5.0,5.0,83,0.00,,---,0.00,VWS V14.01,2013-07-11 15:46:00,
2013-07-11 11:47:00,80.2,74.2,29.99,WNW,291,4.0,7.0,82,0.00,,---,0.00,VWS V14.01,2013-07-11 15:47:00,
2013-07-11 11:48:00,80.1,74.5,29.99,SW,233,1.0,4.0,83,0.00,,---,0.00,VWS V14.01,2013-07-11 15:48:00,
2013-07-11 11:49:00,80.1,74.1,29.99,WSW,242,1.0,6.0,82,0.00,,---,0.00,VWS V14.01,2013-07-11 15:49:00,
2013-07-11 11:50:00,80.1,74.1,29.99,WSW,242,5.0,6.0,82,0.00,,---,0.00,VWS V14.01,2013-07-11 15:50:00,
2013-07-11 11:51:00,80.1,74.5,29.99,SSW,203,4.0,5.0,83,0.00,,---,0.00,VWS V14.01,2013-07-11 15:51:00,
2013-07-11 11:52:00,80.1,74.1,29.98,South,176,1.0,6.0,82,0.00,,---,0.00,VWS V14.01,2013-07-11 15:52:00,
2013-07-11 11:53:00,80.1,74.1,29.99,West,275,0.0,4.0,82,0.00,,---,0.00,VWS V14.01,2013-07-11 15:53:00,
2013-07-11 11:54:00,80.1,74.1,29.99,SW,221,0.0,2.0,82,0.00,,---,0.00,VWS V14.01,2013-07-11 15:54:00,
2013-07-11 11:55:00,80.1,74.1,29.99,SW,228,5.0,5.0,82,0.00,,---,0.00,VWS V14.01,2013-07-11 15:55:00,
2013-07-11 11:56:00,80.2,74.2,29.99,SW,233,3.0,5.0,82,0.00,,---,0.00,VWS V14.01,2013-07-11 15:56:00,
2013-07-11 11:57:00,80.2,74.6,29.98,SW,219,2.0,3.0,83,0.00,,---,0.00,VWS V14.01,2013-07-11 15:57:00,
2013-07-11 11:58:00,80.2,74.6,29.99,WNW,288,1.0,2.0,83,0.00,,---,0.00,VWS V14.01,2013-07-11 15:58:00,
2013-07-11 11:59:00,80.2,74.2,29.98,WNW,283,4.0,5.0,82,0.00,,---,0.00,VWS V14.01,2013-07-11 15:59:00,
2013-07-11 12:00:00,80.2,74.2,29.98,WSW,238,2.0,5.0,82,0.00,,---,0.00,VWS V14.01,2013-07-11 16:00:00,
2013-07-11 12:01:00,80.2,74.2,29.98,SW,234,5.0,6.0,82,0.00,,---,0.00,VWS V14.01,2013-07-11 16:01:00,
2013-07-11 12:02:00,80.1,74.1,29.98,SSW,202,3.0,5.0,82,0.00,,---,0.00,VWS V14.01,2013-07-11 16:02:00,
2013-07-11 12:03:00,80.1,74.5,29.99,West,274,1.0,5.0,83,0.00,,---,0.00,VWS V14.01,2013-07-11 16:03:00,
2013-07-11 12:04:00,80.1,74.5,29.98,SSE,168,1.0,2.0,83,0.00,,---,0.00,VWS V14.01,2013-07-11 16:04:00,
2013-07-11 12:05:00,80.1,74.1,29.98,WSW,237,3.0,5.0,82,0.00,,---,0.00,VWS V14.01,2013-07-11 16:05:00,
2013-07-11 12:06:00,80.1,74.5,29.99,WSW,257,2.0,2.0,83,0.00,,---,0.00,VWS V14.01,2013-07-11 16:06:00,
2013-07-11 12:07:00,80.1,74.5,29.98,WSW,257,5.0,5.0,83,0.00,,---,0.00,VWS V14.01,2013-07-11 16:07:00,
2013-07-11 12:08:00,80.1,74.5,29.98,WSW,252,1.0,5.0,83,0.00,,---,0.00,VWS V14.01,2013-07-11 16:08:00,
2013-07-11 12:09:00,80.0,74.4,29.99,SSW,210,2.0,2.0,83,0.00,,---,0.00,VWS V14.01,2013-07-11 16:09:00,
2013-07-11 12:10:00,80.1,74.8,29.98,WSW,249,0.0,3.0,84,0.00,,---,0.00,VWS V14.01,2013-07-11 16:10:00,
2013-07-11 12:11:00,80.1,74.5,29.98,WNW,287,2.0,3.0,83,0.00,,---,0.00,VWS V14.01,2013-07-11 16:11:00,
2013-07-11 12:12:00,80.1,74.5,29.98,SW,227,2.0,5.0,83,0.00,,---,0.00,VWS V14.01,2013-07-11 16:12:00,
2013-07-11 12:13:00,80.1,74.5,29.98,SW,224,4.0,7.0,83,0.00,,---,0.00,VWS V14.01,2013-07-11 16:13:00,
2013-07-11 12:14:00,80.1,74.5,29.98,NW,306,1.0,5.0,83,0.00,,---,0.00,VWS V14.01,2013-07-11 16:14:00,
2013-07-11 12:15:00,80.1,74.5,29.98,SW,236,3.0,4.0,83,0.00,,---,0.00,VWS V14.01,2013-07-11 16:15:00,
2013-07-11 12:16:00,80.1,74.1,29.98,East,96,1.0,4.0,82,0.00,,---,0.00,VWS V14.01,2013-07-11 16:16:00,
2013-07-11 12:17:00,80.1,74.1,29.98,West,271,2.0,5.0,82,0.00,,---,0.00,VWS V14.01,2013-07-11 16:17:00,
2013-07-11 12:18:00,80.1,74.5,29.98,West,268,2.0,3.0,83,0.00,,---,0.00,VWS V14.01,2013-07-11 16:18:00,
2013-07-11 12:19:00,80.1,74.5,29.98,WNW,283,4.0,4.0,83,0.00,,---,0.00,VWS V14.01,2013-07-11 16:19:00,
2013-07-11 12:20:00,80.1,74.5,29.98,WSW,254,3.0,4.0,83,0.00,,---,0.00,VWS V14.01,2013-07-11 16:20:00,
2013-07-11 12:21:00,80.1,74.1,29.98,WSW,258,4.0,5.0,82,0.00,,---,0.00,VWS V14.01,2013-07-11 16:21:00,
2013-07-11 12:22:00,80.1,74.5,29.98,West,267,2.0,4.0,83,0.00,,---,0.00,VWS V14.01,2013-07-11 16:22:00,
2013-07-11 12:23:00,80.2,74.6,29.98,WNW,288,4.0,4.0,83,0.00,,---,0.00,VWS V14.01,2013-07-11 16:23:00,
2013-07-11 12:24:00,80.2,74.2,29.98,West,259,3.0,5.0,82,0.00,,---,0.00,VWS V14.01,2013-07-11 16:24:00,
2013-07-11 12:25:00,80.2,74.6,29.98,SW,221,4.0,5.0,83,0.00,,---,0.00,VWS V14.01,2013-07-11 16:25:00,
2013-07-11 12:26:00,80.2,74.2,29.98,SSE,148,2.0,6.0,82,0.00,,---,0.00,VWS V14.01,2013-07-11 16:26:00,
2013-07-11 12:27:00,80.2,73.8,29.98,SSW,211,6.0,7.0,81,0.00,,---,0.00,VWS V14.01,2013-07-11 16:27:00,
2013-07-11 12:28:00,80.2,73.8,29.98,SW,218,1.0,7.0,81,0.00,,---,0.00,VWS V14.01,2013-07-11 16:28:00,
2013-07-11 12:30:00,80.3,74.3,29.98,WSW,240,1.0,2.0,82,0.00,,---,0.00,VWS V14.01,2013-07-11 16:30:00,
2013-07-11 12:31:00,80.4,74.4,29.98,WNW,288,1.0,5.0,82,0.00,,---,0.00,VWS V14.01,2013-07-11 16:31:00,
2013-07-11 12:32:00,80.5,74.1,29.98,West,263,1.0,5.0,81,0.00,,---,0.00,VWS V14.01,2013-07-11 16:32:00,
2013-07-11 12:33:00,80.5,74.1,29.98,West,261,6.0,7.0,81,0.00,,---,0.00,VWS V14.01,2013-07-11 16:33:00,
2013-07-11 12:34:00,80.5,73.8,29.99,West,276,8.0,8.0,80,0.00,,---,0.00,VWS V14.01,2013-07-11 16:34:00,
2013-07-11 12:35:00,80.5,73.8,29.98,West,275,6.0,11.0,80,0.00,,---,0.00,VWS V14.01,2013-07-11 16:35:00,
2013-07-11 12:36:00,80.4,73.7,29.98,WNW,301,3.0,6.0,80,0.00,,---,0.00,VWS V14.01,2013-07-11 16:36:00,
2013-07-11 12:37:00,80.4,74.0,29.98,West,267,4.0,6.0,81,0.00,,---,0.00,VWS V14.01,2013-07-11 16:37:00,
2013-07-11 12:38:00,80.5,74.1,29.98,West,273,3.0,4.0,81,0.00,,---,0.00,VWS V14.01,2013-07-11 16:38:00,
2013-07-11 12:39:00,80.5,74.1,29.98,WNW,288,4.0,5.0,81,0.00,,---,0.00,VWS V14.01,2013-07-11 16:39:00,
2013-07-11 12:40:00,80.5,74.1,29.98,WSW,252,3.0,6.0,81,0.00,,---,0.00,VWS V14.01,2013-07-11 16:40:00,
2013-07-11 12:41:00,80.6,74.6,29.98,WSW,256,4.0,5.0,82,0.00,,---,0.00,VWS V14.01,2013-07-11 16:41:00,
2013-07-11 12:42:00,80.7,74.7,29.98,SW,219,3.0,5.0,82,0.00,,---,0.00,VWS V14.01,2013-07-11 16:42:00,
2013-07-11 12:43:00,80.8,74.4,29.98,West,259,3.0,3.0,81,0.00,,---,0.00,VWS V14.01,2013-07-11 16:43:00,
2013-07-11 12:44:00,80.9,74.5,29.98,WSW,242,0.0,3.0,81,0.00,,---,0.00,VWS V14.01,2013-07-11 16:44:00,
2013-07-11 12:45:00,81.0,74.2,29.98,WSW,252,3.0,6.0,80,0.00,,---,0.00,VWS V14.01,2013-07-11 16:45:00,
2013-07-11 12:46:00,81.1,74.7,29.98,WSW,256,2.0,4.0,81,0.00,,---,0.00,VWS V14.01,2013-07-11 16:46:00,
2013-07-11 12:47:00,81.3,74.9,29.98,WNW,282,3.0,4.0,81,0.00,,---,0.00,VWS V14.01,2013-07-11 16:47:00,
2013-07-11 12:48:00,81.4,74.6,29.98,West,267,6.0,6.0,80,0.00,,---,0.00,VWS V14.01,2013-07-11 16:48:00,
2013-07-11 12:49:00,81.4,74.6,29.98,WNW,288,9.0,9.0,80,0.00,,---,0.00,VWS V14.01,2013-07-11 16:49:00,
2013-07-11 12:50:00,81.4,74.3,29.98,WNW,287,5.0,9.0,79,0.00,,---,0.00,VWS V14.01,2013-07-11 16:50:00,
2013-07-11 12:51:00,81.4,74.3,29.98,WNW,284,1.0,5.0,79,0.00,,---,0.00,VWS V14.01,2013-07-11 16:51:00,
2013-07-11 12:52:00,81.6,74.5,29.98,WNW,282,7.0,7.0,79,0.00,,---,0.00,VWS V14.01,2013-07-11 16:52:00,
2013-07-11 12:53:00,81.6,74.1,29.98,WNW,282,5.0,10.0,78,0.00,,---,0.00,VWS V14.01,2013-07-11 16:53:00,
2013-07-11 12:54:00,81.6,74.1,29.98,WSW,238,3.0,10.0,78,0.00,,---,0.00,VWS V14.01,2013-07-11 16:54:00,
2013-07-11 12:55:00,81.7,74.2,29.98,West,280,8.0,10.0,78,0.00,,---,0.00,VWS V14.01,2013-07-11 16:55:00,
2013-07-11 12:56:00,81.6,73.7,29.98,WSW,256,5.0,10.0,77,0.00,,---,0.00,VWS V14.01,2013-07-11 16:56:00,
2013-07-11 12:57:00,81.6,74.1,29.98,WNW,288,6.0,7.0,78,0.00,,---,0.00,VWS V14.01,2013-07-11 16:57:00,
2013-07-11 12:58:00,81.6,74.1,29.98,SSW,203,9.0,9.0,78,0.00,,---,0.00,VWS V14.01,2013-07-11 16:58:00,
2013-07-11 12:59:00,81.6,74.1,29.97,WSW,254,2.0,9.0,78,0.00,,---,0.00,VWS V14.01,2013-07-11 16:59:00,
2013-07-11 13:00:00,81.5,74.0,29.97,WNW,283,8.0,8.0,78,0.00,,---,0.00,VWS V14.01,2013-07-11 17:00:00,
2013-07-11 13:01:00,81.4,73.5,29.97,WNW,288,9.0,9.0,77,0.00,,---,0.00,VWS V14.01,2013-07-11 17:01:00,
2013-07-11 13:02:00,81.3,74.2,29.97,WNW,288,4.0,9.0,79,0.00,,---,0.00,VWS V14.01,2013-07-11 17:02:00,
2013-07-11 13:03:00,81.4,74.6,29.97,West,276,3.0,5.0,80,0.00,,---,0.00,VWS V14.01,2013-07-11 17:03:00,
2013-07-11 13:04:00,81.5,74.4,29.97,West,278,4.0,4.0,79,0.00,,---,0.00,VWS V14.01,2013-07-11 17:04:00,
2013-07-11 13:05:00,81.6,74.8,29.97,WSW,242,2.0,2.0,80,0.00,,---,0.00,VWS V14.01,2013-07-11 17:05:00,
2013-07-11 13:06:00,81.7,74.6,29.97,WNW,290,3.0,3.0,79,0.00,,---,0.00,VWS V14.01,2013-07-11 17:06:00,
2013-07-11 13:07:00,81.8,74.7,29.97,NW,304,2.0,8.0,79,0.00,,---,0.00,VWS V14.01,2013-07-11 17:07:00,
2013-07-11 13:08:00,81.9,74.0,29.97,SW,226,0.0,3.0,77,0.00,,---,0.00,VWS V14.01,2013-07-11 17:08:00,
2013-07-11 13:09:00,81.9,74.4,29.97,SW,229,5.0,5.0,78,0.00,,---,0.00,VWS V14.01,2013-07-11 17:09:00,
2013-07-11 13:10:00,82.0,74.1,29.97,West,267,1.0,3.0,77,0.00,,---,0.00,VWS V14.01,2013-07-11 17:10:00,
2013-07-11 13:11:00,82.0,74.5,29.97,West,281,4.0,6.0,78,0.00,,---,0.00,VWS V14.01,2013-07-11 17:11:00,
2013-07-11 13:12:00,82.0,74.1,29.97,SW,236,3.0,4.0,77,0.00,,---,0.00,VWS V14.01,2013-07-11 17:12:00,
2013-07-11 13:13:00,81.9,74.0,29.97,WNW,283,3.0,4.0,77,0.00,,---,0.00,VWS V14.01,2013-07-11 17:13:00,
2013-07-11 13:14:00,82.0,74.5,29.97,West,268,3.0,3.0,78,0.00,,---,0.00,VWS V14.01,2013-07-11 17:14:00,
2013-07-11 13:15:00,82.0,74.1,29.97,NW,322,1.0,3.0,77,0.00,,---,0.00,VWS V14.01,2013-07-11 17:15:00,
2013-07-11 13:16:00,82.0,74.5,29.97,West,269,4.0,5.0,78,0.00,,---,0.00,VWS V14.01,2013-07-11 17:16:00,
2013-07-11 13:17:00,82.1,74.6,29.97,West,271,4.0,5.0,78,0.00,,---,0.00,VWS V14.01,2013-07-11 17:17:00,
2013-07-11 13:18:00,82.1,74.9,29.97,South,180,4.0,4.0,79,0.00,,---,0.00,VWS V14.01,2013-07-11 17:18:00,
2013-07-11 13:19:00,82.2,74.7,29.96,South,172,3.0,5.0,78,0.00,,---,0.00,VWS V14.01,2013-07-11 17:19:00,
2013-07-11 13:20:00,82.2,74.3,29.96,South,179,1.0,3.0,77,0.00,,---,0.00,VWS V14.01,2013-07-11 17:20:00,
2013-07-11 13:21:00,82.3,74.4,29.96,SW,225,6.0,6.0,77,0.00,,---,0.00,VWS V14.01,2013-07-11 17:21:00,
2013-07-11 13:22:00,82.3,74.4,29.96,West,280,4.0,6.0,77,0.00,,---,0.00,VWS V14.01,2013-07-11 17:22:00,
2013-07-11 13:23:00,82.3,74.4,29.96,West,275,4.0,5.0,77,0.00,,---,0.00,VWS V14.01,2013-07-11 17:23:00,
2013-07-11 13:24:00,82.3,74.4,29.96,SE,126,1.0,4.0,77,0.00,,---,0.00,VWS V14.01,2013-07-11 17:24:00,
2013-07-11 13:25:00,82.3,74.4,29.96,WSW,254,1.0,3.0,77,0.00,,---,0.00,VWS V14.01,2013-07-11 17:25:00,
2013-07-11 13:26:00,82.3,74.4,29.96,West,265,1.0,2.0,77,0.00,,---,0.00,VWS V14.01,2013-07-11 17:26:00,
2013-07-11 13:27:00,82.5,74.6,29.96,SW,219,3.0,3.0,77,0.00,,---,0.00,VWS V14.01,2013-07-11 17:27:00,
2013-07-11 13:28:00,82.5,74.2,29.97,SW,223,3.0,6.0,76,0.00,,---,0.00,VWS V14.01,2013-07-11 17:28:00,
2013-07-11 13:29:00,82.5,74.2,29.96,NW,306,2.0,4.0,76,0.00,,---,0.00,VWS V14.01,2013-07-11 17:29:00,
2013-07-11 13:30:00,82.4,74.1,29.96,WSW,238,4.0,6.0,76,0.00,,---,0.00,VWS V14.01,2013-07-11 17:30:00,
2013-07-11 13:31:00,82.3,74.4,29.96,South,176,3.0,6.0,77,0.00,,---,0.00,VWS V14.01,2013-07-11 17:31:00,
2013-07-11 13:32:00,82.3,74.4,29.96,West,259,3.0,4.0,77,0.00,,---,0.00,VWS V14.01,2013-07-11 17:32:00,
2013-07-11 13:33:00,82.2,74.3,29.97,West,268,6.0,7.0,77,0.00,,---,0.00,VWS V14.01,2013-07-11 17:33:00,
2013-07-11 13:34:00,82.0,73.7,29.96,West,272,5.0,6.0,76,0.00,,---,0.00,VWS V14.01,2013-07-11 17:34:00,
2013-07-11 13:35:00,82.0,74.1,29.96,SW,236,1.0,6.0,77,0.00,,---,0.00,VWS V14.01,2013-07-11 17:35:00,
2013-07-11 13:36:00,81.9,74.0,29.96,West,279,5.0,5.0,77,0.00,,---,0.00,VWS V14.01,2013-07-11 17:36:00,
2013-07-11 13:37:00,81.9,74.0,29.96,WNW,284,6.0,6.0,77,0.00,,---,0.00,VWS V14.01,2013-07-11 17:37:00,
2013-07-11 13:38:00,81.8,73.9,29.96,West,275,8.0,9.0,77,0.00,,---,0.00,VWS V14.01,2013-07-11 17:38:00,
2013-07-11 13:39:00,81.7,73.8,29.96,WNW,284,4.0,9.0,77,0.00,,---,0.00,VWS V14.01,2013-07-11 17:39:00,
2013-07-11 13:40:00,81.6,73.7,29.96,WNW,291,6.0,6.0,77,0.00,,---,0.00,VWS V14.01,2013-07-11 17:40:00,
2013-07-11 13:41:00,81.6,74.1,29.96,West,265,6.0,7.0,78,0.00,,---,0.00,VWS V14.01,2013-07-11 17:41:00,
2013-07-11 13:42:00,81.6,74.1,29.96,WNW,282,5.0,6.0,78,0.00,,---,0.00,VWS V14.01,2013-07-11 17:42:00,
2013-07-11 13:43:00,81.6,74.1,29.96,West,264,4.0,6.0,78,0.00,,---,0.00,VWS V14.01,2013-07-11 17:43:00,
2013-07-11 13:44:00,81.6,74.5,29.96,SSW,210,2.0,4.0,79,0.00,,---,0.00,VWS V14.01,2013-07-11 17:44:00,
2013-07-11 13:45:00,81.8,74.7,29.96,ENE,76,1.0,2.0,79,0.00,,---,0.00,VWS V14.01,2013-07-11 17:45:00,
2013-07-11 13:46:00,81.9,75.1,29.96,West,265,2.0,2.0,80,0.00,,---,0.00,VWS V14.01,2013-07-11 17:46:00,
2013-07-11 13:47:00,82.1,74.9,29.96,SSW,207,4.0,4.0,79,0.00,,---,0.00,VWS V14.01,2013-07-11 17:47:00,
2013-07-11 13:48:00,82.2,74.7,29.96,West,277,0.0,4.0,78,0.00,,---,0.00,VWS V14.01,2013-07-11 17:48:00,
2013-07-11 13:49:00,82.3,74.8,29.96,WSW,254,4.0,4.0,78,0.00,,---,0.00,VWS V14.01,2013-07-11 17:49:00,
2013-07-11 13:50:00,82.5,74.9,29.96,SW,227,2.0,2.0,78,0.00,,---,0.00,VWS V14.01,2013-07-11 17:50:00,
2013-07-11 13:51:00,82.6,75.1,29.96,WSW,249,2.0,4.0,78,0.00,,---,0.00,VWS V14.01,2013-07-11 17:51:00,
2013-07-11 13:52:00,82.7,74.4,29.96,West,260,3.0,4.0,76,0.00,,---,0.00,VWS V14.01,2013-07-11 17:52:00,
2013-07-11 13:53:00,82.8,75.2,29.96,West,268,4.0,4.0,78,0.00,,---,0.00,VWS V14.01,2013-07-11 17:53:00,
2013-07-11 13:54:00,82.8,74.9,29.96,West,279,6.0,7.0,77,0.00,,---,0.00,VWS V14.01,2013-07-11 17:54:00,
2013-07-11 13:55:00,82.7,74.8,29.96,West,273,2.0,2.0,77,0.00,,---,0.00,VWS V14.01,2013-07-11 17:55:00,
2013-07-11 13:56:00,82.7,75.2,29.96,WNW,291,3.0,3.0,78,0.00,,---,0.00,VWS V14.01,2013-07-11 17:56:00,
2013-07-11 13:57:00,82.8,75.2,29.96,SSW,213,3.0,3.0,78,0.00,,---,0.00,VWS V14.01,2013-07-11 17:57:00,
2013-07-11 13:58:00,82.9,74.9,29.96,SSW,192,4.0,4.0,77,0.00,,---,0.00,VWS V14.01,2013-07-11 17:58:00,
2013-07-11 13:59:00,82.9,74.6,29.96,WNW,286,5.0,7.0,76,0.00,,---,0.00,VWS V14.01,2013-07-11 17:59:00,
2013-07-11 14:00:00,82.7,74.4,29.96,West,277,5.0,6.0,76,0.00,,---,0.00,VWS V14.01,2013-07-11 18:00:00,
2013-07-11 14:01:00,82.7,74.4,29.96,West,279,3.0,6.0,76,0.00,,---,0.00,VWS V14.01,2013-07-11 18:01:00,
2013-07-11 14:02:00,82.6,74.7,29.96,SW,232,0.0,4.0,77,0.00,,---,0.00,VWS V14.01,2013-07-11 18:02:00,
2013-07-11 14:03:00,82.6,74.7,29.95,West,280,1.0,1.0,77,0.00,,---,0.00,VWS V14.01,2013-07-11 18:03:00,
2013-07-11 14:04:00,82.6,74.3,29.95,West,280,3.0,3.0,76,0.00,,---,0.00,VWS V14.01,2013-07-11 18:04:00,
2013-07-11 14:05:00,82.5,74.2,29.95,West,261,5.0,6.0,76,0.00,,---,0.00,VWS V14.01,2013-07-11 18:05:00,
2013-07-11 14:06:00,82.4,74.1,29.95,WSW,252,4.0,6.0,76,0.00,,---,0.00,VWS V14.01,2013-07-11 18:06:00,
2013-07-11 14:07:00,82.3,74.4,29.95,West,278,3.0,4.0,77,0.00,,---,0.00,VWS V14.01,2013-07-11 18:07:00,
2013-07-11 14:08:00,82.2,74.3,29.95,West,264,3.0,4.0,77,0.00,,---,0.00,VWS V14.01,2013-07-11 18:08:00,
2013-07-11 14:09:00,82.1,74.6,29.95,WNW,284,5.0,5.0,78,0.00,,---,0.00,VWS V14.01,2013-07-11 18:09:00,
2013-07-11 14:10:00,82.0,74.1,29.95,WNW,288,3.0,5.0,77,0.00,,---,0.00,VWS V14.01,2013-07-11 18:10:00,
2013-07-11 14:11:00,82.0,74.5,29.95,WNW,295,4.0,4.0,78,0.00,,---,0.00,VWS V14.01,2013-07-11 18:11:00,
2013-07-11 14:12:00,81.9,74.4,29.95,WNW,286,4.0,4.0,78,0.00,,---,0.00,VWS V14.01,2013-07-11 18:12:00,
2013-07-11 14:13:00,81.9,74.4,29.95,West,263,2.0,4.0,78,0.00,,---,0.00,VWS V14.01,2013-07-11 18:13:00,
2013-07-11 14:14:00,81.9,74.4,29.95,WNW,291,3.0,5.0,78,0.00,,---,0.00,VWS V14.01,2013-07-11 18:14:00,
2013-07-11 14:15:00,81.9,74.4,29.95,WSW,240,2.0,4.0,78,0.00,,---,0.00,VWS V14.01,2013-07-11 18:15:00,
2013-07-11 14:16:00,82.0,74.5,29.95,WNW,286,3.0,3.0,78,0.00,,---,0.00,VWS V14.01,2013-07-11 18:16:00,
2013-07-11 14:17:00,82.1,74.9,29.95,SW,219,2.0,3.0,79,0.00,,---,0.00,VWS V14.01,2013-07-11 18:17:00,
2013-07-11 14:18:00,82.2,74.7,29.95,WSW,253,3.0,3.0,78,0.00,,---,0.00,VWS V14.01,2013-07-11 18:18:00,
2013-07-11 14:19:00,82.3,74.8,29.95,NNE,13,0.0,3.0,78,0.00,,---,0.00,VWS V14.01,2013-07-11 18:19:00,
2013-07-11 14:20:00,82.5,74.9,29.95,South,169,1.0,1.0,78,0.00,,---,0.00,VWS V14.01,2013-07-11 18:20:00,
2013-07-11 14:21:00,82.6,74.7,29.95,West,279,0.0,2.0,77,0.00,,---,0.00,VWS V14.01,2013-07-11 18:21:00,
2013-07-11 14:22:00,82.8,74.9,29.95,West,269,1.0,1.0,77,0.00,,---,0.00,VWS V14.01,2013-07-11 18:22:00,
2013-07-11 14:23:00,83.0,75.1,29.95,SSE,161,1.0,1.0,77,0.00,,---,0.00,VWS V14.01,2013-07-11 18:23:00,
2013-07-11 14:24:00,83.1,74.8,29.94,SSE,149,2.0,2.0,76,0.00,,---,0.00,VWS V14.01,2013-07-11 18:24:00,
2013-07-11 14:26:00,83.3,74.9,29.94,South,183,2.0,3.0,76,0.00,,---,0.00,VWS V14.01,2013-07-11 18:26:00,
2013-07-11 14:27:00,83.5,75.1,29.95,SE,140,0.0,1.0,76,0.00,,---,0.00,VWS V14.01,2013-07-11 18:27:00,
2013-07-11 14:28:00,83.7,75.3,29.95,West,259,1.0,2.0,76,0.00,,---,0.00,VWS V14.01,2013-07-11 18:28:00,
2013-07-11 14:29:00,83.7,75.3,29.95,WNW,287,2.0,2.0,76,0.00,,---,0.00,VWS V14.01,2013-07-11 18:29:00,
2013-07-11 14:30:00,83.7,74.9,29.94,West,272,1.0,2.0,75,0.00,,---,0.00,VWS V14.01,2013-07-11 18:30:00,
2013-07-11 14:31:00,83.7,74.9,29.94,West,281,1.0,3.0,75,0.00,,---,0.00,VWS V14.01,2013-07-11 18:31:00,
2013-07-11 14:32:00,83.7,74.9,29.94,NW,305,3.0,3.0,75,0.00,,---,0.00,VWS V14.01,2013-07-11 18:32:00,
2013-07-11 14:33:00,83.6,74.8,29.94,West,276,2.0,3.0,75,0.00,,---,0.00,VWS V14.01,2013-07-11 18:33:00,
2013-07-11 14:34:00,83.4,75.0,29.95,WSW,238,3.0,3.0,76,0.00,,---,0.00,VWS V14.01,2013-07-11 18:34:00,
2013-07-11 14:35:00,83.3,74.9,29.95,West,267,1.0,4.0,76,0.00,,---,0.00,VWS V14.01,2013-07-11 18:35:00,
2013-07-11 14:36:00,83.2,75.2,29.95,SW,236,2.0,2.0,77,0.00,,---,0.00,VWS V14.01,2013-07-11 18:36:00,
2013-07-11 14:37:00,83.1,74.8,29.95,WSW,248,0.0,2.0,76,0.00,,---,0.00,VWS V14.01,2013-07-11 18:37:00,
2013-07-11 14:38:00,83.1,74.8,29.95,West,271,1.0,2.0,76,0.00,,---,0.00,VWS V14.01,2013-07-11 18:38:00,
2013-07-11 14:39:00,83.0,74.7,29.95,WNW,300,2.0,2.0,76,0.00,,---,0.00,VWS V14.01,2013-07-11 18:39:00,
2013-07-11 14:40:00,83.0,74.7,29.95,NW,310,4.0,6.0,76,0.00,,---,0.00,VWS V14.01,2013-07-11 18:40:00,
2013-07-11 14:41:00,82.8,74.5,29.95,West,267,5.0,5.0,76,0.00,,---,0.00,VWS V14.01,2013-07-11 18:41:00,
2013-07-11 14:42:00,82.6,74.7,29.95,West,278,5.0,5.0,77,0.00,,---,0.00,VWS V14.01,2013-07-11 18:42:00,
2013-07-11 14:43:00,82.4,74.1,29.95,West,271,5.0,5.0,76,0.00,,---,0.00,VWS V14.01,2013-07-11 18:43:00,
2013-07-11 14:44:00,82.3,74.4,29.95,WNW,286,4.0,5.0,77,0.00,,---,0.00,VWS V14.01,2013-07-11 18:44:00,
2013-07-11 14:45:00,82.1,74.2,29.95,WSW,254,3.0,5.0,77,0.00,,---,0.00,VWS V14.01,2013-07-11 18:45:00,
2013-07-11 14:46:00,82.0,74.1,29.94,West,277,4.0,4.0,77,0.00,,---,0.00,VWS V14.01,2013-07-11 18:46:00,
2013-07-11 14:47:00,81.9,74.4,29.94,West,275,5.0,5.0,78,0.00,,---,0.00,VWS V14.01,2013-07-11 18:47:00,
2013-07-11 14:48:00,81.8,74.3,29.94,West,281,3.0,5.0,78,0.00,,---,0.00,VWS V14.01,2013-07-11 18:48:00,
2013-07-11 14:49:00,81.7,74.2,29.94,West,279,3.0,4.0,78,0.00,,---,0.00,VWS V14.01,2013-07-11 18:49:00,
2013-07-11 14:50:00,81.6,74.1,29.94,West,264,4.0,4.0,78,0.00,,---,0.00,VWS V14.01,2013-07-11 18:50:00,
2013-07-11 14:51:00,81.5,74.0,29.94,West,269,2.0,4.0,78,0.00,,---,0.00,VWS V14.01,2013-07-11 18:51:00,
2013-07-11 14:52:00,81.4,74.3,29.94,West,267,3.0,3.0,79,0.00,,---,0.00,VWS V14.01,2013-07-11 18:52:00,
2013-07-11 14:53:00,81.4,74.3,29.94,West,273,3.0,4.0,79,0.00,,---,0.00,VWS V14.01,2013-07-11 18:53:00,
2013-07-11 14:54:00,81.3,73.8,29.94,West,281,5.0,5.0,78,0.00,,---,0.00,VWS V14.01,2013-07-11 18:54:00,
2013-07-11 14:55:00,81.2,74.1,29.94,West,267,3.0,5.0,79,0.00,,---,0.00,VWS V14.01,2013-07-11 18:55:00,
2013-07-11 14:56:00,81.1,74.0,29.94,WNW,290,2.0,4.0,79,0.00,,---,0.00,VWS V14.01,2013-07-11 18:56:00,
2013-07-11 14:57:00,81.1,74.0,29.94,WNW,287,4.0,4.0,79,0.00,,---,0.00,VWS V14.01,2013-07-11 18:57:00,
2013-07-11 14:58:00,81.0,74.2,29.94,WNW,287,4.0,5.0,80,0.00,,---,0.00,VWS V14.01,2013-07-11 18:58:00,
2013-07-11 14:59:00,81.0,74.2,29.94,West,281,3.0,5.0,80,0.00,,---,0.00,VWS V14.01,2013-07-11 18:59:00,
2013-07-11 15:00:00,80.9,74.2,29.94,WSW,256,3.0,5.0,80,0.00,,---,0.00,VWS V14.01,2013-07-11 19:00:00,
2013-07-11 15:01:00,80.8,74.1,29.94,West,278,4.0,4.0,80,0.00,,---,0.00,VWS V14.01,2013-07-11 19:01:00,
2013-07-11 15:02:00,80.8,74.4,29.94,West,281,4.0,4.0,81,0.00,,---,0.00,VWS V14.01,2013-07-11 19:02:00,
2013-07-11 15:03:00,80.7,74.3,29.94,West,272,3.0,4.0,81,0.00,,---,0.00,VWS V14.01,2013-07-11 19:03:00,
2013-07-11 15:04:00,80.6,74.2,29.94,WSW,250,6.0,8.0,81,0.00,,---,0.00,VWS V14.01,2013-07-11 19:04:00,
2013-07-11 15:05:00,80.5,74.5,29.94,WSW,257,7.0,10.0,82,0.00,,---,0.00,VWS V14.01,2013-07-11 19:05:00,
2013-07-11 15:06:00,80.1,74.1,29.95,WSW,252,10.0,12.0,82,0.00,,---,0.00,VWS V14.01,2013-07-11 19:06:00,
2013-07-11 15:07:00,80.0,74.4,29.95,WNW,282,7.0,12.0,83,0.00,,---,0.00,VWS V14.01,2013-07-11 19:07:00,
2013-07-11 15:08:00,79.7,74.4,29.95,West,281,4.0,8.0,84,0.00,,---,0.00,VWS V14.01,2013-07-11 19:08:00,
2013-07-11 15:09:00,79.6,74.3,29.95,WSW,244,6.0,11.0,84,0.00,,---,0.00,VWS V14.01,2013-07-11 19:09:00,
2013-07-11 15:10:00,79.3,74.4,29.95,West,279,3.0,7.0,85,0.00,,---,0.00,VWS V14.01,2013-07-11 19:10:00,
2013-07-11 15:11:00,79.1,74.2,29.95,WNW,297,5.0,5.0,85,0.00,,---,0.00,VWS V14.01,2013-07-11 19:11:00,
2013-07-11 15:12:00,78.9,74.0,29.95,WSW,248,3.0,6.0,85,0.00,,---,0.00,VWS V14.01,2013-07-11 19:12:00,
2013-07-11 15:13:00,78.7,74.2,29.95,WNW,286,7.0,7.0,86,0.00,,---,0.00,VWS V14.01,2013-07-11 19:13:00,
2013-07-11 15:14:00,78.5,74.0,29.94,West,273,5.0,8.0,86,0.00,,---,0.00,VWS V14.01,2013-07-11 19:14:00,
2013-07-11 15:15:00,78.3,73.4,29.94,West,263,4.0,7.0,85,0.00,,---,0.00,VWS V14.01,2013-07-11 19:15:00,
2013-07-11 15:16:00,78.1,73.2,29.95,WSW,248,6.0,6.0,85,0.00,,---,0.00,VWS V14.01,2013-07-11 19:16:00,
2013-07-11 15:17:00,77.9,73.0,29.94,West,281,3.0,6.0,85,0.00,,---,0.00,VWS V14.01,2013-07-11 19:17:00,
2013-07-11 15:18:00,77.7,72.5,29.94,West,275,2.0,7.0,84,0.00,,---,0.00,VWS V14.01,2013-07-11 19:18:00,
2013-07-11 15:19:00,77.6,72.4,29.94,WNW,286,3.0,5.0,84,0.00,,---,0.00,VWS V14.01,2013-07-11 19:19:00,
2013-07-11 15:20:00,77.4,72.2,29.95,WNW,282,4.0,4.0,84,0.00,,---,0.00,VWS V14.01,2013-07-11 19:20:00,
2013-07-11 15:21:00,77.3,72.4,29.95,SSW,213,4.0,4.0,85,0.00,,---,0.00,VWS V14.01,2013-07-11 19:21:00,
2013-07-11 15:22:00,77.2,72.3,29.95,WSW,250,3.0,4.0,85,0.00,,---,0.00,VWS V14.01,2013-07-11 19:22:00,
2013-07-11 15:23:00,77.0,72.2,29.95,SW,217,3.0,4.0,85,0.00,,---,0.00,VWS V14.01,2013-07-11 19:23:00,
2013-07-11 15:24:00,76.9,72.4,29.95,SSE,147,1.0,3.0,86,0.01,,---,0.01,VWS V14.01,2013-07-11 19:24:00,
2013-07-11 15:25:00,76.8,72.3,29.95,SSW,196,2.0,2.0,86,0.01,,---,0.01,VWS V14.01,2013-07-11 19:25:00,
2013-07-11 15:26:00,76.7,72.2,29.95,SW,229,3.0,3.0,86,0.01,,---,0.01,VWS V14.01,2013-07-11 19:26:00,
2013-07-11 15:27:00,76.6,72.1,29.95,SSW,213,5.0,5.0,86,0.01,,---,0.01,VWS V14.01,2013-07-11 19:27:00,
2013-07-11 15:28:00,76.3,71.8,29.95,SE,142,2.0,2.0,86,0.02,,---,0.02,VWS V14.01,2013-07-11 19:28:00,
2013-07-11 15:29:00,76.2,72.1,29.95,West,265,1.0,2.0,87,0.02,,---,0.02,VWS V14.01,2013-07-11 19:29:00,
2013-07-11 15:30:00,76.1,71.9,29.95,South,171,1.0,2.0,87,0.02,,---,0.02,VWS V14.01,2013-07-11 19:30:00,
2013-07-11 15:31:00,76.0,71.9,29.95,WNW,286,1.0,3.0,87,0.02,,---,0.02,VWS V14.01,2013-07-11 19:31:00,
2013-07-11 15:32:00,75.9,72.1,29.94,West,280,2.0,2.0,88,0.02,,---,0.02,VWS V14.01,2013-07-11 19:32:00,
2013-07-11 15:33:00,75.7,71.9,29.94,WNW,291,1.0,2.0,88,0.02,,---,0.02,VWS V14.01,2013-07-11 19:33:00,
2013-07-11 15:34:00,75.6,71.8,29.94,WNW,291,1.0,1.0,88,0.02,,---,0.02,VWS V14.01,2013-07-11 19:34:00,
2013-07-11 15:35:00,75.5,71.7,29.94,WSW,254,3.0,3.0,88,0.02,,---,0.02,VWS V14.01,2013-07-11 19:35:00,
2013-07-11 15:36:00,75.3,71.5,29.94,WSW,242,1.0,4.0,88,0.02,,---,0.02,VWS V14.01,2013-07-11 19:36:00,
2013-07-11 15:37:00,75.2,71.4,29.94,WSW,249,1.0,2.0,88,0.02,,---,0.02,VWS V14.01,2013-07-11 19:37:00,
2013-07-11 15:38:00,75.1,71.6,29.94,WSW,253,3.0,3.0,89,0.02,,---,0.02,VWS V14.01,2013-07-11 19:38:00,
2013-07-11 15:39:00,74.9,71.4,29.94,WSW,245,1.0,3.0,89,0.02,,---,0.02,VWS V14.01,2013-07-11 19:39:00,
2013-07-11 15:40:00,74.8,71.3,29.94,SW,225,1.0,1.0,89,0.02,,---,0.02,VWS V14.01,2013-07-11 19:40:00,
2013-07-11 15:41:00,74.8,71.3,29.94,SW,225,1.0,1.0,89,0.02,,---,0.02,VWS V14.01,2013-07-11 19:41:00,
2013-07-11 15:42:00,74.7,71.2,29.94,SSW,202,0.0,0.0,89,0.02,,---,0.02,VWS V14.01,2013-07-11 19:42:00,
2013-07-11 15:43:00,74.6,71.5,29.94,SW,236,2.0,2.0,90,0.02,,---,0.02,VWS V14.01,2013-07-11 19:43:00,
2013-07-11 15:44:00,74.6,71.5,29.94,SW,222,2.0,2.0,90,0.02,,---,0.02,VWS V14.01,2013-07-11 19:44:00,
2013-07-11 15:45:00,74.5,71.4,29.94,West,261,1.0,2.0,90,0.02,,---,0.02,VWS V14.01,2013-07-11 19:45:00,
2013-07-11 15:46:00,74.5,71.4,29.94,SW,227,1.0,2.0,90,0.02,,---,0.02,VWS V14.01,2013-07-11 19:46:00,
2013-07-11 15:47:00,74.4,71.3,29.94,SW,233,2.0,2.0,90,0.02,,---,0.02,VWS V14.01,2013-07-11 19:47:00,
2013-07-11 15:48:00,74.4,71.3,29.94,WSW,245,1.0,1.0,90,0.02,,---,0.02,VWS V14.01,2013-07-11 19:48:00,
2013-07-11 15:49:00,74.3,71.2,29.94,SW,233,2.0,3.0,90,0.02,,---,0.02,VWS V14.01,2013-07-11 19:49:00,
2013-07-11 15:50:00,74.2,71.4,29.94,WSW,249,4.0,4.0,91,0.02,,---,0.02,VWS V14.01,2013-07-11 19:50:00,
2013-07-11 15:51:00,74.1,71.0,29.94,SSW,209,1.0,4.0,90,0.03,,---,0.03,VWS V14.01,2013-07-11 19:51:00,
2013-07-11 15:52:00,74.1,71.3,29.94,WSW,252,1.0,1.0,91,0.03,,---,0.03,VWS V14.01,2013-07-11 19:52:00,
2013-07-11 15:53:00,74.0,71.2,29.94,SSW,206,2.0,2.0,91,0.03,,---,0.03,VWS V14.01,2013-07-11 19:53:00,
2013-07-11 15:54:00,74.0,71.2,29.94,WSW,244,2.0,3.0,91,0.03,,---,0.03,VWS V14.01,2013-07-11 19:54:00,
2013-07-11 15:55:00,73.9,71.1,29.94,SW,233,1.0,2.0,91,0.04,,---,0.04,VWS V14.01,2013-07-11 19:55:00,
2013-07-11 15:56:00,73.9,71.1,29.94,SW,233,1.0,1.0,91,0.04,,---,0.04,VWS V14.01,2013-07-11 19:56:00,
2013-07-11 15:57:00,73.9,71.1,29.94,SSW,210,0.0,0.0,91,0.04,,---,0.04,VWS V14.01,2013-07-11 19:57:00,
2013-07-11 15:58:00,73.9,71.1,29.94,SSW,211,1.0,1.0,91,0.04,,---,0.04,VWS V14.01,2013-07-11 19:58:00,
2013-07-11 15:59:00,73.9,71.4,29.93,SSW,211,0.0,1.0,92,0.05,,---,0.05,VWS V14.01,2013-07-11 19:59:00,
2013-07-11 16:00:00,73.9,71.4,29.94,WSW,246,2.0,3.0,92,0.05,,---,0.05,VWS V14.01,2013-07-11 20:00:00,
2013-07-11 16:01:00,73.9,71.4,29.93,WSW,247,1.0,2.0,92,0.05,,---,0.05,VWS V14.01,2013-07-11 20:01:00,
2013-07-11 16:02:00,73.8,71.3,29.93,WSW,246,0.0,0.0,92,0.06,,---,0.06,VWS V14.01,2013-07-11 20:02:00,
2013-07-11 16:03:00,73.8,71.3,29.93,WSW,247,0.0,1.0,92,0.06,,---,0.06,VWS V14.01,2013-07-11 20:03:00,
2013-07-11 16:04:00,73.7,71.2,29.93,WSW,246,0.0,0.0,92,0.06,,---,0.06,VWS V14.01,2013-07-11 20:04:00,
2013-07-11 16:05:00,73.7,71.2,29.94,WSW,246,0.0,0.0,92,0.06,,---,0.06,VWS V14.01,2013-07-11 20:05:00,
2013-07-11 16:06:00,73.7,71.2,29.94,SSW,208,1.0,1.0,92,0.06,,---,0.06,VWS V14.01,2013-07-11 20:06:00,
2013-07-11 16:07:00,73.7,71.2,29.94,SW,223,1.0,1.0,92,0.06,,---,0.06,VWS V14.01,2013-07-11 20:07:00,
2013-07-11 16:08:00,73.7,71.2,29.94,SW,227,2.0,2.0,92,0.06,,---,0.06,VWS V14.01,2013-07-11 20:08:00,
2013-07-11 16:09:00,73.7,71.2,29.94,WSW,248,0.0,2.0,92,0.06,,---,0.06,VWS V14.01,2013-07-11 20:09:00,
2013-07-11 16:10:00,73.7,71.2,29.94,SSW,207,2.0,2.0,92,0.07,,---,0.07,VWS V14.01,2013-07-11 20:10:00,
2013-07-11 16:11:00,73.7,71.2,29.94,South,172,2.0,2.0,92,0.07,,---,0.07,VWS V14.01,2013-07-11 20:11:00,
2013-07-11 16:12:00,73.6,71.1,29.94,SSW,205,0.0,1.0,92,0.07,,---,0.07,VWS V14.01,2013-07-11 20:12:00,
2013-07-11 16:13:00,73.6,71.1,29.94,SSW,211,1.0,1.0,92,0.07,,---,0.07,VWS V14.01,2013-07-11 20:13:00,
2013-07-11 16:14:00,73.6,71.1,29.94,SW,225,0.0,2.0,92,0.08,,---,0.08,VWS V14.01,2013-07-11 20:14:00,
2013-07-11 16:15:00,73.6,71.1,29.94,SW,225,0.0,0.0,92,0.08,,---,0.08,VWS V14.01,2013-07-11 20:15:00,
2013-07-11 16:16:00,73.6,71.1,29.94,SW,225,0.0,0.0,92,0.08,,---,0.08,VWS V14.01,2013-07-11 20:16:00,
2013-07-11 16:17:00,73.6,71.1,29.94,SW,224,0.0,0.0,92,0.09,,---,0.09,VWS V14.01,2013-07-11 20:17:00,
2013-07-11 16:18:00,73.6,71.1,29.94,SW,224,0.0,0.0,92,0.09,,---,0.09,VWS V14.01,2013-07-11 20:18:00,
2013-07-11 16:19:00,73.6,71.1,29.94,SW,224,0.0,0.0,92,0.09,,---,0.09,VWS V14.01,2013-07-11 20:19:00,
2013-07-11 16:20:00,73.6,71.1,29.94,SW,225,0.0,0.0,92,0.09,,---,0.09,VWS V14.01,2013-07-11 20:20:00,
2013-07-11 16:21:00,73.6,71.1,29.94,SW,225,0.0,0.0,92,0.10,,---,0.10,VWS V14.01,2013-07-11 20:21:00,
2013-07-11 16:22:00,73.6,71.1,29.94,SW,225,0.0,0.0,92,0.10,,---,0.10,VWS V14.01,2013-07-11 20:22:00,
2013-07-11 16:23:00,73.6,71.1,29.94,SW,225,0.0,0.0,92,0.11,,---,0.11,VWS V14.01,2013-07-11 20:23:00,
2013-07-11 16:24:00,73.6,71.1,29.94,SW,225,0.0,0.0,92,0.11,,---,0.11,VWS V14.01,2013-07-11 20:24:00,
2013-07-11 16:25:00,73.6,71.1,29.94,SW,225,0.0,0.0,92,0.10,,---,0.11,VWS V14.01,2013-07-11 20:25:00,
2013-07-11 16:26:00,73.6,71.1,29.94,SW,225,0.0,0.0,92,0.11,,---,0.12,VWS V14.01,2013-07-11 20:26:00,
2013-07-11 16:27:00,73.5,71.0,29.94,WSW,253,0.0,0.0,92,0.10,,---,0.12,VWS V14.01,2013-07-11 20:27:00,
2013-07-11 16:28:00,73.5,71.0,29.94,WSW,253,0.0,0.0,92,0.10,,---,0.12,VWS V14.01,2013-07-11 20:28:00,
2013-07-11 16:29:00,73.5,71.0,29.94,SE,146,0.0,0.0,92,0.11,,---,0.13,VWS V14.01,2013-07-11 20:29:00,
2013-07-11 16:30:00,73.5,71.4,29.94,SE,146,0.0,0.0,93,0.11,,---,0.13,VWS V14.01,2013-07-11 20:30:00,
2013-07-11 16:31:00,73.5,71.4,29.94,WSW,242,0.0,0.0,93,0.11,,---,0.13,VWS V14.01,2013-07-11 20:31:00,
2013-07-11 16:32:00,73.5,71.0,29.94,WSW,242,0.0,0.0,92,0.12,,---,0.14,VWS V14.01,2013-07-11 20:32:00,
2013-07-11 16:33:00,73.4,71.3,29.94,WSW,242,0.0,0.0,93,0.12,,---,0.14,VWS V14.01,2013-07-11 20:33:00,
2013-07-11 16:34:00,73.5,71.4,29.94,SSE,157,0.0,0.0,93,0.12,,---,0.14,VWS V14.01,2013-07-11 20:34:00,
2013-07-11 16:35:00,73.5,71.4,29.94,SSE,156,0.0,1.0,93,0.12,,---,0.14,VWS V14.01,2013-07-11 20:35:00,
2013-07-11 16:36:00,73.4,71.3,29.94,SSE,161,1.0,2.0,93,0.13,,---,0.15,VWS V14.01,2013-07-11 20:36:00,
2013-07-11 16:37:00,73.3,71.2,29.94,South,171,4.0,4.0,93,0.13,,---,0.15,VWS V14.01,2013-07-11 20:37:00,
2013-07-11 16:38:00,73.3,70.8,29.94,SSE,163,1.0,4.0,92,0.13,,---,0.15,VWS V14.01,2013-07-11 20:38:00,
2013-07-11 16:39:00,73.3,71.2,29.94,SE,142,3.0,4.0,93,0.13,,---,0.15,VWS V14.01,2013-07-11 20:39:00,
2013-07-11 16:40:00,73.3,71.2,29.94,SE,128,3.0,3.0,93,0.13,,---,0.15,VWS V14.01,2013-07-11 20:40:00,
2013-07-11 16:41:00,73.3,71.2,29.94,SW,219,3.0,4.0,93,0.13,,---,0.15,VWS V14.01,2013-07-11 20:41:00,
2013-07-11 16:42:00,73.2,71.1,29.94,SSE,157,2.0,3.0,93,0.13,,---,0.15,VWS V14.01,2013-07-11 20:42:00,
2013-07-11 16:43:00,73.2,71.1,29.94,NW,322,1.0,2.0,93,0.13,,---,0.15,VWS V14.01,2013-07-11 20:43:00,
2013-07-11 16:44:00,73.2,71.1,29.93,ESE,115,1.0,1.0,93,0.13,,---,0.15,VWS V14.01,2013-07-11 20:44:00,
2013-07-11 16:46:00,73.2,71.1,29.94,SSW,199,1.0,2.0,93,0.13,,---,0.15,VWS V14.01,2013-07-11 20:46:00,
2013-07-11 16:47:00,73.2,71.1,29.93,SSW,199,0.0,1.0,93,0.13,,---,0.15,VWS V14.01,2013-07-11 20:47:00,
2013-07-11 16:48:00,73.2,71.1,29.93,SSW,198,0.0,0.0,93,0.14,,---,0.16,VWS V14.01,2013-07-11 20:48:00,
2013-07-11 16:49:00,73.2,71.1,29.93,SSW,195,1.0,1.0,93,0.14,,---,0.16,VWS V14.01,2013-07-11 20:49:00,
2013-07-11 16:50:00,73.2,71.1,29.93,SSW,195,0.0,1.0,93,0.14,,---,0.16,VWS V14.01,2013-07-11 20:50:00,
2013-07-11 16:51:00,73.2,71.1,29.93,South,173,2.0,2.0,93,0.15,,---,0.17,VWS V14.01,2013-07-11 20:51:00,
2013-07-11 16:52:00,73.2,71.1,29.93,SSE,149,0.0,2.0,93,0.14,,---,0.17,VWS V14.01,2013-07-11 20:52:00,
2013-07-11 16:53:00,73.2,71.1,29.93,SSE,149,0.0,0.0,93,0.14,,---,0.17,VWS V14.01,2013-07-11 20:53:00,
2013-07-11 16:54:00,73.2,71.4,29.94,WSW,237,1.0,1.0,94,0.14,,---,0.17,VWS V14.01,2013-07-11 20:54:00,
2013-07-11 16:55:00,73.2,71.4,29.94,SE,137,2.0,2.0,94,0.15,,---,0.18,VWS V14.01,2013-07-11 20:55:00,
2013-07-11 16:56:00,73.1,71.0,29.94,SE,140,0.0,2.0,93,0.14,,---,0.18,VWS V14.01,2013-07-11 20:56:00,
2013-07-11 16:57:00,73.1,71.3,29.93,SE,140,0.0,0.0,94,0.14,,---,0.18,VWS V14.01,2013-07-11 20:57:00,
2013-07-11 16:58:00,73.1,71.3,29.94,SE,146,1.0,1.0,94,0.15,,---,0.19,VWS V14.01,2013-07-11 20:58:00,
2013-07-11 16:59:00,73.1,71.3,29.94,SW,233,1.0,2.0,94,0.15,,---,0.19,VWS V14.01,2013-07-11 20:59:00,
2013-07-11 17:00:00,73.1,71.3,29.94,SW,233,0.0,1.0,94,0.14,,---,0.19,VWS V14.01,2013-07-11 21:00:00,
2013-07-11 17:01:00,73.0,71.2,29.93,SW,233,0.0,1.0,94,0.14,,---,0.19,VWS V14.01,2013-07-11 21:01:00,
2013-07-11 17:02:00,73.0,71.2,29.94,SW,233,0.0,0.0,94,0.14,,---,0.19,VWS V14.01,2013-07-11 21:02:00,
2013-07-11 17:03:00,72.9,71.1,29.94,SW,229,0.0,0.0,94,0.14,,---,0.19,VWS V14.01,2013-07-11 21:03:00,
2013-07-11 17:04:00,72.9,71.1,29.94,SW,229,0.0,0.0,94,0.13,,---,0.19,VWS V14.01,2013-07-11 21:04:00,
2013-07-11 17:05:00,72.9,71.1,29.94,West,264,0.0,0.0,94,0.13,,---,0.19,VWS V14.01,2013-07-11 21:05:00,
2013-07-11 17:06:00,72.9,71.1,29.94,SW,236,2.0,2.0,94,0.13,,---,0.19,VWS V14.01,2013-07-11 21:06:00,
2013-07-11 17:07:00,72.9,71.1,29.94,WNW,284,2.0,2.0,94,0.13,,---,0.19,VWS V14.01,2013-07-11 21:07:00,
2013-07-11 17:08:00,72.8,71.0,29.94,West,269,1.0,2.0,94,0.13,,---,0.19,VWS V14.01,2013-07-11 21:08:00,
2013-07-11 17:09:00,72.8,71.0,29.94,WNW,284,0.0,2.0,94,0.13,,---,0.19,VWS V14.01,2013-07-11 21:09:00,
2013-07-11 17:10:00,72.8,71.0,29.94,WNW,284,0.0,1.0,94,0.14,,---,0.20,VWS V14.01,2013-07-11 21:10:00,
2013-07-11 17:11:00,72.8,71.0,29.94,SW,228,1.0,1.0,94,0.13,,---,0.20,VWS V14.01,2013-07-11 21:11:00,
2013-07-11 17:12:00,72.8,71.0,29.94,SW,217,1.0,1.0,94,0.13,,---,0.20,VWS V14.01,2013-07-11 21:12:00,
2013-07-11 17:13:00,72.8,71.0,29.94,SW,217,0.0,1.0,94,0.13,,---,0.20,VWS V14.01,2013-07-11 21:13:00,
2013-07-11 17:14:00,72.8,71.0,29.94,SW,223,0.0,2.0,94,0.13,,---,0.20,VWS V14.01,2013-07-11 21:14:00,
2013-07-11 17:15:00,72.8,71.0,29.94,SSW,200,0.0,0.0,94,0.12,,---,0.20,VWS V14.01,2013-07-11 21:15:00,
2013-07-11 17:16:00,72.8,71.0,29.94,SW,232,1.0,2.0,94,0.12,,---,0.20,VWS V14.01,2013-07-11 21:16:00,
2013-07-11 17:17:00,72.8,71.0,29.94,South,175,1.0,1.0,94,0.12,,---,0.20,VWS V14.01,2013-07-11 21:17:00,
2013-07-11 17:18:00,72.8,71.0,29.94,SSE,157,1.0,2.0,94,0.12,,---,0.20,VWS V14.01,2013-07-11 21:18:00,
2013-07-11 17:19:00,72.8,71.0,29.94,SSE,157,0.0,1.0,94,0.11,,---,0.20,VWS V14.01,2013-07-11 21:19:00,
2013-07-11 17:20:00,72.9,71.1,29.94,SSE,163,2.0,3.0,94,0.12,,---,0.21,VWS V14.01,2013-07-11 21:20:00,
2013-07-11 17:21:00,72.9,71.1,29.94,SE,143,1.0,2.0,94,0.12,,---,0.21,VWS V14.01,2013-07-11 21:21:00,
2013-07-11 17:22:00,72.9,71.1,29.94,SSE,159,1.0,4.0,94,0.11,,---,0.21,VWS V14.01,2013-07-11 21:22:00,
2013-07-11 17:23:00,72.9,71.1,29.94,SSE,165,1.0,3.0,94,0.11,,---,0.21,VWS V14.01,2013-07-11 21:23:00,
2013-07-11 17:24:00,72.9,71.1,29.94,South,169,0.0,1.0,94,0.10,,---,0.21,VWS V14.01,2013-07-11 21:24:00,
2013-07-11 17:25:00,72.9,71.1,29.94,SE,141,1.0,1.0,94,0.10,,---,0.21,VWS V14.01,2013-07-11 21:25:00,
2013-07-11 17:26:00,72.9,71.1,29.94,ESE,109,2.0,3.0,94,0.10,,---,0.21,VWS V14.01,2013-07-11 21:26:00,
2013-07-11 17:27:00,72.8,71.0,29.94,SSE,168,3.0,3.0,94,0.09,,---,0.21,VWS V14.01,2013-07-11 21:27:00,
2013-07-11 17:28:00,72.8,71.0,29.94,SSE,164,2.0,2.0,94,0.09,,---,0.21,VWS V14.01,2013-07-11 21:28:00,
2013-07-11 17:29:00,72.8,71.0,29.94,SE,136,1.0,3.0,94,0.09,,---,0.21,VWS V14.01,2013-07-11 21:29:00,
2013-07-11 17:30:00,72.8,71.0,29.94,ESE,119,3.0,3.0,94,0.08,,---,0.21,VWS V14.01,2013-07-11 21:30:00,
2013-07-11 17:31:00,72.7,70.9,29.94,SE,142,2.0,3.0,94,0.08,,---,0.21,VWS V14.01,2013-07-11 21:31:00,
2013-07-11 17:32:00,72.7,70.9,29.94,SSW,199,4.0,4.0,94,0.08,,---,0.21,VWS V14.01,2013-07-11 21:32:00,
2013-07-11 17:33:00,72.7,70.9,29.94,South,184,0.0,0.0,94,0.07,,---,0.21,VWS V14.01,2013-07-11 21:33:00,
2013-07-11 17:34:00,72.7,70.9,29.94,SE,146,1.0,3.0,94,0.07,,---,0.21,VWS V14.01,2013-07-11 21:34:00,
2013-07-11 17:35:00,72.7,70.9,29.94,South,173,2.0,2.0,94,0.07,,---,0.21,VWS V14.01,2013-07-11 21:35:00,
2013-07-11 17:36:00,72.6,70.8,29.94,SSE,165,1.0,2.0,94,0.07,,---,0.21,VWS V14.01,2013-07-11 21:36:00,
2013-07-11 17:37:00,72.7,70.9,29.94,SSE,163,2.0,3.0,94,0.06,,---,0.21,VWS V14.01,2013-07-11 21:37:00,
2013-07-11 17:38:00,72.6,71.1,29.94,SE,137,2.0,2.0,95,0.06,,---,0.21,VWS V14.01,2013-07-11 21:38:00,
2013-07-11 17:39:00,72.6,70.8,29.94,SSE,155,2.0,2.0,94,0.06,,---,0.21,VWS V14.01,2013-07-11 21:39:00,
2013-07-11 17:40:00,72.6,71.1,29.94,SSE,159,1.0,2.0,95,0.06,,---,0.21,VWS V14.01,2013-07-11 21:40:00,
2013-07-11 17:41:00,72.6,71.1,29.94,SSE,159,1.0,1.0,95,0.06,,---,0.21,VWS V14.01,2013-07-11 21:41:00,
2013-07-11 17:42:00,72.6,71.1,29.94,East,100,2.0,2.0,95,0.06,,---,0.21,VWS V14.01,2013-07-11 21:42:00,
2013-07-11 17:43:00,72.6,71.1,29.94,East,100,0.0,2.0,95,0.06,,---,0.21,VWS V14.01,2013-07-11 21:43:00,
2013-07-11 17:44:00,72.6,71.1,29.93,East,101,0.0,1.0,95,0.06,,---,0.21,VWS V14.01,2013-07-11 21:44:00,
2013-07-11 17:45:00,72.6,71.1,29.93,SW,218,2.0,2.0,95,0.06,,---,0.21,VWS V14.01,2013-07-11 21:45:00,
2013-07-11 17:46:00,72.6,71.1,29.93,ESE,123,1.0,2.0,95,0.06,,---,0.21,VWS V14.01,2013-07-11 21:46:00,
2013-07-11 17:47:00,72.6,71.1,29.93,ESE,123,0.0,1.0,95,0.06,,---,0.21,VWS V14.01,2013-07-11 21:47:00,
2013-07-11 17:48:00,72.6,71.1,29.93,ESE,122,0.0,0.0,95,0.05,,---,0.21,VWS V14.01,2013-07-11 21:48:00,
2013-07-11 17:49:00,72.6,71.1,29.93,ESE,122,0.0,0.0,95,0.05,,---,0.21,VWS V14.01,2013-07-11 21:49:00,
2013-07-11 17:50:00,72.6,71.1,29.93,ESE,123,1.0,1.0,95,0.05,,---,0.21,VWS V14.01,2013-07-11 21:50:00,
2013-07-11 17:51:00,72.6,71.1,29.93,ESE,122,1.0,1.0,95,0.05,,---,0.21,VWS V14.01,2013-07-11 21:51:00,
2013-07-11 17:52:00,72.6,71.1,29.93,East,96,2.0,2.0,95,0.04,,---,0.21,VWS V14.01,2013-07-11 21:52:00,
2013-07-11 17:53:00,72.6,71.1,29.92,NE,48,0.0,1.0,95,0.04,,---,0.21,VWS V14.01,2013-07-11 21:53:00,
2013-07-11 17:54:00,72.5,71.0,29.92,ESE,108,1.0,1.0,95,0.04,,---,0.21,VWS V14.01,2013-07-11 21:54:00,
2013-07-11 17:55:00,72.5,71.0,29.92,East,87,2.0,2.0,95,0.04,,---,0.21,VWS V14.01,2013-07-11 21:55:00,
2013-07-11 17:56:00,72.5,71.0,29.92,East,86,1.0,2.0,95,0.03,,---,0.21,VWS V14.01,2013-07-11 21:56:00,
2013-07-11 17:57:00,72.5,71.0,29.92,East,86,1.0,1.0,95,0.03,,---,0.21,VWS V14.01,2013-07-11 21:57:00,
2013-07-11 17:58:00,72.5,71.0,29.92,East,86,0.0,0.0,95,0.02,,---,0.21,VWS V14.01,2013-07-11 21:58:00,
2013-07-11 17:59:00,72.5,71.0,29.92,East,86,0.0,0.0,95,0.02,,---,0.21,VWS V14.01,2013-07-11 21:59:00,
2013-07-11 18:00:00,72.6,71.1,29.92,East,86,0.0,0.0,95,0.02,,---,0.21,VWS V14.01,2013-07-11 22:00:00,
2013-07-11 18:01:00,72.6,71.1,29.92,East,86,0.0,0.0,95,0.02,,---,0.21,VWS V14.01,2013-07-11 22:01:00,
2013-07-11 18:02:00,72.6,71.1,29.92,East,86,0.0,0.0,95,0.02,,---,0.21,VWS V14.01,2013-07-11 22:02:00,
2013-07-11 18:03:00,72.6,71.1,29.93,East,86,0.0,0.0,95,0.02,,---,0.21,VWS V14.01,2013-07-11 22:03:00,
2013-07-11 18:04:00,72.6,71.1,29.93,East,86,0.0,0.0,95,0.02,,---,0.21,VWS V14.01,2013-07-11 22:04:00,
2013-07-11 18:05:00,72.6,71.1,29.93,East,86,0.0,0.0,95,0.02,,---,0.21,VWS V14.01,2013-07-11 22:05:00,
2013-07-11 18:06:00,72.6,71.1,29.93,East,86,0.0,0.0,95,0.02,,---,0.21,VWS V14.01,2013-07-11 22:06:00,
2013-07-11 18:07:00,72.6,71.1,29.92,East,86,0.0,0.0,95,0.02,,---,0.21,VWS V14.01,2013-07-11 22:07:00,
2013-07-11 18:08:00,72.6,71.1,29.93,East,86,0.0,0.0,95,0.02,,---,0.21,VWS V14.01,2013-07-11 22:08:00,
2013-07-11 18:09:00,72.6,71.1,29.93,East,86,0.0,0.0,95,0.02,,---,0.21,VWS V14.01,2013-07-11 22:09:00,
2013-07-11 18:10:00,72.6,71.1,29.93,East,86,0.0,0.0,95,0.02,,---,0.21,VWS V14.01,2013-07-11 22:10:00,
2013-07-11 18:11:00,72.6,71.1,29.93,East,86,0.0,0.0,95,0.01,,---,0.21,VWS V14.01,2013-07-11 22:11:00,
2013-07-11 18:12:00,72.7,71.2,29.93,East,86,0.0,0.0,95,0.01,,---,0.21,VWS V14.01,2013-07-11 22:12:00,
2013-07-11 18:13:00,72.7,71.2,29.93,East,86,0.0,0.0,95,0.01,,---,0.21,VWS V14.01,2013-07-11 22:13:00,
2013-07-11 18:14:00,72.7,71.2,29.92,East,86,0.0,0.0,95,0.01,,---,0.21,VWS V14.01,2013-07-11 22:14:00,
2013-07-11 18:15:00,72.6,71.1,29.92,East,86,0.0,0.0,95,0.01,,---,0.21,VWS V14.01,2013-07-11 22:15:00,
2013-07-11 18:16:00,72.7,71.2,29.92,East,86,0.0,0.0,95,0.01,,---,0.21,VWS V14.01,2013-07-11 22:16:00,
2013-07-11 18:17:00,72.7,71.2,29.92,East,86,0.0,0.0,95,0.01,,---,0.21,VWS V14.01,2013-07-11 22:17:00,
2013-07-11 18:18:00,72.6,71.1,29.92,East,90,0.0,0.0,95,0.01,,---,0.21,VWS V14.01,2013-07-11 22:18:00,
2013-07-11 18:19:00,72.6,71.1,29.92,East,90,0.0,0.0,95,0.01,,---,0.21,VWS V14.01,2013-07-11 22:19:00,
2013-07-11 18:20:00,72.6,71.1,29.92,East,90,0.0,0.0,95,0.01,,---,0.21,VWS V14.01,2013-07-11 22:20:00,
2013-07-11 18:21:00,72.7,71.2,29.92,East,90,0.0,0.0,95,0.00,,---,0.21,VWS V14.01,2013-07-11 22:21:00,
2013-07-11 18:22:00,72.7,71.2,29.92,East,90,0.0,0.0,95,0.00,,---,0.21,VWS V14.01,2013-07-11 22:22:00,
2013-07-11 18:23:00,72.7,71.2,29.93,SSE,149,0.0,0.0,95,0.00,,---,0.21,VWS V14.01,2013-07-11 22:23:00,
2013-07-11 18:24:00,72.7,71.2,29.93,SSE,150,0.0,0.0,95,0.00,,---,0.21,VWS V14.01,2013-07-11 22:24:00,
2013-07-11 18:25:00,72.8,71.3,29.93,SE,140,0.0,0.0,95,0.01,,---,0.22,VWS V14.01,2013-07-11 22:25:00,
2013-07-11 18:26:00,72.8,71.3,29.93,SE,140,0.0,0.0,95,0.01,,---,0.22,VWS V14.01,2013-07-11 22:26:00,
2013-07-11 18:27:00,72.8,71.3,29.93,SE,140,0.0,0.0,95,0.01,,---,0.22,VWS V14.01,2013-07-11 22:27:00,
2013-07-11 18:28:00,72.7,71.2,29.93,SE,140,0.0,0.0,95,0.01,,---,0.22,VWS V14.01,2013-07-11 22:28:00,
2013-07-11 18:29:00,72.8,71.3,29.93,SE,140,0.0,0.0,95,0.01,,---,0.22,VWS V14.01,2013-07-11 22:29:00,
2013-07-11 18:30:00,72.8,71.3,29.93,SE,140,0.0,0.0,95,0.01,,---,0.22,VWS V14.01,2013-07-11 22:30:00,
2013-07-11 18:31:00,72.8,71.3,29.93,SE,140,0.0,0.0,95,0.01,,---,0.22,VWS V14.01,2013-07-11 22:31:00,
2013-07-11 18:32:00,72.8,71.3,29.93,SE,140,0.0,0.0,95,0.01,,---,0.22,VWS V14.01,2013-07-11 22:32:00,
2013-07-11 18:33:00,72.8,71.3,29.93,SE,140,0.0,0.0,95,0.01,,---,0.22,VWS V14.01,2013-07-11 22:33:00,
2013-07-11 18:34:00,72.8,71.3,29.93,SSW,209,0.0,0.0,95,0.01,,---,0.22,VWS V14.01,2013-07-11 22:34:00,
2013-07-11 18:35:00,72.8,71.3,29.93,SSW,209,0.0,0.0,95,0.01,,---,0.22,VWS V14.01,2013-07-11 22:35:00,
2013-07-11 18:36:00,72.9,71.4,29.93,SSW,208,0.0,0.0,95,0.01,,---,0.22,VWS V14.01,2013-07-11 22:36:00,
2013-07-11 18:37:00,72.9,71.4,29.93,SSW,209,0.0,0.0,95,0.02,,---,0.23,VWS V14.01,2013-07-11 22:37:00,
2013-07-11 18:38:00,72.9,71.4,29.93,SSW,207,0.0,0.0,95,0.02,,---,0.23,VWS V14.01,2013-07-11 22:38:00,
2013-07-11 18:39:00,72.9,71.4,29.93,SW,232,0.0,0.0,95,0.02,,---,0.23,VWS V14.01,2013-07-11 22:39:00,
2013-07-11 18:40:00,72.9,71.4,29.93,SSE,159,1.0,2.0,95,0.03,,---,0.24,VWS V14.01,2013-07-11 22:40:00,
2013-07-11 18:41:00,72.9,71.4,29.93,SSE,159,0.0,1.0,95,0.03,,---,0.24,VWS V14.01,2013-07-11 22:41:00,
2013-07-11 18:42:00,72.9,71.4,29.93,SSE,159,0.0,0.0,95,0.03,,---,0.24,VWS V14.01,2013-07-11 22:42:00,
2013-07-11 18:43:00,72.9,71.4,29.93,South,179,0.0,0.0,95,0.04,,---,0.25,VWS V14.01,2013-07-11 22:43:00,
2013-07-11 18:44:00,72.9,71.4,29.93,South,179,0.0,0.0,95,0.04,,---,0.25,VWS V14.01,2013-07-11 22:44:00,
2013-07-11 18:45:00,72.9,71.4,29.93,SW,226,0.0,0.0,95,0.04,,---,0.25,VWS V14.01,2013-07-11 22:45:00,
2013-07-11 18:46:00,72.9,71.4,29.93,SW,226,0.0,0.0,95,0.05,,---,0.26,VWS V14.01,2013-07-11 22:46:00,
2013-07-11 18:47:00,73.0,71.5,29.93,SW,232,0.0,0.0,95,0.05,,---,0.26,VWS V14.01,2013-07-11 22:47:00,
2013-07-11 18:48:00,72.9,71.4,29.93,SW,233,0.0,0.0,95,0.05,,---,0.26,VWS V14.01,2013-07-11 22:48:00,
2013-07-11 18:49:00,72.9,71.4,29.93,West,264,1.0,1.0,95,0.06,,---,0.27,VWS V14.01,2013-07-11 22:49:00,
2013-07-11 18:50:00,72.9,71.4,29.93,West,276,2.0,2.0,95,0.06,,---,0.27,VWS V14.01,2013-07-11 22:50:00,
2013-07-11 18:51:00,72.9,71.4,29.93,WSW,256,1.0,2.0,95,0.07,,---,0.28,VWS V14.01,2013-07-11 22:51:00,
2013-07-11 18:52:00,72.9,71.4,29.93,WSW,256,1.0,1.0,95,0.07,,---,0.28,VWS V14.01,2013-07-11 22:52:00,
2013-07-11 18:53:00,72.9,71.4,29.93,WSW,257,1.0,2.0,95,0.07,,---,0.28,VWS V14.01,2013-07-11 22:53:00,
2013-07-11 18:54:00,72.8,71.3,29.93,WSW,257,0.0,0.0,95,0.07,,---,0.28,VWS V14.01,2013-07-11 22:54:00,
2013-07-11 18:55:00,72.8,71.3,29.93,SSW,209,2.0,2.0,95,0.07,,---,0.28,VWS V14.01,2013-07-11 22:55:00,
2013-07-11 18:56:00,72.8,71.3,29.93,SSW,200,2.0,2.0,95,0.08,,---,0.29,VWS V14.01,2013-07-11 22:56:00,
2013-07-11 18:57:00,72.7,71.2,29.93,SSW,202,2.0,2.0,95,0.08,,---,0.29,VWS V14.01,2013-07-11 22:57:00,
2013-07-11 18:58:00,72.7,71.2,29.93,SW,223,2.0,3.0,95,0.08,,---,0.29,VWS V14.01,2013-07-11 22:58:00,
2013-07-11 18:59:00,72.7,71.2,29.93,SW,222,0.0,2.0,95,0.08,,---,0.29,VWS V14.01,2013-07-11 22:59:00,
2013-07-11 19:00:00,72.7,71.2,29.93,SW,222,0.0,0.0,95,0.09,,---,0.30,VWS V14.01,2013-07-11 23:00:00,
2013-07-11 19:01:00,72.7,71.2,29.93,WSW,240,2.0,2.0,95,0.09,,---,0.30,VWS V14.01,2013-07-11 23:01:00,
2013-07-11 19:02:00,72.6,71.1,29.93,South,172,3.0,4.0,95,0.09,,---,0.30,VWS V14.01,2013-07-11 23:02:00,
2013-07-11 19:03:00,72.6,71.1,29.93,WSW,244,1.0,3.0,95,0.09,,---,0.30,VWS V14.01,2013-07-11 23:03:00,
2013-07-11 19:04:00,72.6,71.1,29.93,SW,227,1.0,1.0,95,0.10,,---,0.31,VWS V14.01,2013-07-11 23:04:00,
2013-07-11 19:05:00,72.6,71.1,29.93,SW,227,0.0,1.0,95,0.10,,---,0.31,VWS V14.01,2013-07-11 23:05:00,
2013-07-11 19:06:00,72.6,71.4,29.94,SW,223,1.0,1.0,96,0.10,,---,0.31,VWS V14.01,2013-07-11 23:06:00,
2013-07-11 19:07:00,72.6,71.4,29.93,SW,218,1.0,2.0,96,0.11,,---,0.32,VWS V14.01,2013-07-11 23:07:00,
2013-07-11 19:08:00,72.6,71.4,29.93,SW,218,0.0,1.0,96,0.11,,---,0.32,VWS V14.01,2013-07-11 23:08:00,
2013-07-11 19:09:00,72.6,71.4,29.93,SW,227,0.0,0.0,96,0.11,,---,0.32,VWS V14.01,2013-07-11 23:09:00,
2013-07-11 19:10:00,72.6,71.4,29.93,SSW,199,0.0,0.0,96,0.11,,---,0.32,VWS V14.01,2013-07-11 23:10:00,
2013-07-11 19:11:00,72.6,71.1,29.93,South,182,2.0,2.0,95,0.12,,---,0.33,VWS V14.01,2013-07-11 23:11:00,
2013-07-11 19:12:00,72.6,71.1,29.94,SSW,211,2.0,2.0,95,0.12,,---,0.33,VWS V14.01,2013-07-11 23:12:00,
2013-07-11 19:13:00,72.6,71.1,29.94,WSW,249,1.0,2.0,95,0.12,,---,0.33,VWS V14.01,2013-07-11 23:13:00,
2013-07-11 19:14:00,72.6,71.4,29.94,West,259,1.0,2.0,96,0.12,,---,0.33,VWS V14.01,2013-07-11 23:14:00,
2013-07-11 19:15:00,72.6,71.4,29.94,West,259,1.0,2.0,96,0.12,,---,0.33,VWS V14.01,2013-07-11 23:15:00,
2013-07-11 19:16:00,72.5,71.0,29.94,West,259,0.0,1.0,95,0.13,,---,0.34,VWS V14.01,2013-07-11 23:16:00,
2013-07-11 19:17:00,72.5,71.0,29.94,SSW,205,1.0,2.0,95,0.13,,---,0.34,VWS V14.01,2013-07-11 23:17:00,
2013-07-11 19:18:00,72.5,71.3,29.94,SW,226,1.0,2.0,96,0.13,,---,0.34,VWS V14.01,2013-07-11 23:18:00,
2013-07-11 19:19:00,72.5,71.0,29.94,South,187,0.0,0.0,95,0.13,,---,0.34,VWS V14.01,2013-07-11 23:19:00,
2013-07-11 19:20:00,72.5,71.0,29.94,South,188,0.0,0.0,95,0.13,,---,0.34,VWS V14.01,2013-07-11 23:20:00,
2013-07-11 19:21:00,72.5,71.3,29.94,South,187,0.0,0.0,96,0.13,,---,0.34,VWS V14.01,2013-07-11 23:21:00,
2013-07-11 19:22:00,72.5,71.3,29.94,South,188,0.0,1.0,96,0.14,,---,0.35,VWS V14.01,2013-07-11 23:22:00,
2013-07-11 19:23:00,72.5,71.3,29.94,SW,222,1.0,1.0,96,0.14,,---,0.35,VWS V14.01,2013-07-11 23:23:00,
2013-07-11 19:24:00,72.5,71.3,29.94,South,188,0.0,1.0,96,0.14,,---,0.35,VWS V14.01,2013-07-11 23:24:00,
2013-07-11 19:25:00,72.5,71.3,29.94,SSE,156,0.0,1.0,96,0.14,,---,0.35,VWS V14.01,2013-07-11 23:25:00,
2013-07-11 19:26:00,72.5,71.3,29.94,SSE,156,0.0,0.0,96,0.13,,---,0.35,VWS V14.01,2013-07-11 23:26:00,
2013-07-11 19:27:00,72.5,71.3,29.94,SSE,156,0.0,0.0,96,0.13,,---,0.35,VWS V14.01,2013-07-11 23:27:00,
2013-07-11 19:28:00,72.5,71.3,29.94,SSE,156,0.0,0.0,96,0.13,,---,0.35,VWS V14.01,2013-07-11 23:28:00,
2013-07-11 19:29:00,72.5,71.3,29.94,SSE,156,0.0,1.0,96,0.13,,---,0.35,VWS V14.01,2013-07-11 23:29:00,
2013-07-11 19:30:00,72.5,71.3,29.94,SSE,156,0.0,1.0,96,0.13,,---,0.35,VWS V14.01,2013-07-11 23:30:00,
2013-07-11 19:31:00,72.5,71.3,29.94,SSE,156,0.0,1.0,96,0.13,,---,0.35,VWS V14.01,2013-07-11 23:31:00,
2013-07-11 19:32:00,72.5,71.3,29.94,SSE,156,1.0,1.0,96,0.13,,---,0.35,VWS V14.01,2013-07-11 23:32:00,
2013-07-11 19:33:00,72.5,71.3,29.94,SW,223,1.0,2.0,96,0.13,,---,0.35,VWS V14.01,2013-07-11 23:33:00,
2013-07-11 19:34:00,72.4,70.9,29.94,SW,223,0.0,0.0,95,0.14,,---,0.36,VWS V14.01,2013-07-11 23:34:00,
2013-07-11 19:35:00,72.4,70.9,29.94,SW,222,0.0,0.0,95,0.14,,---,0.36,VWS V14.01,2013-07-11 23:35:00,
2013-07-11 19:36:00,72.4,71.2,29.94,SW,222,0.0,0.0,96,0.14,,---,0.36,VWS V14.01,2013-07-11 23:36:00,
2013-07-11 19:37:00,72.4,71.2,29.93,SW,222,0.0,0.0,96,0.14,,---,0.36,VWS V14.01,2013-07-11 23:37:00,
2013-07-11 19:38:00,72.4,71.2,29.93,SW,222,0.0,0.0,96,0.13,,---,0.36,VWS V14.01,2013-07-11 23:38:00,
2013-07-11 19:39:00,72.4,71.2,29.93,SW,222,0.0,0.0,96,0.13,,---,0.36,VWS V14.01,2013-07-11 23:39:00,
2013-07-11 19:40:00,72.4,71.2,29.93,SW,222,0.0,0.0,96,0.13,,---,0.36,VWS V14.01,2013-07-11 23:40:00,
2013-07-11 19:41:00,72.4,71.2,29.93,SE,142,1.0,1.0,96,0.12,,---,0.36,VWS V14.01,2013-07-11 23:41:00,
2013-07-11 19:42:00,72.4,71.2,29.93,SE,141,1.0,1.0,96,0.12,,---,0.36,VWS V14.01,2013-07-11 23:42:00,
2013-07-11 19:43:00,72.4,71.2,29.93,SE,141,0.0,1.0,96,0.12,,---,0.36,VWS V14.01,2013-07-11 23:43:00,
2013-07-11 19:44:00,72.4,71.2,29.93,SE,136,1.0,1.0,96,0.11,,---,0.36,VWS V14.01,2013-07-11 23:44:00,
2013-07-11 19:45:00,72.4,71.2,29.93,SE,134,1.0,1.0,96,0.11,,---,0.36,VWS V14.01,2013-07-11 23:45:00,
2013-07-11 19:46:00,72.4,71.2,29.93,SE,134,0.0,1.0,96,0.11,,---,0.36,VWS V14.01,2013-07-11 23:46:00,
2013-07-11 19:47:00,72.4,71.2,29.93,SE,134,0.0,0.0,96,0.10,,---,0.36,VWS V14.01,2013-07-11 23:47:00,
2013-07-11 19:48:00,72.4,71.2,29.93,SE,134,0.0,0.0,96,0.10,,---,0.36,VWS V14.01,2013-07-11 23:48:00,
2013-07-11 19:49:00,72.4,71.2,29.93,SE,134,0.0,0.0,96,0.09,,---,0.36,VWS V14.01,2013-07-11 23:49:00,
2013-07-11 19:50:00,72.4,71.2,29.93,SE,133,0.0,0.0,96,0.09,,---,0.36,VWS V14.01,2013-07-11 23:50:00,
2013-07-11 19:51:00,72.4,71.2,29.93,SE,134,1.0,1.0,96,0.09,,---,0.36,VWS V14.01,2013-07-11 23:51:00,
2013-07-11 19:52:00,72.4,71.2,29.93,SE,133,0.0,1.0,96,0.08,,---,0.36,VWS V14.01,2013-07-11 23:52:00,
2013-07-11 19:53:00,72.4,71.2,29.93,SE,133,1.0,1.0,96,0.08,,---,0.36,VWS V14.01,2013-07-11 23:53:00,
2013-07-11 19:54:00,72.4,71.2,29.93,SE,133,1.0,1.0,96,0.08,,---,0.36,VWS V14.01,2013-07-11 23:54:00,
2013-07-11 19:55:00,72.4,71.2,29.93,ESE,111,1.0,2.0,96,0.08,,---,0.36,VWS V14.01,2013-07-11 23:55:00,
2013-07-11 19:56:00,72.4,71.2,29.93,East,90,2.0,2.0,96,0.08,,---,0.36,VWS V14.01,2013-07-11 23:56:00,
2013-07-11 19:57:00,72.4,71.2,29.92,East,90,2.0,2.0,96,0.07,,---,0.36,VWS V14.01,2013-07-11 23:57:00,
2013-07-11 19:58:00,72.4,71.2,29.92,East,86,2.0,3.0,96,0.07,,---,0.36,VWS V14.01,2013-07-11 23:58:00,
2013-07-11 19:59:00,72.5,71.3,29.92,East,82,2.0,2.0,96,0.07,,---,0.36,VWS V14.01,2013-07-11 23:59:00,
2013-07-11 20:00:00,72.5,71.3,29.92,ENE,71,2.0,2.0,96,0.07,,---,0.36,VWS V14.01,2013-07-12 00:00:00,
2013-07-11 20:01:00,72.5,71.3,29.92,ENE,71,1.0,2.0,96,0.06,,---,0.36,VWS V14.01,2013-07-12 00:01:00,
2013-07-11 20:02:00,72.5,71.3,29.92,ENE,71,1.0,1.0,96,0.06,,---,0.36,VWS V14.01,2013-07-12 00:02:00,
2013-07-11 20:03:00,72.5,71.3,29.92,ENE,76,2.0,2.0,96,0.06,,---,0.36,VWS V14.01,2013-07-12 00:03:00,
2013-07-11 20:04:00,72.5,71.3,29.92,ENE,68,1.0,1.0,96,0.05,,---,0.36,VWS V14.01,2013-07-12 00:04:00,
2013-07-11 20:05:00,72.5,71.3,29.92,ENE,68,1.0,2.0,96,0.05,,---,0.36,VWS V14.01,2013-07-12 00:05:00,
2013-07-11 20:06:00,72.5,71.3,29.92,East,83,2.0,2.0,96,0.05,,---,0.36,VWS V14.01,2013-07-12 00:06:00,
2013-07-11 20:07:00,72.5,71.3,29.92,East,84,1.0,2.0,96,0.05,,---,0.36,VWS V14.01,2013-07-12 00:07:00,
2013-07-11 20:08:00,72.5,71.3,29.92,East,84,1.0,1.0,96,0.04,,---,0.36,VWS V14.01,2013-07-12 00:08:00,
2013-07-11 20:09:00,72.5,71.3,29.92,East,83,1.0,2.0,96,0.04,,---,0.36,VWS V14.01,2013-07-12 00:09:00,
2013-07-11 20:10:00,72.5,71.3,29.92,East,84,2.0,2.0,96,0.04,,---,0.36,VWS V14.01,2013-07-12 00:10:00,
2013-07-11 20:11:00,72.4,71.2,29.92,East,84,2.0,3.0,96,0.04,,---,0.36,VWS V14.01,2013-07-12 00:11:00,
2013-07-11 20:12:00,72.4,71.2,29.92,East,98,3.0,3.0,96,0.03,,---,0.36,VWS V14.01,2013-07-12 00:12:00,
2013-07-11 20:13:00,72.4,71.2,29.92,East,86,2.0,3.0,96,0.03,,---,0.36,VWS V14.01,2013-07-12 00:13:00,
2013-07-11 20:14:00,72.4,71.2,29.92,East,87,2.0,2.0,96,0.03,,---,0.36,VWS V14.01,2013-07-12 00:14:00,
2013-07-11 20:15:00,72.4,71.2,29.92,East,87,2.0,2.0,96,0.03,,---,0.36,VWS V14.01,2013-07-12 00:15:00,
2013-07-11 20:16:00,72.4,71.2,29.92,East,87,2.0,2.0,96,0.03,,---,0.36,VWS V14.01,2013-07-12 00:16:00,
2013-07-11 20:17:00,72.4,71.2,29.92,East,86,3.0,3.0,96,0.02,,---,0.36,VWS V14.01,2013-07-12 00:17:00,
2013-07-11 20:18:00,72.4,71.2,29.92,East,80,2.0,3.0,96,0.02,,---,0.36,VWS V14.01,2013-07-12 00:18:00,
2013-07-11 20:19:00,72.4,71.2,29.92,East,90,3.0,3.0,96,0.02,,---,0.36,VWS V14.01,2013-07-12 00:19:00,
2013-07-11 20:20:00,72.4,71.2,29.91,East,94,3.0,5.0,96,0.02,,---,0.36,VWS V14.01,2013-07-12 00:20:00,
2013-07-11 20:21:00,72.4,71.2,29.91,East,84,3.0,5.0,96,0.02,,---,0.36,VWS V14.01,2013-07-12 00:21:00,
2013-07-11 20:22:00,72.4,71.2,29.91,East,96,2.0,5.0,96,0.02,,---,0.36,VWS V14.01,2013-07-12 00:22:00,
2013-07-11 20:23:00,72.4,71.2,29.91,East,89,3.0,3.0,96,0.01,,---,0.36,VWS V14.01,2013-07-12 00:23:00,
2013-07-11 20:24:00,72.4,71.2,29.91,East,85,3.0,3.0,96,0.01,,---,0.36,VWS V14.01,2013-07-12 00:24:00,
2013-07-11 20:25:00,72.4,71.2,29.91,ESE,102,3.0,3.0,96,0.01,,---,0.36,VWS V14.01,2013-07-12 00:25:00,
2013-07-11 20:26:00,72.4,71.2,29.91,East,92,6.0,6.0,96,0.01,,---,0.36,VWS V14.01,2013-07-12 00:26:00,
2013-07-11 20:27:00,72.4,71.2,29.91,ESE,106,3.0,6.0,96,0.01,,---,0.36,VWS V14.01,2013-07-12 00:27:00,
2013-07-11 20:28:00,72.4,71.2,29.91,East,89,2.0,5.0,96,0.01,,---,0.36,VWS V14.01,2013-07-12 00:28:00,
2013-07-11 20:29:00,72.4,71.2,29.91,East,82,2.0,2.0,96,0.01,,---,0.36,VWS V14.01,2013-07-12 00:29:00,
2013-07-11 20:30:00,72.4,71.2,29.91,East,88,2.0,3.0,96,0.01,,---,0.36,VWS V14.01,2013-07-12 00:30:00,
2013-07-11 20:31:00,72.4,71.2,29.91,East,82,2.0,2.0,96,0.01,,---,0.36,VWS V14.01,2013-07-12 00:31:00,
2013-07-11 20:32:00,72.4,71.2,29.91,East,82,2.0,2.0,96,0.01,,---,0.36,VWS V14.01,2013-07-12 00:32:00,
2013-07-11 20:33:00,72.4,71.2,29.91,East,80,2.0,2.0,96,0.01,,---,0.36,VWS V14.01,2013-07-12 00:33:00,
2013-07-11 20:34:00,72.4,71.2,29.91,East,86,1.0,3.0,96,0.01,,---,0.36,VWS V14.01,2013-07-12 00:34:00,
2013-07-11 20:35:00,72.4,71.2,29.91,East,86,2.0,2.0,96,0.00,,---,0.36,VWS V14.01,2013-07-12 00:35:00,
2013-07-11 20:36:00,72.4,71.2,29.91,East,86,2.0,2.0,96,0.00,,---,0.36,VWS V14.01,2013-07-12 00:36:00,
2013-07-11 20:37:00,72.4,71.2,29.91,ENE,71,2.0,3.0,96,0.00,,---,0.36,VWS V14.01,2013-07-12 00:37:00,
2013-07-11 20:38:00,72.4,71.2,29.91,ENE,71,2.0,2.0,96,0.00,,---,0.36,VWS V14.01,2013-07-12 00:38:00,
2013-07-11 20:39:00,72.3,71.1,29.91,ENE,76,3.0,3.0,96,0.00,,---,0.36,VWS V14.01,2013-07-12 00:39:00,
2013-07-11 20:40:00,72.3,71.1,29.91,ENE,76,2.0,3.0,96,0.00,,---,0.36,VWS V14.01,2013-07-12 00:40:00,
2013-07-11 20:41:00,72.3,71.1,29.91,ENE,76,2.0,2.0,96,0.00,,---,0.36,VWS V14.01,2013-07-12 00:41:00,
2013-07-11 20:42:00,72.3,71.1,29.92,ENE,76,2.0,2.0,96,0.00,,---,0.36,VWS V14.01,2013-07-12 00:42:00,
2013-07-11 20:43:00,72.3,71.1,29.91,ENE,75,1.0,2.0,96,0.00,,---,0.36,VWS V14.01,2013-07-12 00:43:00,
2013-07-11 20:44:00,72.3,71.1,29.92,ENE,76,0.0,1.0,96,0.00,,---,0.36,VWS V14.01,2013-07-12 00:44:00,
2013-07-11 20:45:00,72.3,71.1,29.92,ENE,76,1.0,1.0,96,0.00,,---,0.36,VWS V14.01,2013-07-12 00:45:00,
2013-07-11 20:46:00,72.3,71.1,29.92,ENE,76,0.0,1.0,96,0.00,,---,0.36,VWS V14.01,2013-07-12 00:46:00,
2013-07-11 20:47:00,72.3,71.1,29.92,ENE,76,1.0,1.0,96,0.00,,---,0.36,VWS V14.01,2013-07-12 00:47:00,
2013-07-11 20:48:00,72.3,71.1,29.92,ENE,78,1.0,2.0,96,0.00,,---,0.36,VWS V14.01,2013-07-12 00:48:00,
2013-07-11 20:49:00,72.3,71.1,29.92,ESE,103,1.0,1.0,96,0.00,,---,0.36,VWS V14.01,2013-07-12 00:49:00,
2013-07-11 20:50:00,72.3,71.1,29.92,East,91,2.0,2.0,96,0.00,,---,0.36,VWS V14.01,2013-07-12 00:50:00,
2013-07-11 20:51:00,72.3,71.1,29.92,ESE,104,4.0,4.0,96,0.00,,---,0.36,VWS V14.01,2013-07-12 00:51:00,
2013-07-11 20:52:00,72.3,71.1,29.92,ESE,105,2.0,4.0,96,0.00,,---,0.36,VWS V14.01,2013-07-12 00:52:00,
2013-07-11 20:53:00,72.3,71.1,29.92,SE,128,1.0,2.0,96,0.00,,---,0.36,VWS V14.01,2013-07-12 00:53:00,
2013-07-11 20:54:00,72.3,71.1,29.92,SE,128,2.0,2.0,96,0.00,,---,0.36,VWS V14.01,2013-07-12 00:54:00,
2013-07-11 20:55:00,72.3,71.1,29.92,SE,128,1.0,1.0,96,0.00,,---,0.36,VWS V14.01,2013-07-12 00:55:00,
2013-07-11 20:56:00,72.3,71.1,29.92,SE,128,1.0,1.0,96,0.00,,---,0.36,VWS V14.01,2013-07-12 00:56:00,
2013-07-11 20:57:00,72.2,71.0,29.92,ESE,118,1.0,2.0,96,0.00,,---,0.36,VWS V14.01,2013-07-12 00:57:00,
2013-07-11 20:58:00,72.2,71.0,29.92,ESE,111,1.0,2.0,96,0.00,,---,0.36,VWS V14.01,2013-07-12 00:58:00,
2013-07-11 20:59:00,72.2,71.0,29.92,ESE,123,2.0,2.0,96,0.00,,---,0.36,VWS V14.01,2013-07-12 00:59:00,
2013-07-11 21:00:00,72.2,71.0,29.92,ESE,109,2.0,2.0,96,0.00,,---,0.36,VWS V14.01,2013-07-12 01:00:00,
2013-07-11 21:01:00,72.2,71.0,29.92,ESE,103,4.0,4.0,96,0.00,,---,0.36,VWS V14.01,2013-07-12 01:01:00,
2013-07-11 21:02:00,72.2,71.0,29.92,ESE,110,1.0,4.0,96,0.00,,---,0.36,VWS V14.01,2013-07-12 01:02:00,
2013-07-11 21:03:00,72.2,71.0,29.92,East,90,1.0,2.0,96,0.00,,---,0.36,VWS V14.01,2013-07-12 01:03:00,
2013-07-11 21:04:00,72.2,71.0,29.92,SE,144,1.0,2.0,96,0.00,,---,0.36,VWS V14.01,2013-07-12 01:04:00,
2013-07-11 21:05:00,72.1,70.9,29.92,SSE,153,0.0,1.0,96,0.00,,---,0.36,VWS V14.01,2013-07-12 01:05:00,
2013-07-11 21:06:00,72.1,70.9,29.92,ESE,119,1.0,3.0,96,0.00,,---,0.36,VWS V14.01,2013-07-12 01:06:00,
2013-07-11 21:07:00,72.1,70.9,29.92,ESE,109,1.0,2.0,96,0.00,,---,0.36,VWS V14.01,2013-07-12 01:07:00,
2013-07-11 21:08:00,72.1,70.9,29.92,ESE,106,0.0,2.0,96,0.00,,---,0.36,VWS V14.01,2013-07-12 01:08:00,
2013-07-11 21:09:00,72.1,70.9,29.92,SSE,157,2.0,2.0,96,0.00,,---,0.36,VWS V14.01,2013-07-12 01:09:00,
2013-07-11 21:10:00,72.1,70.9,29.92,ESE,111,0.0,0.0,96,0.00,,---,0.36,VWS V14.01,2013-07-12 01:10:00,
2013-07-11 21:11:00,72.1,70.9,29.92,South,184,2.0,2.0,96,0.00,,---,0.36,VWS V14.01,2013-07-12 01:11:00,
2013-07-11 21:12:00,72.2,71.0,29.93,South,173,2.0,3.0,96,0.00,,---,0.36,VWS V14.01,2013-07-12 01:12:00,
2013-07-11 21:13:00,72.2,71.0,29.93,South,169,0.0,2.0,96,0.00,,---,0.36,VWS V14.01,2013-07-12 01:13:00,
2013-07-11 21:14:00,72.2,71.0,29.93,SSW,198,4.0,4.0,96,0.00,,---,0.36,VWS V14.01,2013-07-12 01:14:00,
2013-07-11 21:15:00,72.2,71.0,29.93,SSE,150,1.0,1.0,96,0.00,,---,0.36,VWS V14.01,2013-07-12 01:15:00,
2013-07-11 21:16:00,72.2,71.0,29.93,South,190,1.0,3.0,96,0.00,,---,0.36,VWS V14.01,2013-07-12 01:16:00,
2013-07-11 21:17:00,72.2,71.0,29.93,SSE,165,1.0,1.0,96,0.00,,---,0.36,VWS V14.01,2013-07-12 01:17:00,
2013-07-11 21:18:00,72.1,70.9,29.93,SSE,161,1.0,2.0,96,0.00,,---,0.36,VWS V14.01,2013-07-12 01:18:00,
2013-07-11 21:19:00,72.2,71.0,29.93,SSE,162,0.0,1.0,96,0.00,,---,0.36,VWS V14.01,2013-07-12 01:19:00,
2013-07-11 21:20:00,72.2,71.0,29.93,SSE,162,0.0,0.0,96,0.00,,---,0.36,VWS V14.01,2013-07-12 01:20:00,
2013-07-11 21:21:00,72.1,70.9,29.93,SSE,161,0.0,0.0,96,0.00,,---,0.36,VWS V14.01,2013-07-12 01:21:00,
2013-07-11 21:22:00,72.2,71.0,29.93,SSE,161,0.0,0.0,96,0.00,,---,0.36,VWS V14.01,2013-07-12 01:22:00,
2013-07-11 21:23:00,72.2,71.0,29.93,SSE,162,0.0,0.0,96,0.00,,---,0.36,VWS V14.01,2013-07-12 01:23:00,
2013-07-11 21:24:00,72.2,71.0,29.93,SE,138,0.0,0.0,96,0.00,,---,0.36,VWS V14.01,2013-07-12 01:24:00,
2013-07-11 21:25:00,72.2,71.0,29.93,SSE,161,0.0,0.0,96,0.00,,---,0.36,VWS V14.01,2013-07-12 01:25:00,
2013-07-11 21:27:00,72.2,71.0,29.93,ESE,109,0.0,2.0,96,0.00,,---,0.36,VWS V14.01,2013-07-12 01:27:00,
2013-07-11 21:28:00,72.2,71.0,29.93,ENE,78,1.0,2.0,96,0.00,,---,0.36,VWS V14.01,2013-07-12 01:28:00,
2013-07-11 21:29:00,72.2,71.0,29.93,SE,124,1.0,3.0,96,0.00,,---,0.36,VWS V14.01,2013-07-12 01:29:00,
2013-07-11 21:30:00,72.2,71.0,29.93,ESE,123,1.0,1.0,96,0.00,,---,0.36,VWS V14.01,2013-07-12 01:30:00,
2013-07-11 21:31:00,72.2,71.0,29.93,SE,134,1.0,1.0,96,0.00,,---,0.36,VWS V14.01,2013-07-12 01:31:00,
2013-07-11 21:34:00,72.2,71.0,29.93,ESE,109,3.0,3.0,96,0.00,,---,0.36,VWS V14.01,2013-07-12 01:34:00,
2013-07-11 21:35:00,72.2,71.0,29.93,SE,128,1.0,1.0,96,0.00,,---,0.36,VWS V14.01,2013-07-12 01:35:00,
2013-07-11 21:36:00,72.2,71.0,29.93,SSE,155,3.0,3.0,96,0.00,,---,0.36,VWS V14.01,2013-07-12 01:36:00,
2013-07-11 21:37:00,72.2,71.0,29.94,SSE,150,1.0,4.0,96,0.00,,---,0.36,VWS V14.01,2013-07-12 01:37:00,
2013-07-11 21:39:00,72.2,71.0,29.93,SE,137,1.0,2.0,96,0.00,,---,0.36,VWS V14.01,2013-07-12 01:39:00,
2013-07-11 21:40:00,72.2,71.0,29.94,SSE,150,0.0,0.0,96,0.00,,---,0.36,VWS V14.01,2013-07-12 01:40:00,
2013-07-11 21:41:00,72.2,71.0,29.94,SE,136,1.0,2.0,96,0.00,,---,0.36,VWS V14.01,2013-07-12 01:41:00,
2013-07-11 21:42:00,72.2,71.0,29.94,ESE,113,1.0,2.0,96,0.00,,---,0.36,VWS V14.01,2013-07-12 01:42:00,
2013-07-11 21:43:00,72.2,71.0,29.94,ESE,123,2.0,4.0,96,0.00,,---,0.36,VWS V14.01,2013-07-12 01:43:00,
2013-07-11 21:44:00,72.2,71.0,29.94,SE,134,0.0,3.0,96,0.00,,---,0.36,VWS V14.01,2013-07-12 01:44:00,
2013-07-11 21:45:00,72.2,71.0,29.94,ESE,104,2.0,3.0,96,0.00,,---,0.36,VWS V14.01,2013-07-12 01:45:00,
2013-07-11 21:46:00,72.2,71.0,29.94,SSE,153,2.0,3.0,96,0.00,,---,0.36,VWS V14.01,2013-07-12 01:46:00,
2013-07-11 21:47:00,72.2,71.0,29.94,SSE,156,2.0,2.0,96,0.00,,---,0.36,VWS V14.01,2013-07-12 01:47:00,
2013-07-11 21:48:00,72.2,71.0,29.94,SSE,150,1.0,3.0,96,0.00,,---,0.36,VWS V14.01,2013-07-12 01:48:00,
2013-07-11 21:49:00,72.2,71.0,29.94,SE,125,0.0,3.0,96,0.00,,---,0.36,VWS V14.01,2013-07-12 01:49:00,
2013-07-11 21:50:00,72.3,71.4,29.94,ESE,121,1.0,2.0,97,0.00,,---,0.36,VWS V14.01,2013-07-12 01:50:00,
2013-07-11 21:51:00,72.3,71.4,29.94,SE,137,2.0,2.0,97,0.00,,---,0.36,VWS V14.01,2013-07-12 01:51:00,
2013-07-11 21:52:00,72.3,71.1,29.94,SE,146,2.0,4.0,96,0.00,,---,0.36,VWS V14.01,2013-07-12 01:52:00,
2013-07-11 21:53:00,72.3,71.1,29.94,SE,126,3.0,3.0,96,0.00,,---,0.36,VWS V14.01,2013-07-12 01:53:00,
2013-07-11 21:54:00,72.2,71.0,29.94,SSE,159,2.0,3.0,96,0.00,,---,0.36,VWS V14.01,2013-07-12 01:54:00,
2013-07-11 21:55:00,72.2,71.0,29.94,SE,141,1.0,2.0,96,0.00,,---,0.36,VWS V14.01,2013-07-12 01:55:00,
2013-07-11 21:56:00,72.2,71.0,29.94,SSE,159,1.0,2.0,96,0.00,,---,0.36,VWS V14.01,2013-07-12 01:56:00,
2013-07-11 21:57:00,72.2,71.0,29.94,South,172,2.0,2.0,96,0.00,,---,0.36,VWS V14.01,2013-07-12 01:57:00,
2013-07-11 21:58:00,72.2,71.0,29.94,ESE,111,2.0,4.0,96,0.00,,---,0.36,VWS V14.01,2013-07-12 01:58:00,
2013-07-11 21:59:00,72.2,71.0,29.94,SE,135,1.0,4.0,96,0.00,,---,0.36,VWS V14.01,2013-07-12 01:59:00,
2013-07-11 22:00:00,72.2,71.0,29.94,SSE,152,1.0,2.0,96,0.00,,---,0.36,VWS V14.01,2013-07-12 02:00:00,
2013-07-11 22:01:00,72.2,71.0,29.94,ESE,111,2.0,2.0,96,0.00,,---,0.36,VWS V14.01,2013-07-12 02:01:00,
2013-07-11 22:02:00,72.2,71.0,29.94,East,98,2.0,5.0,96,0.00,,---,0.36,VWS V14.01,2013-07-12 02:02:00,
2013-07-11 22:03:00,72.2,71.0,29.94,SE,141,0.0,3.0,96,0.00,,---,0.36,VWS V14.01,2013-07-12 02:03:00,
2013-07-11 22:04:00,72.2,71.0,29.94,East,94,1.0,1.0,96,0.00,,---,0.36,VWS V14.01,2013-07-12 02:04:00,
2013-07-11 22:05:00,72.2,71.0,29.94,SE,140,1.0,1.0,96,0.00,,---,0.36,VWS V14.01,2013-07-12 02:05:00,
2013-07-11 22:06:00,72.2,71.0,29.94,SE,146,2.0,2.0,96,0.00,,---,0.36,VWS V14.01,2013-07-12 02:06:00,
2013-07-11 22:07:00,72.2,71.0,29.94,SE,143,2.0,2.0,96,0.00,,---,0.36,VWS V14.01,2013-07-12 02:07:00,
2013-07-11 22:08:00,72.2,71.0,29.94,South,186,0.0,3.0,96,0.00,,---,0.36,VWS V14.01,2013-07-12 02:08:00,
2013-07-11 22:09:00,72.2,71.0,29.95,SE,137,2.0,4.0,96,0.00,,---,0.36,VWS V14.01,2013-07-12 02:09:00,
2013-07-11 22:10:00,72.2,71.0,29.95,SE,142,2.0,3.0,96,0.00,,---,0.36,VWS V14.01,2013-07-12 02:10:00,
2013-07-11 22:11:00,72.2,71.0,29.95,SSE,150,1.0,3.0,96,0.00,,---,0.36,VWS V14.01,2013-07-12 02:11:00,
2013-07-11 22:12:00,72.2,71.0,29.95,SSE,159,0.0,1.0,96,0.00,,---,0.36,VWS V14.01,2013-07-12 02:12:00,
2013-07-11 22:13:00,72.2,71.0,29.95,South,179,0.0,3.0,96,0.00,,---,0.36,VWS V14.01,2013-07-12 02:13:00,
2013-07-11 22:14:00,72.2,71.0,29.95,SE,133,2.0,4.0,96,0.00,,---,0.36,VWS V14.01,2013-07-12 02:14:00,
2013-07-11 22:15:00,72.2,71.0,29.95,SW,214,0.0,2.0,96,0.00,,---,0.36,VWS V14.01,2013-07-12 02:15:00,
2013-07-11 22:16:00,72.2,71.0,29.95,SSE,152,4.0,4.0,96,0.00,,---,0.36,VWS V14.01,2013-07-12 02:16:00,
2013-07-11 22:17:00,72.2,71.0,29.95,SE,141,2.0,4.0,96,0.00,,---,0.36,VWS V14.01,2013-07-12 02:17:00,
2013-07-11 22:18:00,72.2,71.0,29.95,SSE,152,2.0,2.0,96,0.00,,---,0.36,VWS V14.01,2013-07-12 02:18:00,
2013-07-11 22:19:00,72.2,71.0,29.95,SSE,150,0.0,2.0,96,0.00,,---,0.36,VWS V14.01,2013-07-12 02:19:00,
2013-07-11 22:20:00,72.2,71.0,29.95,South,172,1.0,1.0,96,0.00,,---,0.36,VWS V14.01,2013-07-12 02:20:00,
2013-07-11 22:21:00,72.2,71.0,29.95,SSE,161,1.0,1.0,96,0.00,,---,0.36,VWS V14.01,2013-07-12 02:21:00,
2013-07-11 22:22:00,72.2,71.0,29.95,SE,146,1.0,1.0,96,0.00,,---,0.36,VWS V14.01,2013-07-12 02:22:00,
2013-07-11 22:23:00,72.1,70.9,29.95,SSE,155,1.0,1.0,96,0.00,,---,0.36,VWS V14.01,2013-07-12 02:23:00,
2013-07-11 22:24:00,72.1,70.9,29.95,SE,146,1.0,1.0,96,0.00,,---,0.36,VWS V14.01,2013-07-12 02:24:00,
2013-07-11 22:25:00,72.1,70.9,29.95,SSW,205,1.0,2.0,96,0.01,,---,0.37,VWS V14.01,2013-07-12 02:25:00,
2013-07-11 22:26:00,72.1,70.9,29.95,SSE,156,1.0,2.0,96,0.01,,---,0.37,VWS V14.01,2013-07-12 02:26:00,
2013-07-11 22:27:00,72.1,70.9,29.94,SSE,156,0.0,0.0,96,0.01,,---,0.37,VWS V14.01,2013-07-12 02:27:00,
2013-07-11 22:28:00,72.1,70.9,29.95,SE,133,2.0,3.0,96,0.01,,---,0.37,VWS V14.01,2013-07-12 02:28:00,
2013-07-11 22:29:00,72.1,70.9,29.94,SE,130,2.0,2.0,96,0.01,,---,0.37,VWS V14.01,2013-07-12 02:29:00,
2013-07-11 22:30:00,72.1,70.9,29.94,SE,138,1.0,2.0,96,0.01,,---,0.37,VWS V14.01,2013-07-12 02:30:00,
2013-07-11 22:31:00,72.1,70.9,29.94,SE,138,0.0,1.0,96,0.01,,---,0.37,VWS V14.01,2013-07-12 02:31:00,
2013-07-11 22:32:00,72.1,70.9,29.94,SSE,157,1.0,2.0,96,0.01,,---,0.37,VWS V14.01,2013-07-12 02:32:00,
2013-07-11 22:33:00,72.1,70.9,29.95,SSE,155,0.0,1.0,96,0.01,,---,0.37,VWS V14.01,2013-07-12 02:33:00,
2013-07-11 22:34:00,72.1,70.9,29.94,SSE,155,0.0,1.0,96,0.01,,---,0.37,VWS V14.01,2013-07-12 02:34:00,
2013-07-11 22:35:00,72.0,70.8,29.94,SSE,159,0.0,0.0,96,0.01,,---,0.37,VWS V14.01,2013-07-12 02:35:00,
2013-07-11 22:36:00,72.0,70.8,29.94,SSE,159,0.0,0.0,96,0.01,,---,0.37,VWS V14.01,2013-07-12 02:36:00,
2013-07-11 22:37:00,72.0,70.8,29.95,SSE,159,0.0,0.0,96,0.01,,---,0.37,VWS V14.01,2013-07-12 02:37:00,
2013-07-11 22:38:00,72.0,71.1,29.95,SSE,159,0.0,0.0,97,0.01,,---,0.37,VWS V14.01,2013-07-12 02:38:00,
2013-07-11 22:39:00,72.0,71.1,29.95,West,271,0.0,1.0,97,0.01,,---,0.37,VWS V14.01,2013-07-12 02:39:00,
2013-07-11 22:40:00,72.0,71.1,29.95,SE,126,0.0,1.0,97,0.01,,---,0.37,VWS V14.01,2013-07-12 02:40:00,
2013-07-11 22:41:00,72.1,70.9,29.95,SE,125,1.0,1.0,96,0.01,,---,0.37,VWS V14.01,2013-07-12 02:41:00,
2013-07-11 22:42:00,72.0,71.1,29.95,SSE,167,1.0,2.0,97,0.01,,---,0.37,VWS V14.01,2013-07-12 02:42:00,
2013-07-11 22:43:00,72.0,70.8,29.95,SSE,167,0.0,1.0,96,0.01,,---,0.37,VWS V14.01,2013-07-12 02:43:00,
2013-07-11 22:44:00,72.0,70.8,29.95,SSE,167,0.0,1.0,96,0.01,,---,0.37,VWS V14.01,2013-07-12 02:44:00,
2013-07-11 22:45:00,72.0,70.8,29.95,SE,141,0.0,1.0,96,0.01,,---,0.37,VWS V14.01,2013-07-12 02:45:00,
2013-07-11 22:46:00,72.0,70.8,29.95,SE,141,0.0,0.0,96,0.01,,---,0.37,VWS V14.01,2013-07-12 02:46:00,
2013-07-11 22:47:00,72.0,70.8,29.95,SE,142,0.0,0.0,96,0.01,,---,0.37,VWS V14.01,2013-07-12 02:47:00,
2013-07-11 22:48:00,72.0,70.8,29.95,SE,142,0.0,0.0,96,0.01,,---,0.37,VWS V14.01,2013-07-12 02:48:00,
2013-07-11 22:49:00,72.0,70.8,29.94,SE,141,0.0,0.0,96,0.01,,---,0.37,VWS V14.01,2013-07-12 02:49:00,
2013-07-11 22:50:00,72.0,70.8,29.94,SE,142,0.0,0.0,96,0.01,,---,0.37,VWS V14.01,2013-07-12 02:50:00,
2013-07-11 22:51:00,72.0,70.8,29.94,SE,141,0.0,0.0,96,0.01,,---,0.37,VWS V14.01,2013-07-12 02:51:00,
2013-07-11 22:52:00,72.0,70.8,29.94,South,186,1.0,1.0,96,0.01,,---,0.37,VWS V14.01,2013-07-12 02:52:00,
2013-07-11 22:53:00,72.0,70.8,29.94,South,186,0.0,1.0,96,0.01,,---,0.37,VWS V14.01,2013-07-12 02:53:00,
2013-07-11 22:54:00,72.0,70.8,29.94,South,186,0.0,0.0,96,0.01,,---,0.37,VWS V14.01,2013-07-12 02:54:00,
2013-07-11 22:55:00,72.0,70.8,29.94,South,186,0.0,0.0,96,0.01,,---,0.37,VWS V14.01,2013-07-12 02:55:00,
2013-07-11 22:56:00,72.0,70.8,29.94,South,186,0.0,0.0,96,0.01,,---,0.37,VWS V14.01,2013-07-12 02:56:00,
2013-07-11 22:57:00,71.9,70.7,29.94,South,186,0.0,0.0,96,0.01,,---,0.37,VWS V14.01,2013-07-12 02:57:00,
2013-07-11 22:58:00,71.9,70.7,29.94,South,186,0.0,0.0,96,0.01,,---,0.37,VWS V14.01,2013-07-12 02:58:00,
2013-07-11 22:59:00,71.9,70.7,29.94,South,186,0.0,0.0,96,0.01,,---,0.37,VWS V14.01,2013-07-12 02:59:00,
2013-07-11 23:00:00,71.9,70.7,29.94,South,186,0.0,0.0,96,0.01,,---,0.37,VWS V14.01,2013-07-12 03:00:00,
2013-07-11 23:01:00,71.9,70.7,29.94,South,186,0.0,0.0,96,0.01,,---,0.37,VWS V14.01,2013-07-12 03:01:00,
2013-07-11 23:02:00,71.9,71.0,29.94,South,186,0.0,0.0,97,0.01,,---,0.37,VWS V14.01,2013-07-12 03:02:00,
2013-07-11 23:03:00,71.9,70.7,29.94,South,186,0.0,0.0,96,0.01,,---,0.37,VWS V14.01,2013-07-12 03:03:00,
2013-07-11 23:04:00,71.9,70.7,29.94,South,186,0.0,0.0,96,0.01,,---,0.37,VWS V14.01,2013-07-12 03:04:00,
2013-07-11 23:05:00,71.9,70.7,29.94,South,186,0.0,0.0,96,0.01,,---,0.37,VWS V14.01,2013-07-12 03:05:00,
2013-07-11 23:06:00,71.9,70.7,29.94,South,186,0.0,0.0,96,0.01,,---,0.37,VWS V14.01,2013-07-12 03:06:00,
2013-07-11 23:07:00,71.9,70.7,29.94,South,186,0.0,0.0,96,0.01,,---,0.37,VWS V14.01,2013-07-12 03:07:00,
2013-07-11 23:08:00,71.9,71.0,29.94,South,186,0.0,0.0,97,0.01,,---,0.37,VWS V14.01,2013-07-12 03:08:00,
2013-07-11 23:09:00,71.8,70.9,29.94,South,186,0.0,0.0,97,0.01,,---,0.37,VWS V14.01,2013-07-12 03:09:00,
2013-07-11 23:10:00,71.8,70.9,29.94,South,186,0.0,0.0,97,0.01,,---,0.37,VWS V14.01,2013-07-12 03:10:00,
2013-07-11 23:11:00,71.9,71.0,29.94,South,186,0.0,0.0,97,0.01,,---,0.37,VWS V14.01,2013-07-12 03:11:00,
2013-07-11 23:12:00,71.8,70.9,29.94,South,186,0.0,0.0,97,0.01,,---,0.37,VWS V14.01,2013-07-12 03:12:00,
2013-07-11 23:13:00,71.8,70.9,29.94,South,186,0.0,0.0,97,0.01,,---,0.37,VWS V14.01,2013-07-12 03:13:00,
2013-07-11 23:14:00,71.9,71.0,29.94,South,186,0.0,0.0,97,0.01,,---,0.37,VWS V14.01,2013-07-12 03:14:00,
2013-07-11 23:15:00,71.9,71.0,29.95,South,186,0.0,0.0,97,0.01,,---,0.37,VWS V14.01,2013-07-12 03:15:00,
2013-07-11 23:16:00,71.9,71.0,29.95,South,186,0.0,0.0,97,0.01,,---,0.37,VWS V14.01,2013-07-12 03:16:00,
2013-07-11 23:17:00,71.9,71.0,29.95,South,186,0.0,0.0,97,0.01,,---,0.37,VWS V14.01,2013-07-12 03:17:00,
2013-07-11 23:18:00,71.9,71.0,29.94,South,186,0.0,0.0,97,0.01,,---,0.37,VWS V14.01,2013-07-12 03:18:00,
2013-07-11 23:19:00,71.9,71.0,29.95,South,186,0.0,0.0,97,0.01,,---,0.37,VWS V14.01,2013-07-12 03:19:00,
2013-07-11 23:20:00,71.9,71.0,29.95,South,186,0.0,0.0,97,0.01,,---,0.37,VWS V14.01,2013-07-12 03:20:00,
2013-07-11 23:21:00,71.9,71.0,29.95,South,186,1.0,1.0,97,0.01,,---,0.37,VWS V14.01,2013-07-12 03:21:00,
2013-07-11 23:22:00,71.9,71.0,29.95,South,186,0.0,1.0,97,0.01,,---,0.37,VWS V14.01,2013-07-12 03:22:00,
2013-07-11 23:23:00,71.9,71.0,29.95,SW,225,1.0,2.0,97,0.01,,---,0.37,VWS V14.01,2013-07-12 03:23:00,
2013-07-11 23:25:00,71.9,71.0,29.95,SSW,198,1.0,2.0,97,0.01,,---,0.37,VWS V14.01,2013-07-12 03:25:00,
2013-07-11 23:26:00,71.9,71.0,29.95,WSW,257,0.0,1.0,97,0.00,,---,0.37,VWS V14.01,2013-07-12 03:26:00,
2013-07-11 23:27:00,71.9,71.0,29.95,WSW,257,1.0,1.0,97,0.00,,---,0.37,VWS V14.01,2013-07-12 03:27:00,
2013-07-11 23:28:00,71.9,71.0,29.95,WSW,257,2.0,2.0,97,0.00,,---,0.37,VWS V14.01,2013-07-12 03:28:00,
2013-07-11 23:29:00,71.9,71.0,29.95,SSW,211,2.0,2.0,97,0.00,,---,0.37,VWS V14.01,2013-07-12 03:29:00,
2013-07-11 23:30:00,71.9,71.0,29.95,WSW,246,2.0,2.0,97,0.00,,---,0.37,VWS V14.01,2013-07-12 03:30:00,
2013-07-11 23:31:00,71.9,71.0,29.95,WSW,244,1.0,1.0,97,0.00,,---,0.37,VWS V14.01,2013-07-12 03:31:00,
2013-07-11 23:32:00,71.9,71.0,29.95,WSW,238,2.0,2.0,97,0.00,,---,0.37,VWS V14.01,2013-07-12 03:32:00,
2013-07-11 23:33:00,71.9,71.0,29.95,West,265,1.0,2.0,97,0.00,,---,0.37,VWS V14.01,2013-07-12 03:33:00,
2013-07-11 23:34:00,71.9,71.0,29.95,West,259,1.0,2.0,97,0.00,,---,0.37,VWS V14.01,2013-07-12 03:34:00,
2013-07-11 23:35:00,71.9,71.0,29.95,WSW,258,0.0,1.0,97,0.00,,---,0.37,VWS V14.01,2013-07-12 03:35:00,
2013-07-11 23:36:00,71.9,71.0,29.95,WSW,248,1.0,1.0,97,0.00,,---,0.37,VWS V14.01,2013-07-12 03:36:00,
2013-07-11 23:37:00,71.9,71.0,29.95,WSW,248,1.0,1.0,97,0.00,,---,0.37,VWS V14.01,2013-07-12 03:37:00,
2013-07-11 23:38:00,71.9,71.0,29.95,SW,236,1.0,2.0,97,0.00,,---,0.37,VWS V14.01,2013-07-12 03:38:00,
2013-07-11 23:40:00,71.9,71.0,29.95,SSW,211,0.0,2.0,97,0.00,,---,0.37,VWS V14.01,2013-07-12 03:40:00,
2013-07-11 23:41:00,71.9,71.0,29.95,SSW,202,1.0,1.0,97,0.00,,---,0.37,VWS V14.01,2013-07-12 03:41:00,
2013-07-11 23:43:00,71.9,71.0,29.95,SSW,202,0.0,0.0,97,0.00,,---,0.37,VWS V14.01,2013-07-12 03:43:00,
2013-07-11 23:44:00,71.9,71.0,29.95,SSW,202,0.0,1.0,97,0.00,,---,0.37,VWS V14.01,2013-07-12 03:44:00,
2013-07-11 23:45:00,71.9,71.0,29.94,SSE,156,1.0,1.0,97,0.00,,---,0.37,VWS V14.01,2013-07-12 03:45:00,
2013-07-11 23:46:00,71.9,71.0,29.94,SSE,152,0.0,1.0,97,0.00,,---,0.37,VWS V14.01,2013-07-12 03:46:00,
2013-07-11 23:47:00,72.0,71.1,29.94,SSE,152,0.0,0.0,97,0.00,,---,0.37,VWS V14.01,2013-07-12 03:47:00,
2013-07-11 23:48:00,72.0,71.1,29.94,South,182,0.0,2.0,97,0.00,,---,0.37,VWS V14.01,2013-07-12 03:48:00,
2013-07-11 23:49:00,72.0,71.1,29.94,South,180,1.0,1.0,97,0.00,,---,0.37,VWS V14.01,2013-07-12 03:49:00,
2013-07-11 23:50:00,72.0,71.1,29.94,SE,126,1.0,1.0,97,0.00,,---,0.37,VWS V14.01,2013-07-12 03:50:00,
2013-07-11 23:51:00,72.0,71.1,29.94,SSE,156,0.0,2.0,97,0.00,,---,0.37,VWS V14.01,2013-07-12 03:51:00,
2013-07-11 23:52:00,72.0,71.1,29.94,East,98,3.0,3.0,97,0.00,,---,0.37,VWS V14.01,2013-07-12 03:52:00,
2013-07-11 23:53:00,72.0,71.1,29.94,SSE,167,2.0,3.0,97,0.00,,---,0.37,VWS V14.01,2013-07-12 03:53:00,
2013-07-11 23:54:00,72.0,71.1,29.94,ESE,103,3.0,5.0,97,0.00,,---,0.37,VWS V14.01,2013-07-12 03:54:00,
2013-07-11 23:55:00,72.0,71.1,29.94,SSW,195,1.0,3.0,97,0.00,,---,0.37,VWS V14.01,2013-07-12 03:55:00,
2013-07-11 23:56:00,72.0,71.1,29.94,SSW,194,0.0,2.0,97,0.00,,---,0.37,VWS V14.01,2013-07-12 03:56:00,
2013-07-11 23:57:00,72.0,71.1,29.94,SSE,147,1.0,1.0,97,0.00,,---,0.37,VWS V14.01,2013-07-12 03:57:00,
2013-07-11 23:58:00,72.0,71.1,29.94,SSE,161,0.0,5.0,97,0.00,,---,0.37,VWS V14.01,2013-07-12 03:58:00,
2013-07-11 23:59:00,72.1,71.2,29.94,SSE,148,2.0,4.0,97,0.00,,---,0.37,VWS V14.01,2013-07-12 03:59:00,